[[{"header":{"parameterUnit":"m.s-1","parameterCategory":1,"la1":31.0,"la2":29.5877,"lo1":-88.7671,"lo2":-86.6584,"dy":0.0162,"dx":0.0185,"nx":115,"ny":88,"refTime":"2023-09-19T12:00:00:Z","depth":0,"parameterNumber":2,"parameterNumberName":"U-component_of_WINDS"},"data":[0.0,0.0,0.0,0.0,0.0,0.0,0.0,0.0,0.0,0.0,0.0,0.0,0.0,0.0,0.0,0.0,0.0,0.0,0.0,0.0,0.0,0.0,0.0,0.0,0.0,0.0,0.0,0.0,0.0,0.0,0.0,0.0,0.0,0.0,0.0,0.0,0.0,0.0,0.0,0.0,0.0,0.0,0.0,0.0,0.0,0.0,0.0,0.0,0.0,0.0,0.0,0.0,0.0,0.0,0.0,0.0,0.0,0.0,0.0,0.0,0.0,0.0,0.0,0.0,0.0,0.0,0.0,0.0,0.0,0.0,0.0,0.0,0.0,0.0,0.0,0.0,0.0,0.0,0.0,0.0,0.0,0.0,0.0,0.0,0.0,0.0,0.0,0.0,0.0,0.0,0.0,0.0,0.0,0.0,0.0,0.0,0.0,0.0,0.0,0.0,0.0,0.0,0.0,0.0,0.0,0.0,0.0,0.0,0.0,0.0,0.0,0.0,0.0,0.0,0.0,0.0,0.0,0.0,0.0,0.0,0.0,0.0,0.0,0.0,0.0,0.0,0.0,0.0,0.0,0.0,0.0,0.0,0.0,0.0,0.0,0.0,0.0,0.0,0.0,0.0,0.0,0.0,0.0,0.0,0.0,0.0,0.0,0.0,0.0,0.0,0.0,0.0,0.0,0.0,0.0,0.0,0.0,0.0,0.0,0.0,0.0,0.0,0.0,0.0,0.0,0.0,0.0,0.0,0.0,0.0,0.0,0.0,0.0,0.0,0.0,0.0,0.0,0.0,0.0,0.0,0.0,0.0,0.0,0.0,0.0,0.0,0.0,0.0,0.0,0.0,0.0,0.0,0.0,0.0,0.0,0.0,0.0,0.0,0.0,0.0,0.0,0.0,0.0,0.0,0.0,0.0,0.0,0.0,0.0,0.0,0.0,0.0,0.0,0.0,0.0,0.0,0.0,0.0,0.0,0.0,0.0,0.0,0.0,0.0,0.0,0.0,0.0,0.0,0.0,0.0,0.0,0.0,0.0,0.0,0.0,0.0,0.0,0.0,0.0,0.0,0.0,0.0,0.0,0.0,0.0,0.0,0.0,0.0,0.0,0.0,0.0,0.0,0.0,0.0,0.0,0.0,0.0,0.0,0.0,0.0,0.0,0.0,0.0,0.0,0.0,0.0,0.0,0.0,0.0,0.0,0.0,0.0,0.0,0.0,0.0,0.0,0.0,0.0,0.0,0.0,0.0,0.0,0.0,0.0,0.0,0.0,0.0,0.0,0.0,0.0,0.0,0.0,0.0,0.0,0.0,0.0,0.0,0.0,0.0,0.0,0.0,0.0,0.0,0.0,0.0,0.0,0.0,0.0,0.0,0.0,0.0,0.0,0.0,0.0,0.0,0.0,0.0,0.0,0.0,0.0,0.0,0.0,0.0,0.0,0.0,0.0,0.0,0.0,0.0,0.0,0.0,0.0,0.0,0.0,0.0,0.0,0.0,0.0,0.0,0.0,0.0,0.0,0.0,0.0,0.0,0.0,0.0,0.0,0.0,0.0,0.0,0.0,0.0,0.0,0.0,0.0,0.0,0.0,0.0,0.0,0.0,0.0,0.0,0.0,0.0,0.0,0.0,0.0,0.0,0.0,0.0,0.0,0.0,0.0,0.0,0.0,0.0,0.0,0.0,0.0,0.0,0.0,0.0,0.0,0.0,0.0,0.0,0.0,0.0,0.0,0.0,0.0,0.0,0.0,0.0,0.0,0.0,0.0,0.0,0.0,0.0,0.0,0.0,0.0,0.0,0.0,0.0,0.0,0.0,0.0,0.0,0.0,0.0,0.0,0.0,0.0,0.0,0.0,0.0,0.0,0.0,0.0,0.0,0.0,0.0,0.0,0.0,0.0,0.0,0.0,0.0,0.0,0.0,0.0,0.0,0.0,0.0,0.0,0.0,0.0,0.0,0.0,0.0,0.0,0.0,0.0,0.0,0.0,0.0,0.0,0.0,0.0,0.0,0.0,0.0,0.0,0.0,0.0,0.0,0.0,0.0,0.0,0.0,0.0,0.0,0.0,0.0,0.0,0.0,0.0,0.0,0.0,0.0,0.0,0.0,0.0,0.0,0.0,0.0,0.0,0.0,0.0,0.0,0.0,0.0,0.0,0.0,0.0,0.0,0.0,0.0,0.0,0.0,0.0,0.0,0.0,0.0,0.0,0.0,0.0,0.0,0.0,0.0,0.0,0.0,0.0,0.0,0.0,0.0,0.0,0.0,0.0,0.0,0.0,0.0,0.0,0.0,0.0,0.0,0.0,0.0,0.0,0.0,0.0,0.0,0.0,0.0,0.0,0.0,0.0,0.0,0.0,0.0,0.0,0.0,0.0,0.0,0.0,0.0,0.0,0.0,0.0,0.0,0.0,0.0,0.0,0.0,0.0,0.0,0.0,0.0,0.0,0.0,0.0,0.0,0.0,0.0,0.0,0.0,0.0,0.0,0.0,0.0,0.0,0.0,0.0,0.0,0.0,0.0,0.0,0.0,0.0,0.0,0.0,0.0,0.0,0.0,0.0,0.0,0.0,0.0,0.0,0.0,0.0,0.0,0.0,0.0,0.0,0.0,0.0,0.0,0.0,0.0,0.0,0.0,0.0,0.0,0.0,0.0,0.0,0.0,0.0,0.0,0.0,0.0,0.0,0.0,0.0,0.0,0.0,0.0,0.0,0.0,0.0,0.0,0.0,0.0,0.0,0.0,0.0,0.0,0.0,0.0,0.0,0.0,0.0,0.0,0.0,0.0,0.0,0.0,0.0,0.0,0.0,0.0,0.0,0.0,0.0,0.0,0.0,0.0,0.0,0.0,0.0,0.0,0.0,0.0,0.0,0.0,0.0,0.0,0.0,0.0,0.0,0.0,0.0,0.0,0.0,0.0,0.0,0.0,0.0,0.0,0.0,0.0,0.0,0.0,0.0,0.0,0.0,0.0,0.0,0.0,0.0,0.0,0.0,0.0,0.0,0.0,0.0,0.0,0.0,0.0,0.0,0.0,0.0,0.0,0.0,0.0,0.0,0.0,0.0,0.0,0.0,0.0,0.0,0.0,0.0,0.0,0.0,0.0,0.0,0.0,0.0,0.0,0.0,0.0,0.0,0.0,0.0,0.0,0.0,0.0,0.0,0.0,0.0,0.0,0.0,0.0,0.0,0.0,0.0,0.0,0.0,0.0,0.0,0.0,0.0,0.0,0.0,0.0,0.0,0.0,0.0,0.0,0.0,0.0,0.0,0.0,0.0,0.0,0.0,0.0,0.0,0.0,0.0,0.0,0.0,0.0,0.0,0.0,0.0,0.0,0.0,0.0,0.0,0.0,0.0,0.0,0.0,0.0,0.0,0.0,0.0,0.0,0.0,0.0,0.0,0.0,0.0,0.0,0.0,0.0,0.0,0.0,0.0,0.0,0.0,0.0,0.0,0.0,0.0,0.0,0.0,0.0,0.0,0.0,0.0,0.0,0.0,0.0,0.0,0.0,0.0,0.0,0.0,0.0,0.0,0.0,0.0,0.0,0.0,0.0,0.0,0.0,0.0,0.0,0.0,0.0,0.0,0.0,0.0,0.0,0.0,0.0,0.0,0.0,0.0,0.0,0.0,0.0,0.0,0.0,0.0,0.0,0.0,0.0,0.0,0.0,0.0,0.0,0.0,0.0,0.0,0.0,0.0,0.0,0.0,0.0,0.0,0.0,0.0,0.0,0.0,0.0,0.0,0.0,0.0,0.0,0.0,0.0,0.0,0.0,0.0,0.0,0.0,0.0,0.0,0.0,0.0,0.0,0.0,0.0,0.0,0.0,0.0,0.0,0.0,0.0,0.0,0.0,0.0,0.0,0.0,0.0,0.0,0.0,0.0,0.0,0.0,0.0,0.0,0.0,0.0,0.0,0.0,0.0,0.0,0.0,0.0,0.0,0.0,0.0,0.0,0.0,0.0,0.0,0.0,0.0,0.0,0.0,0.0,0.0,0.0,0.0,0.0,0.0,0.0,0.0,0.0,0.0,0.0,0.0,0.0,0.0,0.0,0.0,0.0,0.0,0.0,0.0,0.0,0.0,0.0,0.0,0.0,0.0,0.0,0.0,0.0,0.0,0.0,0.0,0.0,0.0,0.0,0.0,0.0,0.0,0.0,0.0,0.0,0.0,0.0,0.0,0.0,0.0,0.0,0.0,0.0,0.0,0.0,0.0,0.0,0.0,0.0,0.0,0.0,0.0,0.0,0.0,0.0,0.0,0.0,0.0,0.0,-2.5372,0.0,0.0,0.0,0.0,0.0,0.0,0.0,0.0,0.0,0.0,0.0,0.0,0.0,0.0,0.0,0.0,0.0,0.0,0.0,0.0,0.0,0.0,0.0,0.0,0.0,0.0,0.0,0.0,0.0,0.0,0.0,0.0,0.0,0.0,0.0,0.0,0.0,0.0,0.0,0.0,0.0,0.0,0.0,0.0,0.0,0.0,0.0,0.0,0.0,0.0,0.0,0.0,0.0,0.0,0.0,0.0,0.0,0.0,0.0,0.0,0.0,0.0,0.0,0.0,0.0,0.0,0.0,0.0,0.0,0.0,0.0,0.0,0.0,0.0,0.0,0.0,0.0,0.0,0.0,0.0,0.0,0.0,0.0,0.0,0.0,0.0,0.0,0.0,0.0,0.0,0.0,0.0,0.0,0.0,0.0,0.0,0.0,0.0,0.0,0.0,0.0,0.0,0.0,0.0,0.0,0.0,0.0,0.0,0.0,0.0,-2.8474,-2.8167,-2.8221,-2.7951,-2.7277,0.0,0.0,0.0,0.0,0.0,0.0,0.0,0.0,0.0,0.0,0.0,0.0,0.0,0.0,0.0,0.0,0.0,0.0,0.0,0.0,0.0,0.0,0.0,0.0,0.0,0.0,0.0,0.0,0.0,0.0,0.0,0.0,0.0,0.0,0.0,0.0,0.0,0.0,0.0,0.0,0.0,0.0,0.0,0.0,0.0,0.0,0.0,0.0,0.0,0.0,0.0,0.0,0.0,0.0,0.0,0.0,0.0,0.0,0.0,0.0,0.0,0.0,0.0,0.0,0.0,0.0,0.0,0.0,0.0,0.0,0.0,0.0,0.0,0.0,0.0,0.0,0.0,0.0,0.0,0.0,0.0,0.0,0.0,0.0,0.0,0.0,0.0,0.0,0.0,0.0,0.0,0.0,0.0,0.0,0.0,0.0,0.0,0.0,0.0,0.0,0.0,0.0,0.0,0.0,0.0,0.0,0.0,0.0,0.0,0.0,0.0,0.0,-2.8851,-2.8872,-2.875,0.0,0.0,0.0,0.0,0.0,0.0,0.0,0.0,0.0,0.0,0.0,0.0,0.0,0.0,0.0,0.0,0.0,0.0,0.0,0.0,0.0,0.0,0.0,0.0,0.0,0.0,0.0,0.0,0.0,0.0,0.0,0.0,0.0,0.0,0.0,0.0,0.0,0.0,0.0,0.0,0.0,0.0,0.0,0.0,0.0,0.0,0.0,0.0,0.0,0.0,0.0,0.0,0.0,0.0,0.0,0.0,0.0,0.0,0.0,0.0,0.0,0.0,0.0,0.0,0.0,0.0,0.0,0.0,0.0,0.0,0.0,0.0,0.0,0.0,0.0,0.0,0.0,0.0,0.0,0.0,0.0,0.0,0.0,0.0,0.0,0.0,0.0,0.0,0.0,0.0,0.0,0.0,0.0,0.0,0.0,0.0,0.0,0.0,0.0,0.0,0.0,0.0,0.0,0.0,0.0,0.0,0.0,0.0,0.0,0.0,-2.8687,-2.8881,-2.8952,0.0,-2.8083,0.0,0.0,0.0,0.0,0.0,0.0,0.0,0.0,0.0,0.0,0.0,0.0,0.0,0.0,0.0,0.0,0.0,0.0,0.0,0.0,0.0,0.0,0.0,0.0,0.0,0.0,0.0,0.0,0.0,0.0,0.0,0.0,0.0,0.0,0.0,0.0,0.0,0.0,0.0,0.0,0.0,0.0,0.0,0.0,0.0,0.0,0.0,0.0,0.0,0.0,0.0,0.0,0.0,0.0,0.0,0.0,0.0,0.0,0.0,0.0,0.0,0.0,0.0,0.0,0.0,0.0,0.0,0.0,0.0,0.0,0.0,0.0,0.0,0.0,0.0,0.0,0.0,0.0,0.0,0.0,0.0,0.0,0.0,0.0,0.0,0.0,0.0,0.0,0.0,0.0,0.0,0.0,0.0,0.0,0.0,0.0,0.0,0.0,0.0,0.0,0.0,0.0,0.0,0.0,0.0,0.0,0.0,0.0,0.0,0.0,-2.9383,-2.9539,-2.9313,-2.8841,0.0,0.0,0.0,0.0,0.0,0.0,0.0,0.0,0.0,0.0,0.0,0.0,0.0,0.0,0.0,0.0,0.0,0.0,0.0,0.0,0.0,0.0,0.0,0.0,0.0,0.0,0.0,0.0,0.0,0.0,0.0,0.0,0.0,0.0,0.0,0.0,0.0,0.0,0.0,0.0,0.0,0.0,0.0,0.0,0.0,0.0,0.0,0.0,0.0,0.0,0.0,0.0,0.0,0.0,0.0,0.0,0.0,0.0,0.0,0.0,0.0,0.0,0.0,0.0,0.0,0.0,0.0,0.0,0.0,0.0,0.0,0.0,0.0,0.0,0.0,0.0,0.0,0.0,0.0,0.0,0.0,0.0,0.0,0.0,0.0,0.0,0.0,0.0,0.0,0.0,0.0,0.0,0.0,0.0,0.0,0.0,0.0,0.0,0.0,0.0,0.0,0.0,0.0,0.0,0.0,0.0,0.0,0.0,0.0,0.0,-3.0387,-3.0142,-3.0131,-2.9847,-2.9343,-2.8575,0.0,0.0,0.0,0.0,0.0,0.0,0.0,0.0,0.0,0.0,0.0,0.0,0.0,0.0,0.0,0.0,0.0,0.0,0.0,0.0,0.0,0.0,0.0,0.0,0.0,0.0,0.0,0.0,0.0,0.0,0.0,0.0,0.0,0.0,0.0,0.0,0.0,0.0,0.0,0.0,0.0,0.0,0.0,0.0,0.0,0.0,0.0,0.0,0.0,0.0,0.0,0.0,0.0,0.0,0.0,0.0,0.0,0.0,0.0,0.0,0.0,0.0,0.0,0.0,0.0,0.0,0.0,0.0,0.0,0.0,0.0,0.0,0.0,0.0,0.0,0.0,0.0,0.0,0.0,0.0,0.0,0.0,0.0,0.0,0.0,0.0,0.0,0.0,0.0,0.0,0.0,0.0,0.0,0.0,0.0,0.0,0.0,0.0,0.0,0.0,0.0,0.0,0.0,0.0,0.0,0.0,0.0,0.0,-3.0914,-3.1007,-3.0868,-3.0509,-3.0583,-3.0267,0.0,0.0,0.0,0.0,0.0,0.0,0.0,0.0,0.0,0.0,0.0,0.0,0.0,0.0,0.0,0.0,0.0,0.0,0.0,0.0,0.0,0.0,0.0,0.0,0.0,0.0,0.0,0.0,0.0,0.0,0.0,0.0,0.0,0.0,0.0,0.0,0.0,0.0,0.0,0.0,0.0,0.0,0.0,0.0,0.0,0.0,0.0,0.0,0.0,0.0,0.0,0.0,0.0,0.0,0.0,0.0,0.0,0.0,0.0,0.0,0.0,0.0,0.0,0.0,0.0,0.0,0.0,0.0,0.0,0.0,0.0,0.0,0.0,0.0,0.0,0.0,0.0,0.0,0.0,0.0,0.0,0.0,0.0,0.0,0.0,0.0,0.0,0.0,0.0,0.0,0.0,0.0,0.0,0.0,0.0,0.0,0.0,0.0,0.0,0.0,0.0,0.0,0.0,0.0,0.0,0.0,0.0,0.0,0.0,-3.239,-3.2238,-3.1857,-3.1359,-3.1507,-3.1228,0.0,0.0,0.0,0.0,0.0,0.0,0.0,0.0,0.0,0.0,0.0,0.0,0.0,0.0,0.0,0.0,0.0,0.0,0.0,0.0,0.0,0.0,0.0,0.0,0.0,0.0,0.0,0.0,0.0,0.0,0.0,0.0,0.0,0.0,0.0,0.0,0.0,0.0,0.0,0.0,0.0,0.0,0.0,0.0,0.0,0.0,0.0,0.0,0.0,0.0,0.0,0.0,0.0,0.0,0.0,0.0,0.0,0.0,0.0,0.0,0.0,0.0,0.0,0.0,0.0,0.0,0.0,0.0,0.0,0.0,0.0,0.0,0.0,0.0,0.0,0.0,0.0,0.0,0.0,0.0,0.0,0.0,0.0,0.0,0.0,0.0,0.0,0.0,0.0,0.0,0.0,0.0,0.0,0.0,0.0,0.0,0.0,0.0,0.0,0.0,0.0,0.0,0.0,0.0,0.0,0.0,0.0,0.0,0.0,-3.3368,0.0,-3.2877,-3.2303,-3.2433,-3.2041,0.0,0.0,0.0,0.0,0.0,0.0,0.0,0.0,0.0,0.0,0.0,0.0,0.0,0.0,0.0,0.0,0.0,0.0,0.0,0.0,0.0,0.0,0.0,0.0,0.0,0.0,0.0,0.0,0.0,0.0,0.0,0.0,0.0,0.0,0.0,0.0,0.0,0.0,0.0,0.0,0.0,0.0,0.0,0.0,0.0,0.0,0.0,0.0,0.0,0.0,0.0,0.0,0.0,0.0,0.0,0.0,0.0,0.0,0.0,0.0,0.0,0.0,0.0,0.0,0.0,0.0,0.0,0.0,0.0,0.0,0.0,0.0,0.0,0.0,0.0,0.0,0.0,0.0,0.0,0.0,0.0,0.0,0.0,0.0,0.0,0.0,0.0,0.0,0.0,0.0,0.0,0.0,0.0,0.0,0.0,0.0,0.0,0.0,0.0,0.0,0.0,0.0,0.0,0.0,0.0,0.0,0.0,0.0,-3.3198,-3.3703,-3.3959,-3.3788,-3.3273,-3.3371,-3.2703,0.0,0.0,0.0,0.0,0.0,0.0,0.0,0.0,0.0,0.0,0.0,0.0,0.0,0.0,0.0,0.0,0.0,0.0,0.0,0.0,0.0,0.0,0.0,0.0,0.0,0.0,0.0,0.0,0.0,0.0,0.0,0.0,0.0,0.0,0.0,0.0,0.0,0.0,0.0,0.0,0.0,0.0,0.0,0.0,0.0,0.0,0.0,0.0,0.0,0.0,0.0,0.0,0.0,0.0,0.0,0.0,0.0,0.0,0.0,0.0,0.0,0.0,0.0,0.0,0.0,0.0,0.0,0.0,0.0,0.0,0.0,0.0,0.0,0.0,0.0,0.0,0.0,0.0,0.0,0.0,0.0,0.0,0.0,0.0,0.0,0.0,0.0,0.0,0.0,0.0,0.0,0.0,0.0,0.0,0.0,0.0,0.0,0.0,0.0,0.0,0.0,0.0,0.0,0.0,0.0,0.0,0.0,0.0,0.0,-3.4706,-3.4395,-3.45,-3.5022,-3.4656,-3.3989,0.0,0.0,0.0,0.0,0.0,0.0,0.0,0.0,0.0,0.0,0.0,0.0,0.0,0.0,0.0,0.0,0.0,0.0,0.0,0.0,0.0,0.0,0.0,0.0,0.0,0.0,0.0,0.0,0.0,0.0,0.0,0.0,0.0,0.0,0.0,0.0,0.0,0.0,0.0,0.0,0.0,0.0,0.0,0.0,0.0,0.0,0.0,0.0,0.0,0.0,0.0,0.0,0.0,0.0,0.0,0.0,0.0,0.0,0.0,0.0,0.0,0.0,0.0,0.0,0.0,0.0,0.0,0.0,0.0,0.0,0.0,0.0,0.0,0.0,0.0,0.0,0.0,0.0,0.0,0.0,0.0,0.0,0.0,0.0,0.0,0.0,0.0,0.0,0.0,0.0,0.0,0.0,0.0,0.0,0.0,0.0,0.0,0.0,0.0,0.0,0.0,0.0,0.0,0.0,0.0,0.0,0.0,0.0,0.0,-3.6135,-3.5616,-3.5642,-3.644,-3.5808,-3.5131,-3.4429,0.0,0.0,0.0,0.0,0.0,0.0,0.0,0.0,0.0,0.0,0.0,0.0,0.0,0.0,0.0,0.0,0.0,0.0,0.0,0.0,0.0,0.0,0.0,0.0,0.0,0.0,0.0,0.0,0.0,0.0,0.0,0.0,0.0,0.0,0.0,0.0,0.0,0.0,0.0,0.0,0.0,0.0,0.0,0.0,0.0,0.0,0.0,0.0,0.0,0.0,0.0,0.0,0.0,0.0,0.0,0.0,0.0,0.0,0.0,0.0,0.0,0.0,0.0,0.0,0.0,0.0,0.0,0.0,0.0,0.0,0.0,0.0,0.0,0.0,0.0,0.0,0.0,0.0,0.0,0.0,0.0,0.0,0.0,0.0,0.0,0.0,0.0,0.0,0.0,0.0,0.0,0.0,0.0,0.0,0.0,0.0,0.0,0.0,0.0,0.0,0.0,0.0,0.0,0.0,0.0,0.0,0.0,0.0,-3.801,-3.7412,-3.7235,-3.7449,-3.6767,-3.6088,0.0,0.0,0.0,0.0,0.0,0.0,0.0,0.0,0.0,0.0,0.0,0.0,0.0,0.0,0.0,0.0,0.0,0.0,0.0,0.0,0.0,0.0,0.0,0.0,0.0,0.0,0.0,0.0,0.0,0.0,0.0,0.0,0.0,0.0,0.0,0.0,0.0,0.0,0.0,0.0,0.0,0.0,0.0,0.0,0.0,0.0,0.0,0.0,0.0,0.0,0.0,0.0,0.0,0.0,0.0,0.0,0.0,0.0,0.0,0.0,0.0,0.0,0.0,0.0,0.0,0.0,0.0,0.0,0.0,0.0,0.0,0.0,0.0,0.0,0.0,0.0,0.0,0.0,0.0,0.0,0.0,0.0,0.0,0.0,0.0,0.0,0.0,0.0,0.0,0.0,0.0,0.0,0.0,0.0,0.0,0.0,0.0,0.0,0.0,0.0,0.0,0.0,0.0,0.0,0.0,0.0,0.0,0.0,0.0,-3.948,-3.9669,-3.9301,-3.845,-3.7161,-3.6427,0.0,0.0,0.0,0.0,0.0,0.0,0.0,0.0,0.0,0.0,0.0,0.0,0.0,0.0,0.0,0.0,0.0,0.0,0.0,0.0,0.0,0.0,0.0,0.0,0.0,0.0,0.0,0.0,0.0,0.0,0.0,0.0,0.0,0.0,0.0,0.0,0.0,0.0,0.0,0.0,0.0,0.0,0.0,0.0,0.0,0.0,0.0,0.0,0.0,0.0,0.0,0.0,0.0,0.0,0.0,0.0,0.0,0.0,0.0,0.0,0.0,0.0,0.0,0.0,0.0,0.0,0.0,0.0,0.0,0.0,0.0,0.0,0.0,0.0,0.0,0.0,0.0,0.0,0.0,0.0,0.0,0.0,0.0,0.0,0.0,0.0,0.0,0.0,0.0,0.0,0.0,0.0,0.0,0.0,0.0,0.0,0.0,0.0,0.0,0.0,0.0,0.0,0.0,0.0,0.0,0.0,0.0,0.0,-3.8241,-4.0137,-4.0143,-4.003,-3.9898,-3.8823,-3.7932,0.0,0.0,0.0,0.0,0.0,0.0,0.0,0.0,0.0,0.0,0.0,0.0,0.0,0.0,0.0,0.0,0.0,0.0,0.0,0.0,0.0,0.0,0.0,0.0,0.0,0.0,0.0,0.0,0.0,0.0,0.0,0.0,0.0,0.0,0.0,0.0,0.0,0.0,0.0,0.0,0.0,0.0,0.0,0.0,0.0,0.0,0.0,0.0,0.0,0.0,0.0,0.0,0.0,0.0,0.0,0.0,0.0,0.0,0.0,0.0,0.0,0.0,0.0,0.0,0.0,0.0,0.0,0.0,0.0,0.0,0.0,0.0,0.0,0.0,0.0,0.0,0.0,0.0,0.0,0.0,0.0,0.0,0.0,0.0,0.0,0.0,0.0,0.0,0.0,0.0,0.0,0.0,0.0,0.0,0.0,0.0,0.0,0.0,0.0,0.0,0.0,0.0,0.0,0.0,0.0,0.0,0.0,0.0,-3.8731,-4.0122,-3.973,-4.0087,-4.1291,-4.0801,-3.9743,0.0,0.0,0.0,0.0,0.0,0.0,0.0,0.0,0.0,0.0,0.0,0.0,0.0,0.0,0.0,0.0,0.0,0.0,0.0,0.0,0.0,0.0,0.0,0.0,0.0,0.0,0.0,0.0,0.0,0.0,0.0,0.0,0.0,0.0,0.0,0.0,0.0,0.0,0.0,0.0,0.0,0.0,0.0,0.0,0.0,0.0,0.0,0.0,0.0,0.0,0.0,0.0,0.0,0.0,0.0,0.0,0.0,0.0,0.0,0.0,0.0,0.0,0.0,0.0,0.0,0.0,0.0,0.0,0.0,0.0,0.0,0.0,0.0,0.0,0.0,0.0,0.0,0.0,0.0,0.0,0.0,0.0,0.0,0.0,0.0,0.0,0.0,0.0,0.0,0.0,0.0,0.0,0.0,0.0,0.0,0.0,0.0,0.0,0.0,0.0,0.0,0.0,0.0,0.0,0.0,0.0,0.0,0.0,-3.8793,-4.0096,-4.0453,-4.0847,-4.1301,-4.0257,-3.9153,0.0,0.0,0.0,0.0,0.0,0.0,0.0,0.0,0.0,0.0,0.0,0.0,0.0,0.0,0.0,0.0,0.0,0.0,0.0,0.0,0.0,0.0,0.0,0.0,0.0,0.0,0.0,0.0,0.0,0.0,0.0,0.0,0.0,0.0,0.0,0.0,0.0,0.0,0.0,0.0,0.0,0.0,0.0,0.0,0.0,0.0,0.0,0.0,-3.7595,0.0,0.0,0.0,0.0,0.0,0.0,0.0,0.0,0.0,0.0,0.0,0.0,0.0,0.0,0.0,0.0,0.0,0.0,0.0,0.0,0.0,0.0,0.0,0.0,0.0,0.0,0.0,0.0,0.0,0.0,0.0,0.0,0.0,0.0,0.0,0.0,0.0,0.0,0.0,0.0,0.0,0.0,0.0,0.0,0.0,0.0,0.0,0.0,0.0,0.0,0.0,0.0,0.0,0.0,0.0,0.0,0.0,0.0,0.0,-3.8777,-4.0048,-4.0227,-4.0605,-4.1232,-4.0457,-3.9412,0.0,0.0,0.0,0.0,0.0,0.0,0.0,0.0,0.0,0.0,0.0,0.0,0.0,0.0,0.0,0.0,0.0,0.0,0.0,0.0,0.0,0.0,0.0,0.0,0.0,0.0,0.0,0.0,0.0,0.0,0.0,0.0,0.0,0.0,0.0,0.0,0.0,0.0,0.0,0.0,0.0,0.0,0.0,0.0,0.0,0.0,0.0,0.0,0.0,0.0,0.0,0.0,0.0,0.0,0.0,0.0,0.0,0.0,0.0,0.0,0.0,0.0,0.0,0.0,0.0,0.0,0.0,0.0,0.0,0.0,0.0,0.0,0.0,0.0,0.0,0.0,0.0,0.0,0.0,0.0,0.0,0.0,0.0,0.0,0.0,0.0,0.0,0.0,0.0,0.0,0.0,0.0,0.0,0.0,0.0,0.0,0.0,0.0,0.0,0.0,0.0,0.0,0.0,0.0,0.0,0.0,0.0,-3.8017,-3.8739,-3.9845,-3.9688,-4.0068,-4.1068,-4.0838,-3.9915,-3.8266,0.0,0.0,0.0,0.0,0.0,0.0,0.0,0.0,0.0,0.0,0.0,0.0,0.0,0.0,0.0,0.0,0.0,0.0,0.0,0.0,0.0,0.0,0.0,0.0,0.0,0.0,0.0,0.0,0.0,0.0,0.0,0.0,0.0,0.0,0.0,0.0,0.0,0.0,-3.6262,-3.7311,0.0,0.0,0.0,0.0,0.0,0.0,0.0,0.0,-4.0122,0.0,0.0,0.0,0.0,0.0,0.0,0.0,0.0,0.0,0.0,0.0,0.0,0.0,0.0,0.0,0.0,0.0,0.0,0.0,0.0,0.0,0.0,0.0,0.0,0.0,0.0,0.0,0.0,0.0,0.0,0.0,0.0,0.0,0.0,0.0,0.0,0.0,0.0,0.0,0.0,0.0,0.0,0.0,0.0,0.0,0.0,0.0,0.0,0.0,0.0,0.0,0.0,0.0,0.0,0.0,0.0,-3.7613,-3.8198,-3.8701,-3.9076,-3.9631,-4.0026,-4.03,-4.0516,-3.9863,-3.8301,0.0,0.0,0.0,0.0,0.0,0.0,0.0,0.0,0.0,0.0,0.0,0.0,0.0,0.0,0.0,0.0,0.0,0.0,0.0,0.0,0.0,0.0,0.0,0.0,0.0,0.0,0.0,0.0,0.0,0.0,0.0,0.0,0.0,0.0,0.0,0.0,0.0,0.0,0.0,-3.9448,-4.013,0.0,0.0,0.0,0.0,0.0,0.0,0.0,0.0,-4.02,0.0,0.0,0.0,0.0,0.0,0.0,0.0,0.0,0.0,0.0,0.0,0.0,0.0,0.0,0.0,0.0,0.0,0.0,0.0,0.0,0.0,0.0,0.0,0.0,0.0,0.0,0.0,0.0,0.0,0.0,0.0,0.0,0.0,0.0,0.0,0.0,0.0,0.0,0.0,0.0,0.0,0.0,0.0,0.0,0.0,0.0,0.0,0.0,0.0,0.0,0.0,0.0,0.0,0.0,0.0,-3.7577,-3.8148,-3.8597,-3.8892,-3.9471,-3.9865,-4.0042,-4.0307,-3.9716,0.0,0.0,0.0,0.0,0.0,0.0,0.0,0.0,0.0,0.0,0.0,0.0,0.0,0.0,0.0,0.0,0.0,0.0,0.0,0.0,0.0,0.0,0.0,0.0,0.0,0.0,0.0,0.0,0.0,0.0,0.0,0.0,0.0,0.0,0.0,0.0,0.0,0.0,0.0,0.0,-4.0967,-4.1579,-4.2109,0.0,0.0,0.0,0.0,0.0,0.0,-4.1168,-4.0956,0.0,0.0,0.0,0.0,0.0,0.0,0.0,0.0,0.0,0.0,0.0,0.0,0.0,0.0,0.0,0.0,0.0,0.0,0.0,0.0,0.0,0.0,0.0,0.0,0.0,0.0,0.0,0.0,0.0,0.0,0.0,0.0,0.0,0.0,0.0,0.0,0.0,0.0,0.0,0.0,0.0,0.0,0.0,0.0,0.0,0.0,0.0,0.0,0.0,0.0,0.0,0.0,0.0,0.0,0.0,-3.7577,-3.8066,-3.8489,-3.8873,-3.9169,-3.9551,-3.9983,-4.0031,-3.9423,0.0,0.0,0.0,0.0,0.0,0.0,0.0,0.0,0.0,0.0,0.0,0.0,0.0,0.0,0.0,0.0,0.0,0.0,0.0,0.0,0.0,0.0,0.0,0.0,0.0,0.0,0.0,0.0,0.0,0.0,0.0,0.0,0.0,0.0,0.0,0.0,0.0,0.0,0.0,0.0,0.0,-4.2825,-4.2905,-4.3175,0.0,0.0,0.0,0.0,-4.2397,-4.2184,0.0,0.0,0.0,0.0,0.0,0.0,0.0,0.0,0.0,0.0,0.0,0.0,0.0,0.0,0.0,0.0,0.0,0.0,0.0,0.0,0.0,0.0,0.0,0.0,0.0,0.0,0.0,0.0,0.0,0.0,0.0,0.0,0.0,0.0,0.0,0.0,0.0,0.0,0.0,0.0,0.0,0.0,0.0,0.0,0.0,0.0,0.0,0.0,0.0,0.0,0.0,0.0,0.0,0.0,0.0,0.0,-3.7595,-3.8017,-3.8444,-3.8855,-3.8613,-3.8939,-3.9945,-3.945,-3.8799,0.0,0.0,0.0,0.0,0.0,0.0,0.0,0.0,0.0,0.0,0.0,0.0,0.0,0.0,0.0,0.0,0.0,0.0,0.0,0.0,0.0,0.0,0.0,0.0,0.0,0.0,0.0,0.0,0.0,0.0,0.0,0.0,0.0,0.0,0.0,0.0,0.0,0.0,0.0,0.0,0.0,-4.3471,-4.364,-4.4346,-4.4334,0.0,0.0,-4.3657,-4.3256,-4.3766,0.0,0.0,0.0,0.0,0.0,0.0,0.0,0.0,0.0,0.0,0.0,0.0,0.0,0.0,0.0,0.0,0.0,0.0,0.0,0.0,0.0,0.0,0.0,0.0,0.0,0.0,0.0,0.0,0.0,0.0,0.0,0.0,0.0,0.0,0.0,0.0,0.0,0.0,0.0,0.0,0.0,0.0,0.0,0.0,0.0,0.0,0.0,0.0,0.0,0.0,0.0,0.0,0.0,0.0,0.0,-3.6891,-3.7428,-3.7792,-3.8181,-3.8646,-3.8316,-3.8669,-3.9794,-3.8688,-3.8038,0.0,0.0,0.0,0.0,0.0,0.0,0.0,0.0,0.0,0.0,0.0,0.0,0.0,0.0,0.0,0.0,0.0,0.0,0.0,0.0,0.0,0.0,0.0,0.0,0.0,0.0,0.0,0.0,0.0,0.0,0.0,0.0,0.0,0.0,0.0,0.0,0.0,0.0,0.0,0.0,0.0,0.0,-4.4303,-4.5102,0.0,0.0,0.0,-4.4102,-4.3947,0.0,0.0,0.0,0.0,0.0,0.0,0.0,0.0,0.0,0.0,0.0,0.0,0.0,0.0,0.0,0.0,0.0,0.0,0.0,0.0,0.0,0.0,0.0,0.0,0.0,0.0,0.0,0.0,0.0,0.0,0.0,0.0,0.0,0.0,0.0,0.0,0.0,0.0,0.0,0.0,0.0,0.0,0.0,0.0,0.0,0.0,0.0,0.0,0.0,0.0,0.0,0.0,0.0,0.0,0.0,0.0,0.0,-3.7259,-3.7523,-3.7822,-3.8183,-3.7765,-3.8027,-3.8949,-3.7721,0.0,0.0,0.0,0.0,0.0,0.0,0.0,0.0,0.0,0.0,0.0,0.0,0.0,0.0,0.0,0.0,0.0,0.0,0.0,0.0,0.0,0.0,0.0,0.0,0.0,0.0,0.0,-3.4751,0.0,0.0,0.0,0.0,0.0,0.0,0.0,0.0,0.0,0.0,0.0,0.0,0.0,0.0,-4.5479,-4.4875,-4.5517,-4.5565,0.0,0.0,-4.4324,-4.4348,-4.4167,-4.4106,0.0,0.0,0.0,0.0,0.0,0.0,0.0,0.0,0.0,0.0,0.0,0.0,0.0,0.0,0.0,0.0,0.0,0.0,0.0,0.0,0.0,0.0,0.0,0.0,0.0,0.0,0.0,0.0,0.0,0.0,0.0,0.0,0.0,0.0,0.0,0.0,0.0,0.0,0.0,0.0,0.0,0.0,0.0,0.0,0.0,0.0,0.0,0.0,0.0,0.0,0.0,0.0,0.0,0.0,0.0,-3.7089,-3.7188,-3.7291,-3.7348,-3.6681,-3.6591,-3.7141,-3.6421,-3.6106,0.0,0.0,0.0,0.0,0.0,0.0,0.0,0.0,0.0,0.0,0.0,0.0,0.0,0.0,0.0,0.0,0.0,0.0,0.0,0.0,0.0,0.0,0.0,0.0,0.0,0.0,0.0,0.0,0.0,0.0,0.0,0.0,0.0,0.0,0.0,0.0,0.0,0.0,0.0,0.0,0.0,-4.5194,-4.5337,-4.5509,-4.5369,0.0,0.0,-4.477,-4.4299,-4.5366,-4.5813,-4.4528,0.0,0.0,0.0,0.0,0.0,0.0,0.0,0.0,0.0,0.0,0.0,0.0,0.0,0.0,0.0,0.0,0.0,0.0,0.0,0.0,0.0,0.0,0.0,0.0,0.0,0.0,0.0,0.0,0.0,0.0,0.0,0.0,0.0,0.0,0.0,0.0,0.0,0.0,0.0,0.0,0.0,0.0,0.0,0.0,0.0,0.0,0.0,0.0,0.0,0.0,0.0,0.0,0.0,-3.6318,-3.6776,-3.6895,-3.691,-3.6793,-3.6285,-3.6185,-3.6556,-3.5483,-3.5225,0.0,0.0,0.0,0.0,0.0,0.0,0.0,0.0,0.0,0.0,0.0,0.0,0.0,0.0,0.0,0.0,0.0,0.0,0.0,0.0,0.0,0.0,0.0,0.0,0.0,0.0,0.0,0.0,-3.7142,-3.7648,-3.8183,0.0,0.0,0.0,0.0,0.0,0.0,0.0,0.0,0.0,0.0,-4.5549,-4.5099,-4.5172,0.0,0.0,-4.504,-4.5309,-4.477,-4.5193,-4.5195,-4.4183,-4.2835,0.0,0.0,0.0,0.0,0.0,0.0,0.0,0.0,0.0,0.0,0.0,0.0,0.0,0.0,0.0,0.0,0.0,0.0,0.0,0.0,0.0,0.0,0.0,0.0,0.0,0.0,0.0,0.0,0.0,0.0,0.0,0.0,0.0,0.0,0.0,0.0,0.0,0.0,0.0,0.0,0.0,0.0,0.0,0.0,0.0,0.0,0.0,0.0,0.0,0.0,0.0,0.0,-3.6041,-3.6409,-3.6594,-3.6482,-3.6025,-3.5856,-3.5785,-3.5789,-3.4966,-3.4829,0.0,0.0,0.0,0.0,0.0,0.0,0.0,0.0,0.0,0.0,0.0,0.0,0.0,0.0,0.0,0.0,0.0,0.0,0.0,0.0,0.0,0.0,0.0,0.0,0.0,0.0,0.0,0.0,-3.7702,-3.8347,-3.8772,0.0,0.0,0.0,0.0,0.0,0.0,0.0,0.0,0.0,0.0,-4.534,-4.48,-4.4817,-4.4813,-4.459,-4.5107,-4.5387,-4.4925,-4.4646,-4.4223,-4.3496,0.0,0.0,0.0,0.0,0.0,0.0,0.0,0.0,0.0,0.0,0.0,0.0,0.0,0.0,0.0,0.0,0.0,0.0,0.0,0.0,0.0,0.0,0.0,0.0,0.0,0.0,0.0,0.0,0.0,0.0,-3.6352,0.0,0.0,0.0,0.0,0.0,0.0,0.0,0.0,0.0,0.0,0.0,0.0,0.0,0.0,0.0,0.0,0.0,0.0,0.0,0.0,0.0,0.0,-3.5661,-3.5907,-3.6287,-3.5981,-3.4995,-3.5307,-3.5225,-3.473,-3.4891,-3.5028,-3.5133,0.0,0.0,0.0,0.0,0.0,0.0,0.0,0.0,0.0,0.0,0.0,0.0,0.0,0.0,0.0,0.0,0.0,0.0,0.0,0.0,0.0,0.0,0.0,0.0,0.0,0.0,-3.7578,-3.8218,-3.877,0.0,0.0,0.0,0.0,0.0,0.0,0.0,0.0,0.0,0.0,-4.3895,-4.4387,-4.4485,-4.4449,-4.4506,-4.483,-4.4993,-4.4887,-4.4546,-4.3816,-4.3066,0.0,0.0,0.0,0.0,0.0,0.0,0.0,0.0,0.0,0.0,0.0,0.0,0.0,0.0,0.0,0.0,0.0,0.0,0.0,0.0,0.0,0.0,0.0,0.0,0.0,0.0,0.0,-3.9933,-3.911,0.0,0.0,0.0,0.0,0.0,0.0,0.0,0.0,0.0,0.0,0.0,-3.6659,-3.6367,0.0,0.0,0.0,0.0,0.0,0.0,0.0,0.0,0.0,0.0,0.0,0.0,-3.5503,-3.581,-3.5714,-3.526,-3.4505,-3.4359,-3.4011,-3.3405,-3.4045,-3.4739,-3.5484,0.0,0.0,0.0,0.0,0.0,0.0,0.0,0.0,0.0,0.0,0.0,0.0,0.0,0.0,0.0,0.0,0.0,0.0,0.0,0.0,0.0,0.0,0.0,0.0,0.0,-3.6667,0.0,0.0,0.0,0.0,0.0,0.0,0.0,0.0,0.0,0.0,0.0,-4.2215,-4.252,-4.3349,-4.3886,-4.384,-4.3886,-4.4248,0.0,0.0,0.0,0.0,0.0,0.0,0.0,0.0,0.0,0.0,0.0,0.0,0.0,0.0,-3.8305,-3.859,-3.8634,-3.8634,-3.8634,0.0,0.0,0.0,0.0,0.0,0.0,0.0,0.0,0.0,0.0,0.0,0.0,0.0,0.0,-4.1012,0.0,-3.9839,0.0,0.0,0.0,0.0,0.0,0.0,0.0,0.0,-3.6638,-3.6491,-3.6044,-3.5738,-3.544,0.0,-3.4487,-3.4275,0.0,0.0,0.0,0.0,0.0,0.0,0.0,0.0,-3.4476,-3.4717,-3.4694,-3.4364,-3.3725,-3.3668,-3.3405,-3.3013,-3.3641,-3.4341,-3.5073,-3.4012,-3.372,0.0,0.0,0.0,0.0,0.0,0.0,0.0,0.0,0.0,0.0,0.0,0.0,0.0,0.0,0.0,0.0,0.0,0.0,0.0,0.0,0.0,0.0,0.0,-3.6758,0.0,0.0,0.0,0.0,0.0,0.0,0.0,0.0,0.0,-3.9692,-4.0694,-4.1429,-4.1629,-4.2547,-4.3032,-4.2638,0.0,0.0,0.0,0.0,0.0,0.0,0.0,-4.2018,-4.0091,-3.9841,-4.0111,-4.079,-4.0116,-3.9324,-3.8827,0.0,0.0,-3.8285,-3.8348,-3.8382,-3.8415,-3.859,-3.874,-3.8796,-3.8709,-3.8234,0.0,0.0,0.0,0.0,0.0,0.0,0.0,0.0,-4.0896,-4.0665,0.0,-3.98,0.0,0.0,0.0,0.0,0.0,-3.7721,0.0,0.0,-3.5639,-3.5264,-3.4977,-3.457,-3.4183,-3.3931,-3.4016,-3.3797,-3.333,-3.3015,0.0,0.0,0.0,0.0,0.0,0.0,-3.2617,-3.2752,-3.3313,-3.3287,-3.2625,-3.3132,-3.3441,-3.3476,-3.3688,-3.3896,-3.3992,-3.3393,-3.3137,-3.34,-3.3324,0.0,0.0,0.0,0.0,0.0,0.0,0.0,0.0,0.0,0.0,0.0,0.0,0.0,0.0,0.0,0.0,0.0,0.0,0.0,0.0,-3.5665,0.0,0.0,0.0,0.0,0.0,0.0,0.0,0.0,0.0,0.0,-3.9551,-4.0283,-4.0778,-4.0621,0.0,0.0,0.0,0.0,-4.2185,-4.2237,-4.2868,-4.296,-4.1718,-4.092,-4.0007,-3.8722,0.0,0.0,-3.9445,-3.8866,-3.8309,-3.8292,-3.7657,-3.73,-3.7876,-3.8032,-3.8119,-3.8239,-3.8336,-3.8396,-3.8387,-3.7946,-3.7272,-4.5546,0.0,0.0,0.0,0.0,-4.3559,-4.3237,-4.301,-4.2404,-4.1778,-4.1121,-4.0621,0.0,0.0,0.0,0.0,0.0,0.0,-3.6882,-3.6205,-3.5883,-3.5399,-3.4787,-3.4603,-3.434,-3.4042,-3.3503,-3.3187,-3.3118,-3.2348,-3.2384,-3.321,0.0,0.0,0.0,0.0,-3.222,-3.2331,-3.2388,-3.2273,-3.2026,-3.1969,-3.2278,-3.2981,-3.3614,-3.4043,-3.4266,-3.3653,-3.3421,-3.3654,-3.2148,0.0,0.0,0.0,0.0,0.0,0.0,0.0,0.0,0.0,0.0,0.0,0.0,0.0,0.0,0.0,0.0,0.0,0.0,0.0,-3.4489,-3.5968,-3.6908,0.0,0.0,0.0,0.0,0.0,0.0,0.0,0.0,0.0,-4.0092,-3.9866,-3.9715,0.0,0.0,-4.0796,-4.1078,-4.124,-4.1563,-4.2159,-4.2484,0.0,0.0,-3.9934,-3.9364,-3.7396,-3.7682,-3.8257,-3.843,-3.817,-3.7968,-3.8067,-3.7496,-3.693,-3.6572,-3.7184,-3.7721,-3.7863,-3.8035,-3.7985,-3.7473,-3.7291,-3.6869,-4.5172,-4.4612,-4.4669,-4.4525,-4.4213,-4.3865,-4.3525,-4.3214,-4.2537,-4.1959,-4.152,-4.0872,-4.0327,-3.9887,-3.9282,0.0,0.0,0.0,-3.6296,-3.564,-3.5202,-3.4725,-3.4223,-3.4086,-3.3844,-3.3498,-3.2998,-3.2773,-3.273,-3.2122,-3.2149,-3.2722,0.0,0.0,-3.1297,-3.0999,-3.0921,-3.1043,-3.1182,-3.1245,-3.1186,-3.114,-3.1382,-3.1998,-3.2423,-3.2761,-3.2958,-3.2607,-3.2535,-3.2808,-3.1566,-3.125,0.0,0.0,0.0,0.0,0.0,0.0,0.0,0.0,0.0,0.0,0.0,-3.1921,0.0,0.0,0.0,0.0,-3.3331,-3.404,-3.4617,-3.561,0.0,0.0,0.0,0.0,0.0,0.0,0.0,-3.9412,-3.9677,-4.0047,-4.0751,-3.9977,-3.9616,-4.0394,-4.0176,-4.0162,-4.0781,0.0,-4.0544,-4.1016,-4.0831,-4.017,-3.8685,-3.8482,-3.7963,-3.6483,-3.6744,-3.7203,-3.728,-3.7224,-3.7245,-3.7252,-3.7004,-3.6507,-3.5778,-3.6274,-3.6733,-3.6684,-3.6841,-3.6833,-3.6429,-3.62,-3.5737,-4.4561,-4.3955,-4.4203,-4.4048,-4.3662,-4.3423,-4.3142,-4.2752,-4.1683,-4.153,-4.1906,-4.0714,-4.0445,-4.0832,-3.9641,0.0,-3.7834,-3.6528,-3.5514,-3.4701,-3.4007,-3.3591,-3.3435,-3.3113,-3.2788,-3.2473,-3.2423,-3.2314,-3.2099,-3.2099,-3.2046,-3.186,-3.0245,-2.9458,-2.9531,-2.921,-2.909,-2.9236,-2.9897,-3.0225,-3.0267,-3.0563,-3.0723,-3.0764,-3.0692,-3.0692,-3.0744,-3.0898,-3.1081,-3.1321,-3.1331,-3.1334,-3.1403,0.0,0.0,0.0,0.0,0.0,0.0,0.0,0.0,0.0,0.0,0.0,0.0,0.0,0.0,0.0,-3.216,0.0,-3.4607,-3.4787,0.0,0.0,0.0,-3.653,-3.8212,-3.8302,-3.8826,-4.0425,0.0,0.0,-4.1114,-4.0185,-3.9924,-4.0946,-4.0203,-3.9711,-4.004,-3.9547,-3.9176,-3.9076,-3.849,-3.7857,-3.727,-3.6733,-3.6236,-3.5864,-3.5866,-3.6031,-3.6174,-3.6242,-3.6255,-3.6151,-3.6172,-3.5921,-3.5302,-3.5159,-3.52,-3.4872,-3.5082,-3.5343,-3.5299,-3.4848,-3.4345,-4.3609,-4.3392,-4.3461,-4.3443,-4.3355,-4.2847,-4.2498,-4.2234,-4.1615,-4.1323,-4.1237,-4.0857,-4.0532,-4.0104,-3.895,-3.8278,-3.7899,-3.6288,-3.5321,-3.4887,-3.396,-3.3346,-3.3027,-3.2282,-3.182,-3.152,-3.1014,-3.0949,-3.1262,-3.1387,-3.1317,-3.1051,-3.0232,-2.9866,-2.9861,-2.9006,-2.8573,-2.8621,-2.9113,-2.9572,-2.9903,-3.0011,-3.0135,-3.0359,-3.0869,-3.0864,-3.0305,-3.0905,-3.107,-3.0653,-3.0022,-2.9992,-3.0697,-2.9987,0.0,0.0,0.0,0.0,0.0,0.0,0.0,0.0,0.0,-3.0707,-3.0113,0.0,-3.0849,0.0,-3.1957,-3.3096,-3.3878,-3.4151,0.0,0.0,-3.4444,-3.514,-3.662,-3.6741,-3.7258,-3.8665,-3.9349,-3.9444,-3.875,-3.8396,-3.8187,-3.8302,-3.8525,-3.8553,-3.8106,-3.7801,-3.7632,-3.76,-3.7075,-3.6344,-3.5733,-3.5317,-3.5217,-3.5458,-3.5515,-3.5583,-3.5711,-3.5756,-3.5591,-3.5069,-3.5019,-3.4588,-3.3467,-3.3336,-3.3218,-3.2837,-3.3792,-3.473,-3.4251,-3.4035,-3.3783,-4.2883,-4.2825,-4.2652,-4.2537,-4.2501,-4.242,-4.2234,-4.1895,-4.1386,-4.0971,-4.0628,-4.036,-3.9834,-3.9064,-3.8022,-3.7303,-3.6847,-3.5324,-3.453,-3.4306,-3.3625,-3.295,-3.2226,-3.1743,-3.1217,-3.0628,-3.0224,-3.0175,-3.0443,-3.0431,-3.0322,-3.0171,-2.9537,-2.9207,-2.9177,-2.8495,-2.8103,-2.8039,-2.8455,-2.8803,-2.9111,-2.915,-2.9219,-2.9438,-2.9767,-2.9783,-2.94,-2.9858,-2.9965,-2.9641,-2.9226,-2.9248,-2.9745,-2.9269,-2.9541,0.0,0.0,0.0,0.0,0.0,0.0,0.0,0.0,0.0,0.0,0.0,-3.0664,-3.1544,-3.2295,-3.3013,-3.3725,-3.3514,-3.3351,-3.3361,-3.3429,-3.4048,-3.5609,-3.5769,-3.6329,-3.7796,-3.8206,-3.8184,-3.7759,-3.7221,-3.6684,-3.6254,-3.6456,-3.6855,-3.7226,-3.6814,-3.6494,-3.6894,-3.6167,-3.5289,-3.4607,-3.4511,-3.4618,-3.4937,-3.5148,-3.5304,-3.535,-3.5487,-3.5447,-3.4997,-3.4747,-3.4257,-3.3158,-3.2695,-3.2371,-3.1918,-3.2439,-3.3083,-3.2985,-3.2985,-3.2879,-4.2295,-4.2257,-4.1913,-4.1675,-4.1494,-4.199,-4.1966,-4.1534,-4.1018,-4.0473,-3.9935,-3.9399,-3.8745,-3.7919,-3.6882,-3.6081,-3.5386,-3.4195,-3.3555,-3.3424,-3.3134,-3.2453,-3.1424,-3.1236,-3.0678,-2.9815,-2.958,-2.9501,-2.9537,-2.9349,-2.924,-2.9156,-2.8473,-2.8069,-2.7965,-2.772,-2.7575,-2.76,-2.7894,-2.8085,-2.8231,-2.8231,-2.828,-2.8367,-2.8255,-2.8255,-2.8328,-2.8367,-2.8415,-2.8519,-2.8614,-2.8701,-2.8716,-2.874,-2.9005,0.0,-2.9432,0.0,0.0,0.0,0.0,0.0,0.0,0.0,0.0,-2.9803,-3.068,-3.2636,-3.2586,-3.2767,-3.3482,-3.2835,-3.2465,-3.2745,-3.2625,-3.3165,-3.4773,-3.4961,-3.549,-3.6891,-3.6934,-3.6908,-3.6625,-3.5909,-3.5115,-3.4409,-3.4168,-3.4744,-3.6272,-3.5817,-3.5454,-3.6358,-3.5377,-3.4266,-3.3886,-3.3965,-3.4176,-3.4349,-3.4635,-3.4923,-3.4947,-3.5188,-3.5328,-3.5075,-3.4533,-3.3915,-3.3284,-3.2508,-3.1857,-3.1269,-3.13,-3.1534,-3.191,-3.2019,-3.1914,-4.1762,-4.174,-4.167,-4.1525,-4.1343,-4.1162,-4.1013,-4.0871,-4.0444,-3.9682,-3.8689,-3.8117,-3.7458,-3.6734,-3.5561,-3.4921,-3.4744,-3.3689,-3.3203,-3.315,-3.2715,-3.211,-3.1366,-3.0388,-2.9519,-2.8689,-2.8114,-2.7932,-2.8098,-2.8438,-2.8411,-2.8017,-2.7888,-2.7391,-2.6697,0.0,0.0,0.0,-2.7675,-2.772,-2.7805,-2.783,-2.778,-2.769,-2.7665,0.0,-2.755,-2.764,-2.765,-2.756,-2.7585,0.0,0.0,0.0,0.0,0.0,0.0,0.0,0.0,0.0,0.0,0.0,-2.7506,-2.7774,-2.8976,-2.9731,-3.0588,-3.166,-3.1722,-3.1741,-3.179,-3.1942,-3.1936,-3.1823,-3.1921,-3.241,-3.3332,-3.351,-3.3633,-3.3704,-3.4253,-3.4102,-3.2881,-3.2735,-3.2691,-3.2064,-3.1869,-3.23,-3.3364,-3.3756,-3.3934,-3.4066,-3.3524,-3.3056,-3.3022,-3.3193,-3.3403,-3.3658,-3.3822,-3.405,-3.4275,-3.4448,-3.4331,-3.3943,-3.3248,-3.2634,-3.1957,-3.1264,-3.0925,-3.0807,-3.0875,-3.1078,-3.1523,-3.1637,-3.1675,-4.138,0.0,-4.1094,-4.0849,0.0,-4.0161,-3.9919,-3.9747,-3.9747,-3.907,-3.7903,-3.7427,-3.6642,-3.5625,-3.4862,-3.4297,-3.3921,-3.3296,-3.2908,-3.2742,-3.2425,-3.1809,-3.0934,-2.9876,-2.8922,-2.8151,-2.7398,-2.7068,-2.712,-2.7348,-2.7283,-2.6919,-2.6919,-2.6626,-2.6123,-2.6015,-2.6299,-2.6841,-2.6933,-2.6956,-2.7008,-2.6993,-2.6982,-2.6901,0.0,0.0,0.0,0.0,0.0,0.0,0.0,0.0,0.0,0.0,0.0,-2.7048,-2.684,-2.6929,-2.7387,-2.687,-2.6757,-2.7334,-2.7404,-2.7766,-2.8687,-2.9733,-3.0676,-3.1427,-3.1161,-3.1072,-3.1456,-3.122,-3.1087,-3.1248,-3.1292,-3.1574,-3.2332,-3.23,-3.2284,-3.2511,-3.2556,-3.2198,-3.144,-3.1501,-3.1545,-3.1161,-3.1161,-3.1323,-3.1767,-3.2338,-3.2798,-3.2808,-3.2253,-3.2013,-3.2466,-3.2442,-3.2645,-3.313,-3.3477,-3.3633,-3.3694,-3.3857,-3.3871,-3.3508,-3.2983,-3.2389,-3.172,-3.1176,-3.068,-3.0427,-3.0702,-3.1103,-3.132,-3.1294,-3.1254,-4.0884,-4.0799,-4.0392,-3.9978,-3.9584,-3.9242,-3.8909,-3.8639,0.0,0.0,0.0,-3.6754,-3.5819,-3.45,-3.4173,-3.3696,-3.3107,-3.2827,-3.2539,-3.2259,-3.2064,-3.1434,-3.0423,-2.9407,-2.8539,-2.7761,-2.6987,-2.651,-2.6336,-2.6277,-2.6158,-2.5988,-2.5876,-2.5754,-2.5688,-2.5702,-2.5757,-2.5866,-2.6125,-2.6192,-2.6138,-2.6138,-2.6123,-2.6014,-2.5961,-2.5934,-2.6014,-2.5797,-2.5742,-2.5906,-2.5742,-2.566,-2.566,-2.5824,-2.5824,-2.5632,-2.5715,-2.5757,-2.5786,-2.5771,-2.605,-2.6736,-2.7395,-2.8007,-2.8512,-2.9606,-3.0587,-3.1219,-3.0795,-3.0769,-3.142,-3.0783,-3.0454,-3.0895,-3.0687,-3.0846,-3.1495,-3.1278,-3.1234,-3.1722,-3.1352,-3.0984,-3.1029,-3.0955,-3.0895,-3.0836,-3.0806,-3.0881,-3.0969,-3.1453,-3.1915,-3.194,-3.1412,-3.1207,-3.19,-3.182,-3.1897,-3.259,-3.2958,-3.3145,-3.316,-3.3277,-3.3319,-3.3081,-3.2813,-3.2251,-3.1638,-3.102,-3.0587,-2.9923,-3.0344,-3.0874,-3.0875,-3.0711,-3.0638,-3.9825,-3.9791,-3.962,-3.9322,-3.8925,-3.8684,-3.8311,-3.786,-3.8157,-3.7391,-3.5856,-3.5505,-3.4608,-3.3334,-3.2882,-3.2612,-3.2508,-3.2079,-3.1853,0.0,-3.1379,-3.082,-3.0114,-2.89,-2.7967,-2.7267,-2.6557,-2.6056,-2.581,-2.5413,-2.532,-2.5481,-2.4888,-2.471,-2.4936,-2.4948,-2.4948,-2.4977,-2.5647,-2.5825,-2.555,-2.5522,-2.537,-2.5033,-2.5118,-2.5118,-2.5033,-2.5076,-2.5132,-2.5174,-2.5146,-2.5104,-2.5104,-2.5132,-2.509,-2.4963,-2.5061,-2.5307,-2.5668,-2.5361,-2.5405,-2.6019,-2.684,-2.7618,-2.8351,-2.9061,-2.9733,-3.0317,-3.0825,-3.1077,-3.0747,-3.0736,-3.0594,-3.0289,-3.0203,-3.0246,-3.0377,-3.0413,-3.04,-3.0438,-3.0429,-3.0371,-3.028,-3.0264,-3.0142,-2.9913,-2.996,-3.0009,-3.0222,-3.0777,-3.119,-3.116,-3.0772,-3.0753,-3.1256,-3.1071,-3.1091,-3.1618,-3.1894,-3.212,-3.2358,-3.237,-3.2264,-3.1975,-3.1751,-3.1316,-3.0696,-3.0027,-2.9748,-2.957,-2.9604,-2.9483,-2.966,-2.9592,-2.982,-3.9489,-3.9437,-3.9076,-3.8767,-3.8507,-3.7998,-3.7401,-3.678,-3.6704,-3.618,-3.5307,-3.4632,-3.3746,-3.2734,-3.233,-3.2135,-3.2007,-3.1638,-3.1423,-3.1262,-3.05,-2.9944,-2.9493,-2.8054,-2.7145,-2.6807,-2.6008,-2.5495,-2.5286,-2.4929,-2.472,-2.4723,-2.4171,-2.4099,-2.4408,-2.4434,-2.445,-2.4536,-2.5104,-2.53,-2.509,-2.5062,-2.4893,-2.4536,-2.4507,-2.4478,-2.4434,-2.4232,-2.4144,-2.4218,-2.4073,-2.3956,-2.3972,-2.416,-2.4173,-2.407,-2.4274,-2.4451,-2.4541,-2.4938,-2.5371,-2.5811,-2.6315,-2.6837,-2.7432,-2.8268,-2.9063,-2.9717,-2.9969,-3.0104,-3.0327,-3.0139,-2.9848,-2.9582,-2.954,-2.9509,-2.9432,-2.9557,-2.962,-2.9571,-2.9602,-2.962,-2.9571,-2.9463,-2.9369,-2.9198,-2.9139,-2.9129,-2.9192,-2.9487,-2.9948,-3.045,-3.0119,-3.009,-3.0705,-3.0426,-3.0438,-3.1101,-3.1292,-3.1437,-3.1638,-3.161,-3.1501,-3.1427,-3.1137,-3.0761,-3.0367,-2.9765,-2.9383,-2.9229,-2.9243,-2.919,-2.9238,-2.9302,-2.9596,-3.9092,-3.9028,-3.849,-3.8153,-3.7969,-3.7358,-3.6608,-3.5762,-3.5246,-3.48,-3.4297,-3.373,-3.2975,-3.2107,-3.1673,-3.1432,-3.132,-3.091,-3.0631,-3.0381,-2.9533,-2.8996,-2.8635,-2.7154,-2.6423,-2.6339,-2.5546,-2.5033,-2.4808,-2.4431,-2.4066,-2.379,-2.3614,-2.3679,-2.3884,-2.3855,-2.3884,-2.3901,-2.4263,-2.4507,-2.4591,-2.4591,-2.4421,-2.4089,-2.4015,-2.3956,-2.3855,-2.3556,-2.339,-2.342,-2.3155,-2.3005,-2.2975,-2.3155,-2.3228,-2.3223,-2.3517,-2.3734,-2.3766,-2.4671,-2.5375,-2.5648,-2.5945,-2.6227,-2.6473,-2.7298,-2.8232,-2.9006,-2.9098,-2.9321,-2.9723,-2.9448,-2.9027,-2.8903,-2.8876,-2.8798,-2.8675,-2.8766,-2.883,-2.8844,-2.8798,-2.8753,-2.8798,-2.8688,-2.8532,-2.8403,-2.8357,-2.8279,-2.8168,-2.8233,-2.8826,-2.931,-2.9238,-2.9231,-2.9943,-2.9734,-2.9752,-3.0481,-3.0613,-3.0762,-3.0896,-3.0793,-3.0617,-3.066,-3.0332,-2.9933,-2.9814,-2.9244,-2.8741,-2.8528,-2.8499,-2.8531,-2.8399,-2.8632,-2.8984,-3.8205,-3.8004,-3.7682,-3.7344,-3.7105,-3.6831,-3.6076,-3.5003,-3.4106,-3.3064,-3.2257,-3.2646,-3.2197,-3.1116,-3.0309,-3.0133,-3.0301,-2.9408,-2.8957,-2.8868,-2.851,-2.8008,-2.7423,-2.6437,-2.5974,-2.5864,-2.519,-2.4664,-2.4352,-2.3662,-2.3186,-2.2914,-2.3212,-2.3305,-2.322,-2.3173,-2.2992,-2.2586,-2.2725,-2.319,-2.3907,-2.3979,-2.3819,-2.348,-2.3599,-2.3497,-2.3185,-2.333,-2.3271,-2.3,-2.275,-2.2634,-2.2616,-2.239,-2.2322,-2.253,-2.2921,-2.3435,-2.4022,-2.469,-2.5102,-2.5347,-2.5837,-2.6015,-2.5778,-2.624,-2.7054,-2.801,-2.896,-2.9196,-2.8904,-2.8892,-2.8645,-2.8125,-2.8072,-2.8105,-2.8039,-2.7973,-2.7973,-2.8105,-2.7848,-2.7762,-2.8006,-2.7927,-2.7729,-2.743,-2.7484,-2.7451,-2.7284,-2.7584,-2.7868,-2.803,-2.8089,-2.8339,-2.8683,-2.8719,-2.8935,-2.9289,-2.954,-2.9794,-2.9895,-2.9598,-2.9181,-2.9405,-2.89,-2.8455,-2.8369,-2.7908,-2.753,-2.7449,-2.7171,-2.6767,-2.6662,-2.6969,-2.7452,-3.7847,-3.7714,-3.721,-3.6631,-3.604,-3.5581,-3.4739,-3.3597,-3.2757,-3.1787,-3.0883,-3.0975,-3.0816,-3.0389,-2.9964,-2.9519,-2.9057,-2.8833,-2.827,-2.7498,-2.7121,-2.6702,-2.618,-2.5381,-2.5012,-2.5083,-2.4482,-2.4131,-2.3888,-2.3153,-2.2531,-2.2152,-2.2176,-2.2261,-2.2372,-2.2279,-2.2144,-2.2094,-2.2156,-2.231,-2.2506,-2.2671,-2.2598,-2.2372,-2.2372,-2.2372,-2.2218,-2.2218,-2.2149,-2.2025,-2.1858,-2.1906,-2.2182,-2.2226,-2.24,-2.2619,-2.304,-2.3484,-2.3955,-2.4308,-2.4687,-2.4999,-2.5216,-2.5298,-2.5152,-2.5402,-2.5854,-2.6437,-2.7303,-2.779,-2.7699,-2.7775,-2.7637,-2.7167,-2.7162,-2.7142,-2.6973,-2.696,-2.7007,-2.7027,-2.6947,-2.6879,-2.6994,-2.6926,-2.6735,-2.6496,-2.653,-2.6496,-2.6405,-2.6598,-2.6701,-2.6744,-2.6909,-2.7433,-2.7979,-2.8228,-2.8297,-2.8446,-2.867,-2.8876,-2.8637,-2.8491,-2.8216,-2.8183,-2.7448,-2.7151,-2.753,-2.6692,-2.6092,-2.6105,-2.585,-2.5442,-2.578,-2.6027,-2.6402,-3.7314,-3.7194,-3.6569,-3.5864,-3.521,-3.4601,-3.363,-3.2477,-3.171,-3.0747,-2.9651,-2.9404,-2.9296,-2.924,-2.9209,-2.8702,-2.795,-2.8035,-2.7462,-2.6365,-2.6085,-2.5795,-2.531,-2.457,-2.4236,-2.4236,-2.3811,-2.3467,-2.3275,-2.2592,-2.1999,-2.1643,-2.1463,-2.1471,-2.1608,-2.1502,-2.1482,-2.1494,-2.1482,-2.1376,-2.1187,-2.1207,-2.1345,-2.1502,-2.1502,-2.1439,-2.1408,-2.1325,-2.123,-2.1167,-2.1063,-2.117,-2.1534,-2.1835,-2.2191,-2.2685,-2.3051,-2.3386,-2.3804,-2.3956,-2.4154,-2.4515,-2.461,-2.4587,-2.4554,-2.4672,-2.4803,-2.4908,-2.5508,-2.606,-2.6564,-2.6633,-2.6449,-2.6173,-2.6289,-2.6267,-2.6013,-2.5914,-2.5896,-2.6032,-2.5874,-2.5852,-2.5973,-2.5877,-2.5699,-2.5709,-2.5676,-2.5618,-2.563,-2.5653,-2.5676,-2.5676,-2.5896,-2.6436,-2.7263,-2.7604,-2.7663,-2.7564,-2.7657,-2.76,-2.7337,-2.7252,-2.7219,-2.6993,-2.6117,-2.5844,-2.6331,-2.5717,-2.5021,-2.4982,-2.4778,-2.4586,-2.5093,-2.5245,-2.5315,-3.6384,-3.6164,-3.5482,-3.5062,-3.4835,-3.4189,-3.3232,-3.1876,-3.113,-2.9885,-2.8554,-2.8262,-2.7875,-2.7419,-2.7677,-2.749,-2.6974,-2.6622,-2.6175,-2.558,-2.5709,-2.5509,-2.4899,-2.4255,-2.3885,-2.3754,-2.3274,-2.2733,-2.2211,-2.1874,-2.1612,-2.142,-2.1368,-2.123,-2.1019,-2.1094,-2.0946,-2.0561,-2.0529,-2.0335,-2.0064,-1.9868,-2.0302,-2.1167,-2.1198,-2.1008,-2.0924,-2.0892,-2.0839,-2.0635,-2.0496,-2.053,-2.0726,-2.0864,-2.1446,-2.238,-2.2713,-2.3068,-2.3484,-2.3562,-2.3658,-2.3886,-2.3995,-2.4053,-2.3766,-2.3971,-2.4041,-2.3804,-2.3995,-2.4527,-2.5382,-2.5606,-2.5558,-2.5382,-2.5535,-2.5523,-2.5335,-2.4799,-2.4739,-2.5049,-2.4706,-2.4566,-2.498,-2.4844,-2.4834,-2.4933,-2.5004,-2.4945,-2.4862,-2.4921,-2.4969,-2.5063,-2.5193,-2.5499,-2.5955,-2.6404,-2.6667,-2.6642,-2.6496,-2.6349,-2.6199,-2.608,-2.603,-2.5824,-2.5084,-2.4832,-2.5218,-2.5071,-2.4545,-2.4309,-2.406,-2.4062,-2.426,-2.4339,-2.4328,-3.5514,-3.5127,-3.4469,-3.3944,-3.3374,-3.2302,-3.1379,-3.0653,-2.9651,-2.8879,-2.8281,-2.7776,-2.7168,-2.6554,-2.6401,-2.6278,-2.6069,-2.5917,-2.5396,-2.4656,-2.495,-2.4846,-2.4284,-2.3997,-2.3759,-2.3484,-2.3098,-2.2423,-2.1592,-2.1423,-2.1233,-2.0978,-2.0807,-2.0646,-2.0431,-2.0377,-2.0194,-1.9944,-1.9878,-1.9846,-1.9704,-1.9506,-1.9638,-2.002,-2.0118,-2.0118,-2.0085,-2.0053,-2.002,-1.9966,-1.9933,-2.0051,-2.043,-2.1029,-2.1603,-2.2103,-2.2418,-2.2557,-2.2633,-2.2644,-2.2681,-2.2745,-2.282,-2.2888,-2.2878,-2.2966,-2.3036,-2.3047,-2.2981,-2.325,-2.3692,-2.4322,-2.4694,-2.4611,-2.4647,-2.4683,-2.4481,-2.4037,-2.3792,-2.4196,-2.3994,-2.3885,-2.391,-2.3885,-2.3874,-2.4059,-2.3877,-2.3781,-2.3806,-2.383,-2.3883,-2.414,-2.4143,-2.4153,-2.4576,-2.508,-2.5416,-2.549,-2.5432,-2.5112,-2.4915,-2.4823,-2.4774,-2.4484,-2.385,-2.3611,-2.3859,-2.3407,-2.3096,-2.3324,-2.3119,-2.2971,-2.334,-2.3289,-2.3161,-3.443,-3.3628,-3.3193,-3.2553,-3.1726,-3.0703,-2.995,-2.9413,-2.8471,-2.7811,-2.738,-2.6764,-2.6228,-2.5681,-2.5115,-2.4979,-2.5148,-2.5057,-2.462,-2.3962,-2.4189,-2.4085,-2.3727,-2.3535,-2.3292,-2.2955,-2.2464,-2.1789,-2.1108,-2.1053,-2.0818,-2.0432,-2.0302,-2.0129,-1.9889,-1.9693,-1.9561,-1.944,-1.9308,-1.9231,-1.9175,-1.8975,-1.8875,-1.8918,-1.9019,-1.9142,-1.9241,-1.9208,-1.9164,-1.9208,-1.9231,-1.9473,-2.0054,-2.0899,-2.1432,-2.1649,-2.1998,-2.2101,-2.1863,-2.1804,-2.1756,-2.168,-2.1832,-2.1993,-2.208,-2.2052,-2.2128,-2.2203,-2.2052,-2.2014,-2.2268,-2.2841,-2.3324,-2.3556,-2.3677,-2.3677,-2.3596,-2.2927,-2.2601,-2.2622,-2.267,-2.272,-2.2764,-2.2501,-2.2479,-2.2742,-2.2546,-2.2473,-2.2539,-2.2532,-2.2557,-2.2894,-2.2872,-2.2894,-2.3033,-2.329,-2.3735,-2.3874,-2.4184,-2.3886,-2.3688,-2.3602,-2.3429,-2.3102,-2.2794,-2.2518,-2.2176,-2.1726,-2.1785,-2.2137,-2.1871,-2.1625,-2.1942,-2.2201,-2.2126,-3.3117,-3.1826,-3.1605,-3.0972,-3.0063,-2.9612,-2.9033,-2.8403,-2.7739,-2.6915,-2.6095,-2.5405,-2.5182,-2.4695,-2.3931,-2.3718,-2.4202,-2.4028,-2.3809,-2.3649,-2.351,-2.3388,-2.3214,-2.2827,-2.247,-2.2166,-2.1314,-2.0841,-2.0669,-2.0593,-2.0367,-1.9976,-1.99,-1.9671,-1.9308,-1.9164,-1.9108,-1.9008,-1.8721,-1.8486,-1.8303,-1.8178,-1.8076,-1.8076,-1.8076,-1.8178,-1.8448,-1.8401,-1.8411,-1.8371,-1.8482,-1.8842,-1.942,-2.0213,-2.072,-2.0888,-2.1388,-2.1499,-2.1203,-2.1088,-2.0924,-2.0837,-2.1145,-2.1308,-2.1308,-2.1203,-2.1165,-2.128,-2.1088,-2.0982,-2.1126,-2.128,-2.1662,-2.2279,-2.2628,-2.2665,-2.2301,-2.1609,-2.0839,-2.0693,-2.0935,-2.1044,-2.0994,-2.0814,-2.0769,-2.1083,-2.1112,-2.1087,-2.1108,-2.1098,-2.1093,-2.1211,-2.1417,-2.1603,-2.1493,-2.1421,-2.1854,-2.2242,-2.2649,-2.2718,-2.2586,-2.2479,-2.2356,-2.2095,-2.2032,-2.1761,-2.1369,-2.0956,-2.074,-2.0877,-2.0529,-2.06,-2.1,-2.1329,-2.1239,-3.227,-3.1487,-3.0556,-2.9747,-2.9037,-2.8525,-2.8006,-2.7564,-2.7121,-2.6637,-2.6092,-2.5362,-2.4802,-2.4345,-2.3797,-2.365,-2.3839,-2.3291,-2.3046,-2.3194,-2.3419,-2.3132,-2.2605,-2.2433,-2.2093,-2.1407,-2.0621,-2.0129,-1.9966,-1.9824,-1.9594,-1.9407,-1.9341,-1.9131,-1.8787,-1.8721,-1.8586,-1.8337,-1.8236,-1.8134,-1.8076,-1.7896,-1.7784,-1.7784,-1.7579,-1.7451,-1.7426,-1.7969,-1.8222,-1.8061,-1.8281,-1.8414,-1.8577,-1.9146,-1.9555,-1.9652,-2.0013,-2.0157,-1.9923,-1.9795,-1.9756,-1.9766,-1.9805,-1.9932,-2.0128,-2.004,-1.9962,-2.0001,-1.9883,-1.9893,-2.005,-2.0098,-2.0518,-2.1471,-2.1749,-2.169,-2.1346,-2.0915,-2.0436,-1.9966,-2.0111,-2.0185,-1.997,-1.9661,-1.9631,-1.9788,-1.9751,-1.9679,-1.9705,-1.9621,-1.9748,-2.0017,-2.0191,-2.0252,-2.016,-2.0088,-2.0278,-2.0638,-2.1029,-2.1537,-2.1475,-2.152,-2.1352,-2.1162,-2.1106,-2.0858,-2.0497,-2.0236,-1.9989,-2.0161,-2.0313,-2.0407,-2.0522,-2.0461,-2.0312,-3.1184,-3.014,-2.9293,-2.8413,-2.7679,-2.7372,-2.7027,-2.6582,-2.6223,-2.5875,-2.5379,-2.4481,-2.4061,-2.3909,-2.3445,-2.3375,-2.3525,-2.3006,-2.2674,-2.248,-2.2594,-2.2275,-2.1621,-2.1543,-2.123,-2.0587,-2.0041,-1.9648,-1.9407,-1.9198,-1.9031,-1.8841,-1.8802,-1.8612,-1.8255,-1.8159,-1.7992,-1.772,-1.7623,-1.752,-1.7382,-1.7235,-1.7157,-1.7088,-1.6821,-1.6647,-1.6534,-1.7071,-1.7383,-1.7401,-1.7507,-1.7589,-1.7691,-1.819,-1.8458,-1.8545,-1.8797,-1.8966,-1.8692,-1.8671,-1.8699,-1.8789,-1.8882,-1.9011,-1.921,-1.9121,-1.9073,-1.9073,-1.9112,-1.9121,-1.924,-1.924,-1.9587,-2.0167,-2.0644,-2.0668,-2.0369,-2.0276,-1.9885,-1.9355,-1.9238,-1.9089,-1.8733,-1.8478,-1.8452,-1.8442,-1.8345,-1.8237,-1.8252,-1.8203,-1.8405,-1.8608,-1.8805,-1.8854,-1.8857,-1.8802,-1.878,-1.9078,-1.9426,-2.0027,-2.0349,-2.0614,-2.064,-2.0241,-2.0067,-1.9666,-1.9317,-1.9319,-1.9243,-1.9619,-1.9748,-1.9544,-1.935,-1.9324,-1.9157,-2.9909,-2.7983,-2.7824,-2.7101,-2.6064,-2.6186,-2.6,-2.5556,-2.5129,-2.4685,-2.4025,-2.3259,-2.3063,-2.3363,-2.2841,-2.2759,-2.3174,-2.3016,-2.2428,-2.1728,-2.1365,-2.0949,-2.0446,-2.0194,-1.9898,-1.9559,-1.9514,-1.9316,-1.8908,-1.8778,-1.8559,-1.8231,-1.8197,-1.8031,-1.7684,-1.7504,-1.7343,-1.7144,-1.6968,-1.67,-1.6377,-1.6272,-1.6237,-1.6123,-1.5912,-1.5771,-1.5752,-1.5791,-1.5958,-1.6219,-1.6386,-1.6625,-1.6956,-1.7351,-1.7506,-1.7471,-1.7868,-1.7881,-1.7678,-1.7926,-1.807,-1.8118,-1.8362,-1.866,-1.8612,-1.8571,-1.8531,-1.8531,-1.8482,-1.8531,-1.8531,-1.8531,-1.8612,-1.8723,-1.9404,-1.9608,-1.9439,-1.9638,-1.9241,-1.8487,-1.8219,-1.8054,-1.737,-1.7092,-1.6994,-1.686,-1.6888,-1.6915,-1.6871,-1.6862,-1.6841,-1.7064,-1.7391,-1.7429,-1.7396,-1.7551,-1.7505,-1.7427,-1.7789,-1.8344,-1.9038,-1.9418,-1.971,-1.9333,-1.9093,-1.8636,-1.8422,-1.8512,-1.8416,-1.8375,-1.8344,-1.8207,-1.8262,-1.8349,-1.8311,-2.921,-2.765,-2.6895,-2.6159,-2.5453,-2.5252,-2.5016,-2.4754,-2.4376,-2.4164,-2.3925,-2.3257,-2.2922,-2.3077,-2.2626,-2.2427,-2.2444,-2.2413,-2.2077,-2.1406,-2.0871,-2.0184,-1.9496,-1.9075,-1.8841,-1.8704,-1.8841,-1.8601,-1.8095,-1.8212,-1.8004,-1.752,-1.7543,-1.7316,-1.6952,-1.6888,-1.6676,-1.643,-1.6342,-1.6202,-1.5947,-1.578,-1.5709,-1.5638,-1.5284,-1.5062,-1.4927,-1.4684,-1.5033,-1.5856,-1.5952,-1.5973,-1.6146,-1.6371,-1.6506,-1.6567,-1.6936,-1.7183,-1.7131,-1.7357,-1.759,-1.7755,-1.7708,-1.7797,-1.7951,-1.7789,-1.7757,-1.7676,-1.7473,-1.7302,-1.7416,-1.7448,-1.7529,-1.7779,-1.8312,-1.8834,-1.9072,-1.8962,-1.8561,-1.8154,-1.782,-1.7223,-1.6588,-1.6239,-1.6089,-1.583,-1.5771,-1.5833,-1.5771,-1.5736,-1.5736,-1.5803,-1.5975,-1.5984,-1.6016,-1.6197,-1.6163,-1.5888,-1.6113,-1.651,-1.7252,-1.7896,-1.8206,-1.8289,-1.834,-1.8012,-1.7949,-1.7982,-1.7699,-1.734,-1.7555,-1.7695,-1.7663,-1.772,-1.7707,-2.8045,-2.6337,-2.5749,-2.5146,-2.4587,-2.4335,-2.4177,-2.4043,-2.3692,-2.3545,-2.3409,-2.2815,-2.2553,-2.258,-2.2203,-2.2073,-2.2101,-2.2025,-2.168,-2.1066,-2.0282,-1.9532,-1.8968,-1.8745,-1.8557,-1.811,-1.8447,-1.8174,-1.7647,-1.7656,-1.7424,-1.7116,-1.7132,-1.6901,-1.6438,-1.6536,-1.634,-1.5954,-1.585,-1.5709,-1.5311,-1.5177,-1.4963,-1.4776,-1.4461,-1.4217,-1.4036,-1.4012,-1.439,-1.494,-1.5069,-1.5119,-1.5319,-1.5597,-1.5704,-1.5702,-1.6162,-1.6423,-1.6285,-1.6525,-1.6726,-1.6715,-1.6665,-1.6747,-1.6788,-1.6673,-1.6558,-1.6624,-1.6353,-1.6263,-1.6304,-1.6337,-1.6419,-1.656,-1.6887,-1.7496,-1.8238,-1.7906,-1.7629,-1.7352,-1.6977,-1.6499,-1.5721,-1.5506,-1.5238,-1.5017,-1.492,-1.488,-1.4804,-1.474,-1.4713,-1.4784,-1.4852,-1.4925,-1.4933,-1.5065,-1.5158,-1.4876,-1.4756,-1.5067,-1.5793,-1.6554,-1.6839,-1.717,-1.7355,-1.7392,-1.7157,-1.6986,-1.6794,-1.6676,-1.6999,-1.703,-1.689,-1.6754,-1.6816,-2.659,-2.4564,-2.4576,-2.4179,-2.3629,-2.3519,-2.3482,-2.3409,-2.299,-2.2729,-2.2553,-2.1997,-2.1883,-2.1987,-2.1655,-2.1617,-2.1835,-2.1492,-2.1088,-2.04,-1.9582,-1.8864,-1.856,-1.867,-1.8397,-1.7868,-1.8272,-1.795,-1.7448,-1.7225,-1.7036,-1.6813,-1.6956,-1.6687,-1.6206,-1.6249,-1.5987,-1.5392,-1.5213,-1.4963,-1.4605,-1.4461,-1.4281,-1.3949,-1.3666,-1.3419,-1.3287,-1.3393,-1.3725,-1.3819,-1.4002,-1.4392,-1.4682,-1.5012,-1.5138,-1.5188,-1.5521,-1.5631,-1.5348,-1.5589,-1.5637,-1.5542,-1.5587,-1.5572,-1.5621,-1.5553,-1.5519,-1.567,-1.5387,-1.5304,-1.5262,-1.5228,-1.5186,-1.5213,-1.5247,-1.567,-1.6337,-1.6576,-1.6482,-1.6277,-1.5919,-1.551,-1.5064,-1.4698,-1.4373,-1.4035,-1.3996,-1.3971,-1.3905,-1.3833,-1.3796,-1.3819,-1.3899,-1.3985,-1.3992,-1.3971,-1.403,-1.3977,-1.3741,-1.3956,-1.4764,-1.5355,-1.5624,-1.5895,-1.6166,-1.6061,-1.5703,-1.5606,-1.5682,-1.5805,-1.5981,-1.5912,-1.5798,-1.5615,-1.5578,-2.5514,-2.3838,-2.3666,-2.3508,-2.3298,-2.2889,-2.2665,-2.259,-2.2063,-2.1911,-2.1883,-2.1502,-2.1359,-2.1359,-2.1089,-2.0935,-2.0644,-2.0323,-1.9756,-1.9204,-1.9,-1.8449,-1.8069,-1.804,-1.7852,-1.7631,-1.7783,-1.7596,-1.7219,-1.7035,-1.6992,-1.6779,-1.6388,-1.6102,-1.5846,-1.5445,-1.4989,-1.4461,-1.4274,-1.4093,-1.3855,-1.3746,-1.3666,-1.3448,-1.3193,-1.2856,-1.2532,-1.2432,-1.2358,-1.2567,-1.3478,-1.4315,-1.4468,-1.4658,-1.4795,-1.4893,-1.5008,-1.5085,-1.4973,-1.4926,-1.4892,-1.4789,-1.4768,-1.4943,-1.4936,-1.481,-1.4817,-1.4852,-1.4601,-1.4349,-1.4307,-1.3851,-1.3844,-1.3922,-1.3837,-1.3808,-1.4265,-1.5054,-1.546,-1.5374,-1.5083,-1.4671,-1.3987,-1.386,-1.354,-1.3161,-1.3066,-1.3053,-1.3032,-1.2996,-1.2959,-1.2959,-1.2886,-1.2989,-1.2952,-1.2952,-1.2952,-1.3018,-1.2883,-1.2652,-1.347,-1.4143,-1.439,-1.4708,-1.507,-1.4819,-1.44,-1.4619,-1.4756,-1.4845,-1.4925,-1.4905,-1.4786,-1.4574,-1.4346,-2.4625,-2.3075,-2.3038,-2.274,-2.2327,-2.2052,-2.1911,-2.1807,-2.1512,-2.1349,-2.132,-2.1128,-2.0848,-2.044,-2.0333,-2.005,-1.9578,-1.9183,-1.8736,-1.8336,-1.8207,-1.7952,-1.7576,-1.7414,-1.7334,-1.7234,-1.7444,-1.722,-1.6834,-1.6655,-1.646,-1.6174,-1.5945,-1.5557,-1.5173,-1.4841,-1.4452,-1.3943,-1.3702,-1.3484,-1.3163,-1.309,-1.2856,-1.2709,-1.2452,-1.2224,-1.2046,-1.2084,-1.2061,-1.224,-1.3053,-1.3613,-1.3614,-1.3941,-1.424,-1.418,-1.4534,-1.4502,-1.4386,-1.4254,-1.4097,-1.3808,-1.3766,-1.3717,-1.3633,-1.3512,-1.3512,-1.3506,-1.33,-1.3094,-1.3094,-1.2881,-1.2753,-1.279,-1.2705,-1.2637,-1.2881,-1.3682,-1.4349,-1.4265,-1.4084,-1.3697,-1.3316,-1.3094,-1.2857,-1.2563,-1.221,-1.2187,-1.2298,-1.2254,-1.2224,-1.215,-1.2003,-1.1959,-1.1959,-1.1922,-1.1885,-1.1983,-1.2018,-1.1741,-1.1861,-1.2532,-1.3105,-1.3467,-1.378,-1.3538,-1.3275,-1.3548,-1.3695,-1.3623,-1.365,-1.3818,-1.3747,-1.3412,-1.3235,-2.3625,-2.2166,-2.2279,-2.1835,-2.1118,-2.1195,-2.1156,-2.1089,-2.1012,-2.0809,-2.0702,-2.0664,-2.0137,-1.9608,-1.9481,-1.9134,-1.8576,-1.8304,-1.7942,-1.7529,-1.7497,-1.7269,-1.7017,-1.6912,-1.6854,-1.6729,-1.7005,-1.678,-1.6426,-1.6142,-1.6015,-1.556,-1.5545,-1.5211,-1.4554,-1.4328,-1.4037,-1.3419,-1.3266,-1.301,-1.2599,-1.2532,-1.2281,-1.2032,-1.1933,-1.1865,-1.1904,-1.2018,-1.2105,-1.2059,-1.2506,-1.2364,-1.228,-1.2959,-1.3632,-1.3307,-1.3836,-1.3807,-1.3545,-1.3379,-1.3088,-1.2577,-1.2577,-1.2491,-1.2369,-1.2332,-1.2375,-1.226,-1.22,-1.1983,-1.1852,-1.1835,-1.1821,-1.1824,-1.1804,-1.1832,-1.1946,-1.2454,-1.2833,-1.3137,-1.3112,-1.283,-1.2558,-1.2333,-1.217,-1.1959,-1.1551,-1.1347,-1.1459,-1.1453,-1.1384,-1.1215,-1.1045,-1.091,-1.0883,-1.0812,-1.0812,-1.0907,-1.1038,-1.0901,-1.0619,-1.113,-1.1773,-1.2164,-1.2349,-1.2172,-1.2123,-1.2283,-1.2367,-1.233,-1.2536,-1.2826,-1.2621,-1.2221,-1.2147,-2.2029,-2.1136,-2.0779,-2.0518,-2.0362,-2.0226,-2.0274,-2.0381,-2.0186,-2.001,-1.9844,-1.9618,-1.9341,-1.8935,-1.8856,-1.8367,-1.7764,-1.7538,-1.7221,-1.6763,-1.6681,-1.6599,-1.6476,-1.6402,-1.6267,-1.63,-1.6419,-1.6399,-1.6255,-1.5991,-1.5751,-1.5787,-1.5433,-1.4887,-1.4357,-1.4023,-1.3434,-1.2831,-1.2643,-1.2378,-1.2197,-1.2057,-1.2041,-1.1853,-1.1845,-1.1817,-1.1827,-1.1964,-1.1893,-1.1261,-1.1543,-1.1341,-1.1324,-1.2492,-1.3137,-1.3163,-1.3012,-1.2918,-1.2662,-1.2277,-1.2063,-1.1886,-1.1886,-1.1892,-1.1849,-1.1837,-1.1772,-1.1701,-1.1553,-1.1363,-1.1162,-1.104,-1.0965,-1.0951,-1.0979,-1.1033,-1.1203,-1.1419,-1.1677,-1.2032,-1.2077,-1.2034,-1.1804,-1.156,-1.1358,-1.1126,-1.0806,-1.0686,-1.0744,-1.0608,-1.0402,-1.0209,-0.999,-0.9898,-0.9834,-0.9767,-0.97,-0.9825,-0.9922,-1.004,-0.99,-1.0008,-1.0418,-1.0744,-1.1071,-1.1154,-1.1114,-1.1208,-1.1314,-1.1455,-1.1667,-1.1866,-1.1685,-1.1478,-1.1316,-2.1231,-2.0401,-2.0245,-1.9932,-1.9618,-1.9599,-1.9529,-1.945,-1.9341,-1.9222,-1.9134,-1.9015,-1.8665,-1.8296,-1.8184,-1.7691,-1.7041,-1.6779,-1.6451,-1.6113,-1.6154,-1.6072,-1.594,-1.5873,-1.5756,-1.5665,-1.5699,-1.5858,-1.5982,-1.5609,-1.5409,-1.5194,-1.4772,-1.4194,-1.374,-1.3258,-1.276,-1.2257,-1.2066,-1.1908,-1.1746,-1.1661,-1.1573,-1.1488,-1.1457,-1.1323,-1.1072,-1.1071,-1.091,-1.0527,-1.0792,-1.0799,-1.0949,-1.1368,-1.2171,-1.2132,-1.2068,-1.1972,-1.1843,-1.1585,-1.1499,-1.137,-1.1332,-1.1289,-1.1209,-1.1107,-1.1102,-1.1033,-1.107,-1.082,-1.0452,-1.0316,-1.0309,-1.0279,-1.0256,-1.0429,-1.0687,-1.0804,-1.0852,-1.0982,-1.1144,-1.1155,-1.1066,-1.0819,-1.0576,-1.0327,-1.002,-1.0,-1.005,-0.9781,-0.955,-0.9491,-0.9306,-0.9079,-0.8983,-0.8843,-0.8708,-0.8775,-0.8879,-0.8993,-0.9031,-0.9064,-0.9069,-0.9243,-0.9527,-0.9975,-1.0389,-1.0533,-1.0557,-1.0569,-1.071,-1.0809,-1.0879,-1.079,-1.0599,-2.0498,-1.9545,-1.9698,-1.9335,-1.8744,-1.8838,-1.8785,-1.8585,-1.8536,-1.8505,-1.8496,-1.8376,-1.8014,-1.7578,-1.7294,-1.6968,-1.627,-1.6121,-1.5914,-1.5748,-1.5831,-1.5748,-1.5492,-1.545,-1.5416,-1.5124,-1.5082,-1.52,-1.5367,-1.5117,-1.4824,-1.4532,-1.4012,-1.3486,-1.3048,-1.275,-1.2244,-1.1953,-1.1734,-1.1637,-1.1456,-1.1243,-1.107,-1.0906,-1.0865,-1.0724,-1.0486,-1.0502,-1.0207,-1.004,-1.0119,-1.0373,-1.0361,-1.0502,-1.0593,-1.0693,-1.0973,-1.1133,-1.1111,-1.1068,-1.0982,-1.0895,-1.0852,-1.0771,-1.0572,-1.0406,-1.0226,-1.0246,-1.0113,-1.0101,-0.9712,-0.9497,-0.9427,-0.9416,-0.9416,-0.9543,-0.9744,-0.9792,-0.9586,-0.9812,-1.0178,-1.0167,-0.9981,-1.0018,-0.9761,-0.9578,-0.9295,-0.924,-0.9226,-0.8944,-0.8763,-0.8841,-0.8725,-0.8375,-0.8176,-0.7967,-0.7805,-0.7714,-0.7897,-0.8008,-0.8046,-0.8046,-0.8097,-0.8234,-0.8477,-0.8961,-0.9427,-0.9783,-0.9685,-0.9675,-0.9729,-0.9798,-0.997,-0.9984,-0.9904,-1.9238,-1.8303,-1.8294,-1.7931,-1.7528,-1.7631,-1.7829,-1.8031,-1.7836,-1.7813,-1.7732,-1.7399,-1.6976,-1.664,-1.6409,-1.6113,-1.5858,-1.5733,-1.5624,-1.5465,-1.5465,-1.5333,-1.5166,-1.5173,-1.495,-1.4657,-1.4657,-1.4741,-1.4734,-1.4524,-1.4363,-1.4114,-1.3678,-1.3214,-1.2873,-1.2508,-1.2232,-1.2089,-1.1879,-1.1585,-1.1232,-1.1013,-1.0936,-1.0844,-1.0705,-1.0506,-1.0284,-1.0218,-0.9938,-0.9407,-0.9529,-0.9605,-0.9449,-0.9235,-0.9423,-0.9836,-1.0284,-1.0684,-1.0467,-1.0424,-1.0424,-1.0332,-1.0332,-1.025,-1.0034,-0.9831,-0.9724,-0.991,-0.9357,-0.8987,-0.8866,-0.8331,-0.8096,-0.8075,-0.8174,-0.8186,-0.8321,-0.8925,-0.8717,-0.8348,-0.8626,-0.8776,-0.8743,-0.8861,-0.8926,-0.8756,-0.8574,-0.8479,-0.8388,-0.8139,-0.7912,-0.7947,-0.7992,-0.7677,-0.7405,-0.7197,-0.7052,-0.6854,-0.6987,-0.7177,-0.7278,-0.7371,-0.7355,-0.7502,-0.7748,-0.8021,-0.8455,-0.8718,-0.8723,-0.8779,-0.887,-0.8993,-0.9145,-0.915,-0.9155,-1.8325,-1.7783,-1.7917,-1.7753,-1.7306,-1.7245,-1.7221,-1.718,-1.6718,-1.6629,-1.661,-1.5998,-1.5703,-1.5786,-1.5824,-1.5831,-1.5699,-1.545,-1.5333,-1.5166,-1.5041,-1.4866,-1.4734,-1.4657,-1.4482,-1.4068,-1.3942,-1.3815,-1.3899,-1.4068,-1.4124,-1.3824,-1.3387,-1.2931,-1.269,-1.2348,-1.1984,-1.1663,-1.1386,-1.1109,-1.0823,-1.0742,-1.0726,-1.057,-1.019,-0.9904,-0.9657,-0.9331,-0.903,-0.86,-0.8684,-0.8771,-0.8727,-0.8727,-0.8855,-0.903,-0.9428,-0.965,-0.9738,-0.9733,-0.9777,-0.9728,-0.9719,-0.9634,-0.945,-0.9283,-0.917,-0.9278,-0.874,-0.8356,-0.8181,-0.7678,-0.7444,-0.7324,-0.7191,-0.7313,-0.7453,-0.768,-0.7859,-0.7446,-0.7075,-0.7292,-0.7483,-0.7613,-0.772,-0.7757,-0.7539,-0.7326,-0.7365,-0.7365,-0.7151,-0.696,-0.6983,-0.6946,-0.6697,-0.6507,-0.6407,-0.6284,-0.641,-0.6565,-0.6774,-0.6817,-0.6864,-0.7031,-0.7348,-0.7545,-0.7672,-0.7838,-0.8077,-0.8077,-0.8093,-0.8212,-0.8331,-0.8347,-0.8369,-1.7321,-1.699,-1.7388,-1.7342,-1.6952,-1.6683,-1.6484,-1.6206,-1.5665,-1.5524,-1.5505,-1.4969,-1.4826,-1.4976,-1.511,-1.5068,-1.511,-1.4824,-1.4706,-1.458,-1.4489,-1.423,-1.4055,-1.3971,-1.3766,-1.3222,-1.3307,-1.3179,-1.3137,-1.3264,-1.3434,-1.3512,-1.2952,-1.264,-1.2337,-1.1952,-1.1549,-1.1128,-1.1046,-1.0773,-1.0466,-1.0454,-1.0298,-1.0024,-0.9598,-0.9122,-0.8732,-0.842,-0.8072,-0.794,-0.7984,-0.8116,-0.8153,-0.8109,-0.8241,-0.8328,-0.8508,-0.8508,-0.8727,-0.8951,-0.913,-0.913,-0.8903,-0.8769,-0.8461,-0.8439,-0.8348,-0.8233,-0.7745,-0.7455,-0.7354,-0.6897,-0.6587,-0.6489,-0.6502,-0.6688,-0.6823,-0.682,-0.6653,-0.6256,-0.5947,-0.5934,-0.6104,-0.6269,-0.6451,-0.6628,-0.6496,-0.6294,-0.6405,-0.6612,-0.6576,-0.6442,-0.6336,-0.6287,-0.6058,-0.5867,-0.5753,-0.5764,-0.5894,-0.6084,-0.6293,-0.6451,-0.6563,-0.6743,-0.6895,-0.6841,-0.6755,-0.7119,-0.745,-0.745,-0.7477,-0.7455,-0.7508,-0.7569,-0.7613,-1.6069,-1.5423,-1.6205,-1.623,-1.5756,-1.5374,-1.5249,-1.5333,-1.49,-1.4747,-1.4678,-1.4531,-1.4302,-1.4223,-1.4104,-1.4068,-1.3899,-1.3652,-1.3652,-1.3603,-1.3476,-1.3428,-1.33,-1.3215,-1.2997,-1.2741,-1.2662,-1.2534,-1.2406,-1.2186,-1.2619,-1.2936,-1.2451,-1.2313,-1.1964,-1.1436,-1.1,-1.0719,-1.0694,-1.0585,-1.0245,-1.0062,-0.9816,-0.9384,-0.8947,-0.8504,-0.8241,-0.7981,-0.7764,-0.7547,-0.7547,-0.7591,-0.7672,-0.7448,-0.7492,-0.7584,-0.748,-0.7439,-0.7576,-0.8216,-0.8732,-0.8692,-0.8332,-0.7793,-0.7486,-0.7105,-0.6954,-0.6966,-0.6637,-0.6343,-0.6104,-0.5753,-0.5555,-0.5633,-0.5722,-0.5542,-0.5583,-0.5497,-0.5331,-0.5007,-0.4925,-0.4972,-0.4947,-0.5146,-0.563,-0.5847,-0.5938,-0.5744,-0.5931,-0.6104,-0.6122,-0.6027,-0.5847,-0.5667,-0.5405,-0.528,-0.5305,-0.5377,-0.5457,-0.5703,-0.5953,-0.6073,-0.6073,-0.6096,-0.616,-0.604,-0.5994,-0.6435,-0.6787,-0.6878,-0.6907,-0.6837,-0.6856,-0.6953,-0.6988,-1.5751,-1.5109,-1.5303,-1.5501,-1.5643,-1.524,-1.509,-1.4963,-1.4331,-1.3746,-1.3489,-1.3765,-1.3857,-1.3688,-1.373,-1.3688,-1.3646,-1.3307,-1.3179,-1.3094,-1.3052,-1.2918,-1.279,-1.2619,-1.2491,-1.2143,-1.1929,-1.1757,-1.1505,-1.1327,-1.1499,-1.1712,-1.1725,-1.1679,-1.1343,-1.0931,-1.0446,-1.0125,-1.0081,-0.9912,-0.9519,-0.9388,-0.917,-0.8859,-0.8376,-0.8113,-0.7893,-0.7584,-0.7408,-0.7279,-0.7234,-0.7234,-0.719,-0.6874,-0.6741,-0.6802,-0.6621,-0.6571,-0.661,-0.7193,-0.7492,-0.736,-0.7095,-0.683,-0.6561,-0.6432,-0.6447,-0.6248,-0.5712,-0.5447,-0.571,-0.5166,-0.4743,-0.4921,-0.4877,-0.4654,-0.4565,-0.452,-0.4425,-0.4295,-0.4227,-0.4216,-0.4137,-0.4098,-0.4621,-0.5097,-0.5191,-0.528,-0.5453,-0.5468,-0.5458,-0.5455,-0.5274,-0.5186,-0.4937,-0.4906,-0.4925,-0.5009,-0.5041,-0.5252,-0.5412,-0.5449,-0.5444,-0.5466,-0.5493,-0.5495,-0.5615,-0.5915,-0.6078,-0.6147,-0.6182,-0.6149,-0.6193,-0.6293,-0.6353,-1.5202,-1.4611,-1.4476,-1.4776,-1.5276,-1.4831,-1.458,-1.4455,-1.3688,-1.3086,-1.2654,-1.314,-1.3222,-1.3137,-1.3058,-1.3058,-1.2839,-1.254,-1.2412,-1.2283,-1.2198,-1.2149,-1.2106,-1.194,-1.1682,-1.137,-1.1198,-1.103,-1.0852,-1.0549,-1.0679,-1.0895,-1.0939,-1.0804,-1.089,-1.0424,-0.9951,-0.9515,-0.9432,-0.9297,-0.8907,-0.8732,-0.86,-0.8376,-0.7937,-0.7632,-0.7455,-0.7187,-0.701,-0.6918,-0.6874,-0.683,-0.6656,-0.6435,-0.621,-0.6064,-0.5975,-0.5903,-0.5909,-0.6195,-0.6335,-0.6127,-0.5941,-0.5808,-0.5675,-0.5544,-0.5329,-0.5327,-0.4877,-0.4696,-0.5053,-0.4342,-0.403,-0.4208,-0.4255,-0.4076,-0.403,-0.3985,-0.3807,-0.3619,-0.3549,-0.3462,-0.3597,-0.3552,-0.3909,-0.4372,-0.4555,-0.4656,-0.4772,-0.478,-0.4679,-0.4679,-0.4596,-0.4555,-0.4465,-0.4456,-0.4417,-0.4497,-0.4549,-0.4685,-0.4799,-0.4833,-0.4856,-0.4831,-0.4893,-0.4965,-0.5079,-0.52,-0.5304,-0.5391,-0.5418,-0.5416,-0.5452,-0.5515,-0.5628,-1.4174,-1.3724,-1.3724,-1.411,-1.4615,-1.3815,-1.3525,-1.3561,-1.3014,-1.2699,-1.2614,-1.2583,-1.2497,-1.2412,-1.2209,-1.208,-1.1952,-1.1527,-1.1311,-1.1392,-1.1435,-1.1122,-1.1035,-1.1041,-1.1035,-1.0554,-1.0511,-1.0554,-1.0337,-1.0077,-1.0081,-0.9951,-0.9903,-0.9859,-1.0463,-1.0164,-0.9607,-0.9043,-0.9126,-0.8815,-0.8464,-0.8201,-0.7981,-0.7716,-0.7499,-0.719,-0.6925,-0.6792,-0.6612,-0.6473,-0.6428,-0.634,-0.621,-0.6083,-0.5813,-0.5594,-0.5399,-0.5187,-0.489,-0.553,-0.542,-0.5114,-0.4919,-0.4694,-0.4204,-0.4028,-0.4162,-0.4297,-0.3808,-0.3587,-0.354,-0.3451,-0.3451,-0.3507,-0.3557,-0.351,-0.3466,-0.3361,-0.3138,-0.3048,-0.2781,-0.2647,-0.2871,-0.3094,-0.3321,-0.3609,-0.3864,-0.3999,-0.4088,-0.4124,-0.4033,-0.412,-0.413,-0.4075,-0.4025,-0.3904,-0.3879,-0.3966,-0.4035,-0.4159,-0.4185,-0.4187,-0.4227,-0.4205,-0.4235,-0.4238,-0.4308,-0.4346,-0.4407,-0.4474,-0.4646,-0.4662,-0.4698,-0.4815,-0.5007,-1.3661,-1.3268,-1.3442,-1.3646,-1.3773,-1.3392,-1.327,-1.3264,-1.2796,-1.2412,-1.2252,-1.216,-1.2123,-1.2037,-1.1871,-1.1656,-1.1613,-1.1397,-1.1181,-1.1181,-1.1132,-1.1089,-1.0959,-1.0733,-1.0603,-1.0381,-1.0294,-1.012,-0.982,-0.9646,-0.9563,-0.9432,-0.9051,-0.8986,-0.9026,-0.8811,-0.8288,-0.8021,-0.7889,-0.7672,-0.7455,-0.7323,-0.7149,-0.6931,-0.6849,-0.6637,-0.637,-0.6329,-0.6192,-0.5952,-0.5902,-0.5774,-0.5547,-0.5324,-0.5013,-0.4645,-0.442,-0.4305,-0.4034,-0.4148,-0.4025,-0.397,-0.3993,-0.3859,-0.3674,-0.3494,-0.3496,-0.3408,-0.3094,-0.305,-0.3227,-0.2826,-0.2743,-0.2957,-0.2964,-0.2821,-0.2723,-0.2612,-0.2511,-0.2512,-0.2334,-0.2207,-0.2345,-0.2265,-0.2403,-0.2617,-0.2807,-0.3148,-0.3306,-0.3486,-0.351,-0.3689,-0.3735,-0.3668,-0.3547,-0.3353,-0.3224,-0.3232,-0.3404,-0.3601,-0.3626,-0.344,-0.3474,-0.3455,-0.3474,-0.3491,-0.3578,-0.362,-0.3478,-0.3502,-0.3804,-0.4112,-0.4268,-0.4423,-0.4579,-1.3316,-1.294,-1.3193,-1.325,-1.3151,-1.3099,-1.3094,-1.2966,-1.2497,-1.2203,-1.2118,-1.2,-1.1957,-1.1914,-1.1699,-1.157,-1.1527,-1.1311,-1.1181,-1.1181,-1.1132,-1.0911,-1.0733,-1.0603,-1.0342,-1.0125,-0.9951,-0.9733,-0.9519,-0.9262,-0.9038,-0.8744,-0.848,-0.8203,-0.8095,-0.7889,-0.776,-0.7536,-0.7316,-0.7095,-0.6853,-0.6656,-0.6559,-0.6394,-0.6319,-0.6156,-0.5995,-0.5851,-0.5713,-0.5497,-0.5305,-0.5173,-0.4804,-0.4565,-0.4297,-0.4029,-0.3639,-0.3573,-0.3466,-0.3112,-0.3049,-0.306,-0.3115,-0.3127,-0.3083,-0.2907,-0.2933,-0.2837,-0.2608,-0.2573,-0.2581,-0.2128,-0.2238,-0.245,-0.2461,-0.2318,-0.2317,-0.2208,-0.2008,-0.2005,-0.1827,-0.1782,-0.1643,-0.1463,-0.1378,-0.1551,-0.1722,-0.2074,-0.2372,-0.2494,-0.2625,-0.2804,-0.2917,-0.2748,-0.2689,-0.2631,-0.2517,-0.2519,-0.2595,-0.2703,-0.2616,-0.2391,-0.2545,-0.2698,-0.2839,-0.2928,-0.2924,-0.2905,-0.2827,-0.289,-0.3178,-0.3487,-0.38,-0.3884,-0.3929,-1.31,-1.2758,-1.2988,-1.2909,-1.2748,-1.2832,-1.2711,-1.2406,-1.2123,-1.2118,-1.2277,-1.1823,-1.1742,-1.1828,-1.1483,-1.1348,-1.1305,-1.1138,-1.1051,-1.1003,-1.0959,-1.0646,-1.0467,-1.0337,-1.0168,-0.982,-0.965,-0.9607,-0.9305,-0.9006,-0.8561,-0.8157,-0.8005,-0.7712,-0.7568,-0.7544,-0.7471,-0.7122,-0.683,-0.6583,-0.6308,-0.6201,-0.611,-0.6009,-0.592,-0.5689,-0.5491,-0.5349,-0.5066,-0.4847,-0.4645,-0.449,-0.433,-0.421,-0.4072,-0.3749,-0.3223,-0.3102,-0.3001,-0.261,-0.2342,-0.2382,-0.2253,-0.2218,-0.2308,-0.2393,-0.243,-0.2367,-0.2181,-0.2017,-0.1844,-0.1856,-0.1915,-0.1979,-0.1994,-0.1949,-0.2,-0.1847,-0.1643,-0.15,-0.1223,-0.1035,-0.0703,-0.0516,-0.0463,-0.0367,-0.0455,-0.0361,-0.0715,-0.1228,-0.136,-0.1631,-0.1701,-0.1712,-0.1666,-0.1777,-0.1615,-0.1509,-0.137,-0.1361,-0.1319,-0.1449,-0.1637,-0.1867,-0.2238,-0.2338,-0.2294,-0.223,-0.2181,-0.2325,-0.2353,-0.2773,-0.3097,-0.3049,-0.3089,-1.2451,-1.2511,-1.2717,-1.2486,-1.1972,-1.1729,-1.1768,-1.208,-1.1871,-1.1742,-1.1602,-1.1483,-1.1483,-1.1478,-1.1348,-1.1311,-1.1267,-1.1224,-1.1094,-1.1013,-1.0855,-1.0613,-1.0439,-1.0275,-1.0135,-0.9917,-0.9703,-0.9521,-0.9222,-0.8843,-0.8522,-0.8206,-0.7955,-0.7567,-0.7366,-0.7313,-0.7002,-0.6684,-0.6385,-0.6158,-0.5935,-0.5774,-0.5691,-0.5519,-0.5325,-0.5081,-0.4825,-0.4593,-0.4264,-0.3866,-0.3676,-0.3466,-0.3058,-0.292,-0.2752,-0.2748,-0.2573,-0.2524,-0.263,-0.2299,-0.199,-0.1876,-0.1744,-0.1869,-0.1955,-0.1996,-0.1954,-0.1853,-0.1706,-0.1486,-0.1409,-0.1468,-0.1434,-0.14,-0.1405,-0.1403,-0.1453,-0.1353,-0.115,-0.0861,-0.0624,-0.0191,0.0143,0.0283,0.0373,0.0601,0.0779,0.0864,0.0763,0.0221,-0.0219,-0.0484,-0.066,-0.0695,-0.0875,-0.0975,-0.071,-0.0489,-0.031,-0.0266,-0.0443,-0.0574,-0.0786,-0.1038,-0.1332,-0.1527,-0.1629,-0.1535,-0.1366,-0.1318,-0.1392,-0.1906,-0.2294,-0.2249,-0.2333,-1.1808,-1.2087,-1.2031,-1.18,-1.1542,-1.137,-1.151,-1.1682,-1.1613,-1.1483,-1.1435,-1.1348,-1.1348,-1.1435,-1.1354,-1.1267,-1.1176,-1.1138,-1.1051,-1.0888,-1.0873,-1.0576,-1.0396,-1.0338,-1.0225,-1.002,-0.9783,-0.958,-0.9249,-0.8814,-0.8442,-0.8268,-0.8008,-0.7634,-0.7312,-0.7079,-0.665,-0.6291,-0.5933,-0.5734,-0.5544,-0.5364,-0.5197,-0.4901,-0.4643,-0.4348,-0.3963,-0.3723,-0.3421,-0.3043,-0.2892,-0.2666,-0.2259,-0.2035,-0.1838,-0.1888,-0.1937,-0.1954,-0.1989,-0.1942,-0.1733,-0.1584,-0.1304,-0.14,-0.143,-0.1419,-0.142,-0.1417,-0.1178,-0.099,-0.1003,-0.0967,-0.0881,-0.0842,-0.0789,-0.0786,-0.0786,-0.0786,-0.0538,-0.0244,0.0194,0.0629,0.0913,0.1046,0.123,0.1469,0.1597,0.162,0.1598,0.1301,0.0846,0.049,0.0312,0.0178,0.0045,-0.0045,0.0269,0.0537,0.0849,0.0803,0.0536,0.0223,0.0,-0.022,-0.0436,-0.0647,-0.0897,-0.0682,-0.051,-0.0507,-0.0588,-0.1001,-0.132,-0.143,-0.1598,-1.1178,-1.1503,-1.1096,-1.1111,-1.1278,-1.1456,-1.1456,-1.1332,-1.1381,-1.1456,-1.1581,-1.1397,-1.1397,-1.1483,-1.1397,-1.1213,-1.1158,-1.1135,-1.096,-1.073,-1.0676,-1.0485,-1.0362,-1.0412,-1.0168,-0.9995,-0.98,-0.9544,-0.9305,-0.8882,-0.8456,-0.8291,-0.7804,-0.745,-0.7139,-0.6649,-0.6194,-0.5749,-0.5583,-0.5456,-0.5315,-0.5083,-0.4759,-0.4285,-0.3963,-0.3673,-0.3247,-0.2971,-0.2865,-0.2542,-0.2223,-0.2046,-0.1596,-0.1416,-0.1213,-0.1093,-0.1195,-0.1259,-0.1228,-0.1183,-0.1072,-0.1024,-0.0986,-0.0739,-0.0583,-0.0914,-0.1057,-0.1014,-0.0868,-0.0725,-0.0733,-0.0639,-0.0546,-0.04,-0.03,-0.0199,-0.01,0.0,0.0298,0.0644,0.0985,0.1424,0.1625,0.1757,0.1925,0.2277,0.2433,0.2385,0.2365,0.2234,0.1805,0.1393,0.1211,0.1031,0.0987,0.0987,0.126,0.1575,0.1756,0.1771,0.1418,0.1091,0.072,0.0492,0.0222,0.0,-0.0131,0.0,0.0043,0.0043,-0.0043,-0.0171,-0.0339,-0.0544,-0.092,-1.0753,-1.0887,-1.0567,-1.0727,-1.1025,-1.0939,-1.1068,-1.1343,-1.1669,-1.1674,-1.1424,-1.1354,-1.1316,-1.1381,-1.1359,-1.1239,-1.1217,-1.1128,-1.0938,-1.0736,-1.0561,-1.0329,-1.0075,-1.0086,-0.9915,-0.9723,-0.9555,-0.9326,-0.8969,-0.8704,-0.8455,-0.8206,-0.7618,-0.6981,-0.6764,-0.6175,-0.5581,-0.5228,-0.4935,-0.471,-0.4343,-0.4253,-0.3988,-0.3536,-0.3218,-0.309,-0.2688,-0.2405,-0.2133,-0.1756,-0.1497,-0.1045,-0.0459,-0.0508,-0.0471,-0.0338,-0.0341,-0.0443,-0.0447,-0.035,-0.0198,0.0049,0.0246,0.0443,0.0294,-0.0391,-0.0685,-0.064,-0.0593,-0.0496,-0.0398,-0.025,-0.01,0.0101,0.0252,0.0454,0.0606,0.0908,0.116,0.1506,0.1846,0.2148,0.2356,0.2543,0.2709,0.2851,0.3019,0.3066,0.3174,0.3098,0.259,0.2212,0.2021,0.1885,0.184,0.1843,0.1985,0.209,0.2234,0.2259,0.2239,0.1853,0.1422,0.1095,0.0816,0.0583,0.0445,0.049,0.0531,0.0482,0.0435,0.0348,0.0347,0.0215,-0.0215,-1.011,-1.0501,-1.0378,-1.0511,-1.0766,-1.0895,-1.1063,-1.1354,-1.1789,-1.1734,-1.1386,-1.1407,-1.1412,-1.1336,-1.1277,-1.1226,-1.1187,-1.1158,-1.091,-1.0653,-1.0365,-1.0099,-0.989,-0.965,-0.9267,-0.9041,-0.8776,-0.8503,-0.8403,-0.7965,-0.7625,-0.7478,-0.6833,-0.6437,-0.6142,-0.5541,-0.5039,-0.4634,-0.4234,-0.3806,-0.347,-0.3477,-0.3386,-0.3022,-0.2717,-0.2545,-0.2168,-0.1843,-0.1579,-0.1179,-0.0884,-0.0465,0.0,0.0142,0.0288,0.0391,0.0396,0.035,0.0403,0.0504,0.0753,0.0946,0.0993,0.0996,0.1295,0.0696,0.0298,0.035,0.02,0.0251,0.0301,0.0403,0.0704,0.0908,0.0958,0.111,0.1463,0.1815,0.2017,0.2166,0.261,0.3112,0.327,0.3317,0.3432,0.3419,0.3564,0.3561,0.3703,0.3759,0.3276,0.2962,0.2729,0.2569,0.2424,0.2477,0.2579,0.2692,0.2716,0.2725,0.2646,0.2432,0.2105,0.1624,0.1287,0.109,0.0994,0.099,0.0897,0.0844,0.0841,0.0839,0.0882,0.0879,0.0482,-0.9469,-1.0119,-1.0259,-1.0419,-1.0674,-1.1149,-1.137,-1.1472,-1.1819,-1.176,-1.1451,-1.1655,-1.1531,-1.136,-1.1296,-1.1165,-1.1055,-1.0929,-1.0738,-1.0427,-1.0051,-0.9643,-0.9345,-0.9088,-0.8729,-0.8357,-0.8044,-0.7858,-0.7647,-0.731,-0.7012,-0.6484,-0.6087,-0.5834,-0.5386,-0.5037,-0.4736,-0.4185,-0.3681,-0.3176,-0.3022,-0.2975,-0.2772,-0.2521,-0.2267,-0.2049,-0.1679,-0.1322,-0.1165,-0.0816,-0.0427,0.0095,0.0431,0.0677,0.0977,0.1089,0.11,0.1157,0.1262,0.1312,0.1411,0.146,0.1462,0.1663,0.2065,0.1865,0.1513,0.1261,0.111,0.0958,0.101,0.1111,0.1413,0.1715,0.1765,0.1916,0.2368,0.272,0.2823,0.2977,0.3379,0.3882,0.3981,0.3979,0.4074,0.4064,0.4088,0.4053,0.4053,0.3977,0.3764,0.3497,0.3296,0.3169,0.3025,0.3025,0.3041,0.3156,0.318,0.3134,0.306,0.2837,0.2475,0.2024,0.1723,0.1606,0.1452,0.1398,0.1305,0.1256,0.1341,0.138,0.1292,0.1244,0.1063,-0.9298,-0.9552,-1.0067,-1.0419,-1.0674,-1.1327,-1.1725,-1.1856,-1.1893,-1.1849,-1.1645,-1.1811,-1.1761,-1.1261,-1.1287,-1.116,-1.0878,-1.0659,-1.0406,-1.0126,-0.9552,-0.91,-0.8678,-0.8409,-0.8306,-0.7935,-0.7596,-0.7493,-0.7033,-0.6936,-0.6689,-0.6042,-0.5336,-0.5033,-0.4834,-0.4433,-0.3883,-0.3533,-0.3381,-0.2976,-0.2573,-0.2372,-0.207,-0.1869,-0.1717,-0.1697,-0.1481,-0.113,-0.0922,-0.0624,-0.0096,0.0531,0.0924,0.1178,0.1435,0.1697,0.1713,0.1866,0.2019,0.2271,0.2422,0.2623,0.2773,0.3025,0.3176,0.2925,0.2623,0.2371,0.2119,0.1716,0.1716,0.1817,0.2067,0.2521,0.2723,0.3074,0.3476,0.3629,0.3731,0.3781,0.3932,0.4133,0.4182,0.4332,0.4533,0.4564,0.4628,0.4597,0.4672,0.4444,0.4218,0.4049,0.3933,0.3699,0.353,0.34,0.3461,0.358,0.3661,0.3602,0.3463,0.3242,0.286,0.254,0.2259,0.2082,0.197,0.1856,0.1799,0.1794,0.193,0.1973,0.1795,0.1704,0.1562]},{"header":{"parameterUnit":"m.s-1","parameterCategory":1,"la1":31.0,"la2":29.5877,"lo1":-88.7671,"lo2":-86.6584,"dy":0.0162,"dx":0.0185,"nx":115,"ny":88,"refTime":"2023-09-19T12:00:00:Z","depth":0,"parameterNumber":3,"parameterNumberName":"V-component_of_WINDS"},"data":[0.0,0.0,0.0,0.0,0.0,0.0,0.0,0.0,0.0,0.0,0.0,0.0,0.0,0.0,0.0,0.0,0.0,0.0,0.0,0.0,0.0,0.0,0.0,0.0,0.0,0.0,0.0,0.0,0.0,0.0,0.0,0.0,0.0,0.0,0.0,0.0,0.0,0.0,0.0,0.0,0.0,0.0,0.0,0.0,0.0,0.0,0.0,0.0,0.0,0.0,0.0,0.0,0.0,0.0,0.0,0.0,0.0,0.0,0.0,0.0,0.0,0.0,0.0,0.0,0.0,0.0,0.0,0.0,0.0,0.0,0.0,0.0,0.0,0.0,0.0,0.0,0.0,0.0,0.0,0.0,0.0,0.0,0.0,0.0,0.0,0.0,0.0,0.0,0.0,0.0,0.0,0.0,0.0,0.0,0.0,0.0,0.0,0.0,0.0,0.0,0.0,0.0,0.0,0.0,0.0,0.0,0.0,0.0,0.0,0.0,0.0,0.0,0.0,0.0,0.0,0.0,0.0,0.0,0.0,0.0,0.0,0.0,0.0,0.0,0.0,0.0,0.0,0.0,0.0,0.0,0.0,0.0,0.0,0.0,0.0,0.0,0.0,0.0,0.0,0.0,0.0,0.0,0.0,0.0,0.0,0.0,0.0,0.0,0.0,0.0,0.0,0.0,0.0,0.0,0.0,0.0,0.0,0.0,0.0,0.0,0.0,0.0,0.0,0.0,0.0,0.0,0.0,0.0,0.0,0.0,0.0,0.0,0.0,0.0,0.0,0.0,0.0,0.0,0.0,0.0,0.0,0.0,0.0,0.0,0.0,0.0,0.0,0.0,0.0,0.0,0.0,0.0,0.0,0.0,0.0,0.0,0.0,0.0,0.0,0.0,0.0,0.0,0.0,0.0,0.0,0.0,0.0,0.0,0.0,0.0,0.0,0.0,0.0,0.0,0.0,0.0,0.0,0.0,0.0,0.0,0.0,0.0,0.0,0.0,0.0,0.0,0.0,0.0,0.0,0.0,0.0,0.0,0.0,0.0,0.0,0.0,0.0,0.0,0.0,0.0,0.0,0.0,0.0,0.0,0.0,0.0,0.0,0.0,0.0,0.0,0.0,0.0,0.0,0.0,0.0,0.0,0.0,0.0,0.0,0.0,0.0,0.0,0.0,0.0,0.0,0.0,0.0,0.0,0.0,0.0,0.0,0.0,0.0,0.0,0.0,0.0,0.0,0.0,0.0,0.0,0.0,0.0,0.0,0.0,0.0,0.0,0.0,0.0,0.0,0.0,0.0,0.0,0.0,0.0,0.0,0.0,0.0,0.0,0.0,0.0,0.0,0.0,0.0,0.0,0.0,0.0,0.0,0.0,0.0,0.0,0.0,0.0,0.0,0.0,0.0,0.0,0.0,0.0,0.0,0.0,0.0,0.0,0.0,0.0,0.0,0.0,0.0,0.0,0.0,0.0,0.0,0.0,0.0,0.0,0.0,0.0,0.0,0.0,0.0,0.0,0.0,0.0,0.0,0.0,0.0,0.0,0.0,0.0,0.0,0.0,0.0,0.0,0.0,0.0,0.0,0.0,0.0,0.0,0.0,0.0,0.0,0.0,0.0,0.0,0.0,0.0,0.0,0.0,0.0,0.0,0.0,0.0,0.0,0.0,0.0,0.0,0.0,0.0,0.0,0.0,0.0,0.0,0.0,0.0,0.0,0.0,0.0,0.0,0.0,0.0,0.0,0.0,0.0,0.0,0.0,0.0,0.0,0.0,0.0,0.0,0.0,0.0,0.0,0.0,0.0,0.0,0.0,0.0,0.0,0.0,0.0,0.0,0.0,0.0,0.0,0.0,0.0,0.0,0.0,0.0,0.0,0.0,0.0,0.0,0.0,0.0,0.0,0.0,0.0,0.0,0.0,0.0,0.0,0.0,0.0,0.0,0.0,0.0,0.0,0.0,0.0,0.0,0.0,0.0,0.0,0.0,0.0,0.0,0.0,0.0,0.0,0.0,0.0,0.0,0.0,0.0,0.0,0.0,0.0,0.0,0.0,0.0,0.0,0.0,0.0,0.0,0.0,0.0,0.0,0.0,0.0,0.0,0.0,0.0,0.0,0.0,0.0,0.0,0.0,0.0,0.0,0.0,0.0,0.0,0.0,0.0,0.0,0.0,0.0,0.0,0.0,0.0,0.0,0.0,0.0,0.0,0.0,0.0,0.0,0.0,0.0,0.0,0.0,0.0,0.0,0.0,0.0,0.0,0.0,0.0,0.0,0.0,0.0,0.0,0.0,0.0,0.0,0.0,0.0,0.0,0.0,0.0,0.0,0.0,0.0,0.0,0.0,0.0,0.0,0.0,0.0,0.0,0.0,0.0,0.0,0.0,0.0,0.0,0.0,0.0,0.0,0.0,0.0,0.0,0.0,0.0,0.0,0.0,0.0,0.0,0.0,0.0,0.0,0.0,0.0,0.0,0.0,0.0,0.0,0.0,0.0,0.0,0.0,0.0,0.0,0.0,0.0,0.0,0.0,0.0,0.0,0.0,0.0,0.0,0.0,0.0,0.0,0.0,0.0,0.0,0.0,0.0,0.0,0.0,0.0,0.0,0.0,0.0,0.0,0.0,0.0,0.0,0.0,0.0,0.0,0.0,0.0,0.0,0.0,0.0,0.0,0.0,0.0,0.0,0.0,0.0,0.0,0.0,0.0,0.0,0.0,0.0,0.0,0.0,0.0,0.0,0.0,0.0,0.0,0.0,0.0,0.0,0.0,0.0,0.0,0.0,0.0,0.0,0.0,0.0,0.0,0.0,0.0,0.0,0.0,0.0,0.0,0.0,0.0,0.0,0.0,0.0,0.0,0.0,0.0,0.0,0.0,0.0,0.0,0.0,0.0,0.0,0.0,0.0,0.0,0.0,0.0,0.0,0.0,0.0,0.0,0.0,0.0,0.0,0.0,0.0,0.0,0.0,0.0,0.0,0.0,0.0,0.0,0.0,0.0,0.0,0.0,0.0,0.0,0.0,0.0,0.0,0.0,0.0,0.0,0.0,0.0,0.0,0.0,0.0,0.0,0.0,0.0,0.0,0.0,0.0,0.0,0.0,0.0,0.0,0.0,0.0,0.0,0.0,0.0,0.0,0.0,0.0,0.0,0.0,0.0,0.0,0.0,0.0,0.0,0.0,0.0,0.0,0.0,0.0,0.0,0.0,0.0,0.0,0.0,0.0,0.0,0.0,0.0,0.0,0.0,0.0,0.0,0.0,0.0,0.0,0.0,0.0,0.0,0.0,0.0,0.0,0.0,0.0,0.0,0.0,0.0,0.0,0.0,0.0,0.0,0.0,0.0,0.0,0.0,0.0,0.0,0.0,0.0,0.0,0.0,0.0,0.0,0.0,0.0,0.0,0.0,0.0,0.0,0.0,0.0,0.0,0.0,0.0,0.0,0.0,0.0,0.0,0.0,0.0,0.0,0.0,0.0,0.0,0.0,0.0,0.0,0.0,0.0,0.0,0.0,0.0,0.0,0.0,0.0,0.0,0.0,0.0,0.0,0.0,0.0,0.0,0.0,0.0,0.0,0.0,0.0,0.0,0.0,0.0,0.0,0.0,0.0,0.0,0.0,0.0,0.0,0.0,0.0,0.0,0.0,0.0,0.0,0.0,0.0,0.0,0.0,0.0,0.0,0.0,0.0,0.0,0.0,0.0,0.0,0.0,0.0,0.0,0.0,0.0,0.0,0.0,0.0,0.0,0.0,0.0,0.0,0.0,0.0,0.0,0.0,0.0,0.0,0.0,0.0,0.0,0.0,0.0,0.0,0.0,0.0,0.0,0.0,0.0,0.0,0.0,0.0,0.0,0.0,0.0,0.0,0.0,0.0,0.0,0.0,0.0,0.0,0.0,0.0,0.0,0.0,0.0,0.0,0.0,0.0,0.0,0.0,0.0,0.0,0.0,0.0,0.0,0.0,0.0,0.0,0.0,0.0,0.0,0.0,0.0,0.0,0.0,0.0,0.0,0.0,0.0,0.0,0.0,0.0,0.0,0.0,0.0,0.0,0.0,0.0,0.0,0.0,0.0,0.0,0.0,0.0,0.0,0.0,0.0,0.0,0.0,0.0,0.0,0.0,0.0,0.0,0.0,0.0,0.0,0.0,0.0,0.0,0.0,0.0,0.0,0.0,0.0,0.0,0.0,0.0,0.0,0.0,0.0,0.0,0.0,0.0,0.0,0.0,0.0,0.0,0.0,0.0,0.0,0.0,0.0,0.0,0.0,0.0,0.0,0.0,0.0,0.993,0.0,0.0,0.0,0.0,0.0,0.0,0.0,0.0,0.0,0.0,0.0,0.0,0.0,0.0,0.0,0.0,0.0,0.0,0.0,0.0,0.0,0.0,0.0,0.0,0.0,0.0,0.0,0.0,0.0,0.0,0.0,0.0,0.0,0.0,0.0,0.0,0.0,0.0,0.0,0.0,0.0,0.0,0.0,0.0,0.0,0.0,0.0,0.0,0.0,0.0,0.0,0.0,0.0,0.0,0.0,0.0,0.0,0.0,0.0,0.0,0.0,0.0,0.0,0.0,0.0,0.0,0.0,0.0,0.0,0.0,0.0,0.0,0.0,0.0,0.0,0.0,0.0,0.0,0.0,0.0,0.0,0.0,0.0,0.0,0.0,0.0,0.0,0.0,0.0,0.0,0.0,0.0,0.0,0.0,0.0,0.0,0.0,0.0,0.0,0.0,0.0,0.0,0.0,0.0,0.0,0.0,0.0,0.0,0.0,0.0,1.1432,1.1095,1.0904,1.0625,1.0198,0.0,0.0,0.0,0.0,0.0,0.0,0.0,0.0,0.0,0.0,0.0,0.0,0.0,0.0,0.0,0.0,0.0,0.0,0.0,0.0,0.0,0.0,0.0,0.0,0.0,0.0,0.0,0.0,0.0,0.0,0.0,0.0,0.0,0.0,0.0,0.0,0.0,0.0,0.0,0.0,0.0,0.0,0.0,0.0,0.0,0.0,0.0,0.0,0.0,0.0,0.0,0.0,0.0,0.0,0.0,0.0,0.0,0.0,0.0,0.0,0.0,0.0,0.0,0.0,0.0,0.0,0.0,0.0,0.0,0.0,0.0,0.0,0.0,0.0,0.0,0.0,0.0,0.0,0.0,0.0,0.0,0.0,0.0,0.0,0.0,0.0,0.0,0.0,0.0,0.0,0.0,0.0,0.0,0.0,0.0,0.0,0.0,0.0,0.0,0.0,0.0,0.0,0.0,0.0,0.0,0.0,0.0,0.0,0.0,0.0,0.0,0.0,1.0895,1.0616,1.0322,0.0,0.0,0.0,0.0,0.0,0.0,0.0,0.0,0.0,0.0,0.0,0.0,0.0,0.0,0.0,0.0,0.0,0.0,0.0,0.0,0.0,0.0,0.0,0.0,0.0,0.0,0.0,0.0,0.0,0.0,0.0,0.0,0.0,0.0,0.0,0.0,0.0,0.0,0.0,0.0,0.0,0.0,0.0,0.0,0.0,0.0,0.0,0.0,0.0,0.0,0.0,0.0,0.0,0.0,0.0,0.0,0.0,0.0,0.0,0.0,0.0,0.0,0.0,0.0,0.0,0.0,0.0,0.0,0.0,0.0,0.0,0.0,0.0,0.0,0.0,0.0,0.0,0.0,0.0,0.0,0.0,0.0,0.0,0.0,0.0,0.0,0.0,0.0,0.0,0.0,0.0,0.0,0.0,0.0,0.0,0.0,0.0,0.0,0.0,0.0,0.0,0.0,0.0,0.0,0.0,0.0,0.0,0.0,0.0,0.0,1.1373,1.087,1.0681,0.0,0.9567,0.0,0.0,0.0,0.0,0.0,0.0,0.0,0.0,0.0,0.0,0.0,0.0,0.0,0.0,0.0,0.0,0.0,0.0,0.0,0.0,0.0,0.0,0.0,0.0,0.0,0.0,0.0,0.0,0.0,0.0,0.0,0.0,0.0,0.0,0.0,0.0,0.0,0.0,0.0,0.0,0.0,0.0,0.0,0.0,0.0,0.0,0.0,0.0,0.0,0.0,0.0,0.0,0.0,0.0,0.0,0.0,0.0,0.0,0.0,0.0,0.0,0.0,0.0,0.0,0.0,0.0,0.0,0.0,0.0,0.0,0.0,0.0,0.0,0.0,0.0,0.0,0.0,0.0,0.0,0.0,0.0,0.0,0.0,0.0,0.0,0.0,0.0,0.0,0.0,0.0,0.0,0.0,0.0,0.0,0.0,0.0,0.0,0.0,0.0,0.0,0.0,0.0,0.0,0.0,0.0,0.0,0.0,0.0,0.0,0.0,1.1685,1.1228,1.0488,0.9825,0.0,0.0,0.0,0.0,0.0,0.0,0.0,0.0,0.0,0.0,0.0,0.0,0.0,0.0,0.0,0.0,0.0,0.0,0.0,0.0,0.0,0.0,0.0,0.0,0.0,0.0,0.0,0.0,0.0,0.0,0.0,0.0,0.0,0.0,0.0,0.0,0.0,0.0,0.0,0.0,0.0,0.0,0.0,0.0,0.0,0.0,0.0,0.0,0.0,0.0,0.0,0.0,0.0,0.0,0.0,0.0,0.0,0.0,0.0,0.0,0.0,0.0,0.0,0.0,0.0,0.0,0.0,0.0,0.0,0.0,0.0,0.0,0.0,0.0,0.0,0.0,0.0,0.0,0.0,0.0,0.0,0.0,0.0,0.0,0.0,0.0,0.0,0.0,0.0,0.0,0.0,0.0,0.0,0.0,0.0,0.0,0.0,0.0,0.0,0.0,0.0,0.0,0.0,0.0,0.0,0.0,0.0,0.0,0.0,0.0,1.2432,1.1835,1.1153,1.0204,0.9428,0.8941,0.0,0.0,0.0,0.0,0.0,0.0,0.0,0.0,0.0,0.0,0.0,0.0,0.0,0.0,0.0,0.0,0.0,0.0,0.0,0.0,0.0,0.0,0.0,0.0,0.0,0.0,0.0,0.0,0.0,0.0,0.0,0.0,0.0,0.0,0.0,0.0,0.0,0.0,0.0,0.0,0.0,0.0,0.0,0.0,0.0,0.0,0.0,0.0,0.0,0.0,0.0,0.0,0.0,0.0,0.0,0.0,0.0,0.0,0.0,0.0,0.0,0.0,0.0,0.0,0.0,0.0,0.0,0.0,0.0,0.0,0.0,0.0,0.0,0.0,0.0,0.0,0.0,0.0,0.0,0.0,0.0,0.0,0.0,0.0,0.0,0.0,0.0,0.0,0.0,0.0,0.0,0.0,0.0,0.0,0.0,0.0,0.0,0.0,0.0,0.0,0.0,0.0,0.0,0.0,0.0,0.0,0.0,0.0,1.2845,1.241,1.158,1.0319,0.9716,0.929,0.0,0.0,0.0,0.0,0.0,0.0,0.0,0.0,0.0,0.0,0.0,0.0,0.0,0.0,0.0,0.0,0.0,0.0,0.0,0.0,0.0,0.0,0.0,0.0,0.0,0.0,0.0,0.0,0.0,0.0,0.0,0.0,0.0,0.0,0.0,0.0,0.0,0.0,0.0,0.0,0.0,0.0,0.0,0.0,0.0,0.0,0.0,0.0,0.0,0.0,0.0,0.0,0.0,0.0,0.0,0.0,0.0,0.0,0.0,0.0,0.0,0.0,0.0,0.0,0.0,0.0,0.0,0.0,0.0,0.0,0.0,0.0,0.0,0.0,0.0,0.0,0.0,0.0,0.0,0.0,0.0,0.0,0.0,0.0,0.0,0.0,0.0,0.0,0.0,0.0,0.0,0.0,0.0,0.0,0.0,0.0,0.0,0.0,0.0,0.0,0.0,0.0,0.0,0.0,0.0,0.0,0.0,0.0,0.0,1.3416,1.2375,1.132,1.0303,0.9708,0.9213,0.0,0.0,0.0,0.0,0.0,0.0,0.0,0.0,0.0,0.0,0.0,0.0,0.0,0.0,0.0,0.0,0.0,0.0,0.0,0.0,0.0,0.0,0.0,0.0,0.0,0.0,0.0,0.0,0.0,0.0,0.0,0.0,0.0,0.0,0.0,0.0,0.0,0.0,0.0,0.0,0.0,0.0,0.0,0.0,0.0,0.0,0.0,0.0,0.0,0.0,0.0,0.0,0.0,0.0,0.0,0.0,0.0,0.0,0.0,0.0,0.0,0.0,0.0,0.0,0.0,0.0,0.0,0.0,0.0,0.0,0.0,0.0,0.0,0.0,0.0,0.0,0.0,0.0,0.0,0.0,0.0,0.0,0.0,0.0,0.0,0.0,0.0,0.0,0.0,0.0,0.0,0.0,0.0,0.0,0.0,0.0,0.0,0.0,0.0,0.0,0.0,0.0,0.0,0.0,0.0,0.0,0.0,0.0,0.0,1.3397,0.0,1.112,1.0302,0.9684,0.9074,0.0,0.0,0.0,0.0,0.0,0.0,0.0,0.0,0.0,0.0,0.0,0.0,0.0,0.0,0.0,0.0,0.0,0.0,0.0,0.0,0.0,0.0,0.0,0.0,0.0,0.0,0.0,0.0,0.0,0.0,0.0,0.0,0.0,0.0,0.0,0.0,0.0,0.0,0.0,0.0,0.0,0.0,0.0,0.0,0.0,0.0,0.0,0.0,0.0,0.0,0.0,0.0,0.0,0.0,0.0,0.0,0.0,0.0,0.0,0.0,0.0,0.0,0.0,0.0,0.0,0.0,0.0,0.0,0.0,0.0,0.0,0.0,0.0,0.0,0.0,0.0,0.0,0.0,0.0,0.0,0.0,0.0,0.0,0.0,0.0,0.0,0.0,0.0,0.0,0.0,0.0,0.0,0.0,0.0,0.0,0.0,0.0,0.0,0.0,0.0,0.0,0.0,0.0,0.0,0.0,0.0,0.0,0.0,1.3964,1.2643,1.1818,1.0979,1.0212,0.9608,0.8878,0.0,0.0,0.0,0.0,0.0,0.0,0.0,0.0,0.0,0.0,0.0,0.0,0.0,0.0,0.0,0.0,0.0,0.0,0.0,0.0,0.0,0.0,0.0,0.0,0.0,0.0,0.0,0.0,0.0,0.0,0.0,0.0,0.0,0.0,0.0,0.0,0.0,0.0,0.0,0.0,0.0,0.0,0.0,0.0,0.0,0.0,0.0,0.0,0.0,0.0,0.0,0.0,0.0,0.0,0.0,0.0,0.0,0.0,0.0,0.0,0.0,0.0,0.0,0.0,0.0,0.0,0.0,0.0,0.0,0.0,0.0,0.0,0.0,0.0,0.0,0.0,0.0,0.0,0.0,0.0,0.0,0.0,0.0,0.0,0.0,0.0,0.0,0.0,0.0,0.0,0.0,0.0,0.0,0.0,0.0,0.0,0.0,0.0,0.0,0.0,0.0,0.0,0.0,0.0,0.0,0.0,0.0,0.0,0.0,1.2461,1.1508,1.0671,1.0084,0.9286,0.8514,0.0,0.0,0.0,0.0,0.0,0.0,0.0,0.0,0.0,0.0,0.0,0.0,0.0,0.0,0.0,0.0,0.0,0.0,0.0,0.0,0.0,0.0,0.0,0.0,0.0,0.0,0.0,0.0,0.0,0.0,0.0,0.0,0.0,0.0,0.0,0.0,0.0,0.0,0.0,0.0,0.0,0.0,0.0,0.0,0.0,0.0,0.0,0.0,0.0,0.0,0.0,0.0,0.0,0.0,0.0,0.0,0.0,0.0,0.0,0.0,0.0,0.0,0.0,0.0,0.0,0.0,0.0,0.0,0.0,0.0,0.0,0.0,0.0,0.0,0.0,0.0,0.0,0.0,0.0,0.0,0.0,0.0,0.0,0.0,0.0,0.0,0.0,0.0,0.0,0.0,0.0,0.0,0.0,0.0,0.0,0.0,0.0,0.0,0.0,0.0,0.0,0.0,0.0,0.0,0.0,0.0,0.0,0.0,0.0,1.2398,1.1358,1.0473,0.9722,0.8887,0.8111,0.7397,0.0,0.0,0.0,0.0,0.0,0.0,0.0,0.0,0.0,0.0,0.0,0.0,0.0,0.0,0.0,0.0,0.0,0.0,0.0,0.0,0.0,0.0,0.0,0.0,0.0,0.0,0.0,0.0,0.0,0.0,0.0,0.0,0.0,0.0,0.0,0.0,0.0,0.0,0.0,0.0,0.0,0.0,0.0,0.0,0.0,0.0,0.0,0.0,0.0,0.0,0.0,0.0,0.0,0.0,0.0,0.0,0.0,0.0,0.0,0.0,0.0,0.0,0.0,0.0,0.0,0.0,0.0,0.0,0.0,0.0,0.0,0.0,0.0,0.0,0.0,0.0,0.0,0.0,0.0,0.0,0.0,0.0,0.0,0.0,0.0,0.0,0.0,0.0,0.0,0.0,0.0,0.0,0.0,0.0,0.0,0.0,0.0,0.0,0.0,0.0,0.0,0.0,0.0,0.0,0.0,0.0,0.0,0.0,1.2396,1.1438,1.037,0.925,0.8404,0.7671,0.0,0.0,0.0,0.0,0.0,0.0,0.0,0.0,0.0,0.0,0.0,0.0,0.0,0.0,0.0,0.0,0.0,0.0,0.0,0.0,0.0,0.0,0.0,0.0,0.0,0.0,0.0,0.0,0.0,0.0,0.0,0.0,0.0,0.0,0.0,0.0,0.0,0.0,0.0,0.0,0.0,0.0,0.0,0.0,0.0,0.0,0.0,0.0,0.0,0.0,0.0,0.0,0.0,0.0,0.0,0.0,0.0,0.0,0.0,0.0,0.0,0.0,0.0,0.0,0.0,0.0,0.0,0.0,0.0,0.0,0.0,0.0,0.0,0.0,0.0,0.0,0.0,0.0,0.0,0.0,0.0,0.0,0.0,0.0,0.0,0.0,0.0,0.0,0.0,0.0,0.0,0.0,0.0,0.0,0.0,0.0,0.0,0.0,0.0,0.0,0.0,0.0,0.0,0.0,0.0,0.0,0.0,0.0,0.0,1.3114,1.1798,1.0439,0.9098,0.8069,0.7287,0.0,0.0,0.0,0.0,0.0,0.0,0.0,0.0,0.0,0.0,0.0,0.0,0.0,0.0,0.0,0.0,0.0,0.0,0.0,0.0,0.0,0.0,0.0,0.0,0.0,0.0,0.0,0.0,0.0,0.0,0.0,0.0,0.0,0.0,0.0,0.0,0.0,0.0,0.0,0.0,0.0,0.0,0.0,0.0,0.0,0.0,0.0,0.0,0.0,0.0,0.0,0.0,0.0,0.0,0.0,0.0,0.0,0.0,0.0,0.0,0.0,0.0,0.0,0.0,0.0,0.0,0.0,0.0,0.0,0.0,0.0,0.0,0.0,0.0,0.0,0.0,0.0,0.0,0.0,0.0,0.0,0.0,0.0,0.0,0.0,0.0,0.0,0.0,0.0,0.0,0.0,0.0,0.0,0.0,0.0,0.0,0.0,0.0,0.0,0.0,0.0,0.0,0.0,0.0,0.0,0.0,0.0,0.0,1.4775,1.343,1.1986,1.0586,0.9165,0.7854,0.6902,0.0,0.0,0.0,0.0,0.0,0.0,0.0,0.0,0.0,0.0,0.0,0.0,0.0,0.0,0.0,0.0,0.0,0.0,0.0,0.0,0.0,0.0,0.0,0.0,0.0,0.0,0.0,0.0,0.0,0.0,0.0,0.0,0.0,0.0,0.0,0.0,0.0,0.0,0.0,0.0,0.0,0.0,0.0,0.0,0.0,0.0,0.0,0.0,0.0,0.0,0.0,0.0,0.0,0.0,0.0,0.0,0.0,0.0,0.0,0.0,0.0,0.0,0.0,0.0,0.0,0.0,0.0,0.0,0.0,0.0,0.0,0.0,0.0,0.0,0.0,0.0,0.0,0.0,0.0,0.0,0.0,0.0,0.0,0.0,0.0,0.0,0.0,0.0,0.0,0.0,0.0,0.0,0.0,0.0,0.0,0.0,0.0,0.0,0.0,0.0,0.0,0.0,0.0,0.0,0.0,0.0,0.0,0.0,1.4916,1.3473,1.2005,1.0601,0.9296,0.7608,0.6517,0.0,0.0,0.0,0.0,0.0,0.0,0.0,0.0,0.0,0.0,0.0,0.0,0.0,0.0,0.0,0.0,0.0,0.0,0.0,0.0,0.0,0.0,0.0,0.0,0.0,0.0,0.0,0.0,0.0,0.0,0.0,0.0,0.0,0.0,0.0,0.0,0.0,0.0,0.0,0.0,0.0,0.0,0.0,0.0,0.0,0.0,0.0,0.0,0.0,0.0,0.0,0.0,0.0,0.0,0.0,0.0,0.0,0.0,0.0,0.0,0.0,0.0,0.0,0.0,0.0,0.0,0.0,0.0,0.0,0.0,0.0,0.0,0.0,0.0,0.0,0.0,0.0,0.0,0.0,0.0,0.0,0.0,0.0,0.0,0.0,0.0,0.0,0.0,0.0,0.0,0.0,0.0,0.0,0.0,0.0,0.0,0.0,0.0,0.0,0.0,0.0,0.0,0.0,0.0,0.0,0.0,0.0,0.0,1.4698,1.3611,1.1695,1.0232,0.9251,0.7325,0.6245,0.0,0.0,0.0,0.0,0.0,0.0,0.0,0.0,0.0,0.0,0.0,0.0,0.0,0.0,0.0,0.0,0.0,0.0,0.0,0.0,0.0,0.0,0.0,0.0,0.0,0.0,0.0,0.0,0.0,0.0,0.0,0.0,0.0,0.0,0.0,0.0,0.0,0.0,0.0,0.0,0.0,0.0,0.0,0.0,0.0,0.0,0.0,0.0,0.8636,0.0,0.0,0.0,0.0,0.0,0.0,0.0,0.0,0.0,0.0,0.0,0.0,0.0,0.0,0.0,0.0,0.0,0.0,0.0,0.0,0.0,0.0,0.0,0.0,0.0,0.0,0.0,0.0,0.0,0.0,0.0,0.0,0.0,0.0,0.0,0.0,0.0,0.0,0.0,0.0,0.0,0.0,0.0,0.0,0.0,0.0,0.0,0.0,0.0,0.0,0.0,0.0,0.0,0.0,0.0,0.0,0.0,0.0,0.0,1.474,1.3692,1.1773,1.0312,0.9377,0.7316,0.5978,0.0,0.0,0.0,0.0,0.0,0.0,0.0,0.0,0.0,0.0,0.0,0.0,0.0,0.0,0.0,0.0,0.0,0.0,0.0,0.0,0.0,0.0,0.0,0.0,0.0,0.0,0.0,0.0,0.0,0.0,0.0,0.0,0.0,0.0,0.0,0.0,0.0,0.0,0.0,0.0,0.0,0.0,0.0,0.0,0.0,0.0,0.0,0.0,0.0,0.0,0.0,0.0,0.0,0.0,0.0,0.0,0.0,0.0,0.0,0.0,0.0,0.0,0.0,0.0,0.0,0.0,0.0,0.0,0.0,0.0,0.0,0.0,0.0,0.0,0.0,0.0,0.0,0.0,0.0,0.0,0.0,0.0,0.0,0.0,0.0,0.0,0.0,0.0,0.0,0.0,0.0,0.0,0.0,0.0,0.0,0.0,0.0,0.0,0.0,0.0,0.0,0.0,0.0,0.0,0.0,0.0,0.0,1.5602,1.4677,1.3623,1.1803,1.0362,0.9481,0.7293,0.5787,0.5165,0.0,0.0,0.0,0.0,0.0,0.0,0.0,0.0,0.0,0.0,0.0,0.0,0.0,0.0,0.0,0.0,0.0,0.0,0.0,0.0,0.0,0.0,0.0,0.0,0.0,0.0,0.0,0.0,0.0,0.0,0.0,0.0,0.0,0.0,0.0,0.0,0.0,0.0,1.4835,1.3811,0.0,0.0,0.0,0.0,0.0,0.0,0.0,0.0,0.9494,0.0,0.0,0.0,0.0,0.0,0.0,0.0,0.0,0.0,0.0,0.0,0.0,0.0,0.0,0.0,0.0,0.0,0.0,0.0,0.0,0.0,0.0,0.0,0.0,0.0,0.0,0.0,0.0,0.0,0.0,0.0,0.0,0.0,0.0,0.0,0.0,0.0,0.0,0.0,0.0,0.0,0.0,0.0,0.0,0.0,0.0,0.0,0.0,0.0,0.0,0.0,0.0,0.0,0.0,0.0,0.0,1.6648,1.5047,1.399,1.3455,1.1084,0.9563,0.8981,0.7098,0.5869,0.534,0.0,0.0,0.0,0.0,0.0,0.0,0.0,0.0,0.0,0.0,0.0,0.0,0.0,0.0,0.0,0.0,0.0,0.0,0.0,0.0,0.0,0.0,0.0,0.0,0.0,0.0,0.0,0.0,0.0,0.0,0.0,0.0,0.0,0.0,0.0,0.0,0.0,0.0,0.0,1.4163,1.3573,0.0,0.0,0.0,0.0,0.0,0.0,0.0,0.0,0.942,0.0,0.0,0.0,0.0,0.0,0.0,0.0,0.0,0.0,0.0,0.0,0.0,0.0,0.0,0.0,0.0,0.0,0.0,0.0,0.0,0.0,0.0,0.0,0.0,0.0,0.0,0.0,0.0,0.0,0.0,0.0,0.0,0.0,0.0,0.0,0.0,0.0,0.0,0.0,0.0,0.0,0.0,0.0,0.0,0.0,0.0,0.0,0.0,0.0,0.0,0.0,0.0,0.0,0.0,0.0,1.6632,1.5171,1.4048,1.3392,1.1365,0.9893,0.9061,0.7698,0.6557,0.0,0.0,0.0,0.0,0.0,0.0,0.0,0.0,0.0,0.0,0.0,0.0,0.0,0.0,0.0,0.0,0.0,0.0,0.0,0.0,0.0,0.0,0.0,0.0,0.0,0.0,0.0,0.0,0.0,0.0,0.0,0.0,0.0,0.0,0.0,0.0,0.0,0.0,0.0,0.0,1.4557,1.4165,1.3936,0.0,0.0,0.0,0.0,0.0,0.0,1.0074,0.9786,0.0,0.0,0.0,0.0,0.0,0.0,0.0,0.0,0.0,0.0,0.0,0.0,0.0,0.0,0.0,0.0,0.0,0.0,0.0,0.0,0.0,0.0,0.0,0.0,0.0,0.0,0.0,0.0,0.0,0.0,0.0,0.0,0.0,0.0,0.0,0.0,0.0,0.0,0.0,0.0,0.0,0.0,0.0,0.0,0.0,0.0,0.0,0.0,0.0,0.0,0.0,0.0,0.0,0.0,0.0,1.6681,1.5428,1.4342,1.3385,1.1835,1.0413,0.9231,0.8281,0.7218,0.0,0.0,0.0,0.0,0.0,0.0,0.0,0.0,0.0,0.0,0.0,0.0,0.0,0.0,0.0,0.0,0.0,0.0,0.0,0.0,0.0,0.0,0.0,0.0,0.0,0.0,0.0,0.0,0.0,0.0,0.0,0.0,0.0,0.0,0.0,0.0,0.0,0.0,0.0,0.0,0.0,1.4746,1.4512,1.4133,0.0,0.0,0.0,0.0,1.1261,1.0762,0.0,0.0,0.0,0.0,0.0,0.0,0.0,0.0,0.0,0.0,0.0,0.0,0.0,0.0,0.0,0.0,0.0,0.0,0.0,0.0,0.0,0.0,0.0,0.0,0.0,0.0,0.0,0.0,0.0,0.0,0.0,0.0,0.0,0.0,0.0,0.0,0.0,0.0,0.0,0.0,0.0,0.0,0.0,0.0,0.0,0.0,0.0,0.0,0.0,0.0,0.0,0.0,0.0,0.0,0.0,0.0,1.6689,1.5602,1.4517,1.3379,1.1851,1.0434,0.9222,0.8295,0.7366,0.0,0.0,0.0,0.0,0.0,0.0,0.0,0.0,0.0,0.0,0.0,0.0,0.0,0.0,0.0,0.0,0.0,0.0,0.0,0.0,0.0,0.0,0.0,0.0,0.0,0.0,0.0,0.0,0.0,0.0,0.0,0.0,0.0,0.0,0.0,0.0,0.0,0.0,0.0,0.0,0.0,1.5501,1.508,1.4946,1.4673,0.0,0.0,1.2984,1.2047,1.2035,0.0,0.0,0.0,0.0,0.0,0.0,0.0,0.0,0.0,0.0,0.0,0.0,0.0,0.0,0.0,0.0,0.0,0.0,0.0,0.0,0.0,0.0,0.0,0.0,0.0,0.0,0.0,0.0,0.0,0.0,0.0,0.0,0.0,0.0,0.0,0.0,0.0,0.0,0.0,0.0,0.0,0.0,0.0,0.0,0.0,0.0,0.0,0.0,0.0,0.0,0.0,0.0,0.0,0.0,0.0,1.8193,1.7106,1.6139,1.5088,1.3971,1.2403,1.1043,1.0014,0.911,0.8172,0.0,0.0,0.0,0.0,0.0,0.0,0.0,0.0,0.0,0.0,0.0,0.0,0.0,0.0,0.0,0.0,0.0,0.0,0.0,0.0,0.0,0.0,0.0,0.0,0.0,0.0,0.0,0.0,0.0,0.0,0.0,0.0,0.0,0.0,0.0,0.0,0.0,0.0,0.0,0.0,0.0,0.0,1.6016,1.575,0.0,0.0,0.0,1.3536,1.2757,0.0,0.0,0.0,0.0,0.0,0.0,0.0,0.0,0.0,0.0,0.0,0.0,0.0,0.0,0.0,0.0,0.0,0.0,0.0,0.0,0.0,0.0,0.0,0.0,0.0,0.0,0.0,0.0,0.0,0.0,0.0,0.0,0.0,0.0,0.0,0.0,0.0,0.0,0.0,0.0,0.0,0.0,0.0,0.0,0.0,0.0,0.0,0.0,0.0,0.0,0.0,0.0,0.0,0.0,0.0,0.0,0.0,1.7473,1.6755,1.5715,1.4324,1.3004,1.1762,1.0619,0.9843,0.0,0.0,0.0,0.0,0.0,0.0,0.0,0.0,0.0,0.0,0.0,0.0,0.0,0.0,0.0,0.0,0.0,0.0,0.0,0.0,0.0,0.0,0.0,0.0,0.0,0.0,0.0,1.404,0.0,0.0,0.0,0.0,0.0,0.0,0.0,0.0,0.0,0.0,0.0,0.0,0.0,0.0,1.7174,1.7058,1.6623,1.6024,0.0,0.0,1.4135,1.34,1.3188,1.3117,0.0,0.0,0.0,0.0,0.0,0.0,0.0,0.0,0.0,0.0,0.0,0.0,0.0,0.0,0.0,0.0,0.0,0.0,0.0,0.0,0.0,0.0,0.0,0.0,0.0,0.0,0.0,0.0,0.0,0.0,0.0,0.0,0.0,0.0,0.0,0.0,0.0,0.0,0.0,0.0,0.0,0.0,0.0,0.0,0.0,0.0,0.0,0.0,0.0,0.0,0.0,0.0,0.0,0.0,0.0,1.774,1.744,1.6263,1.4103,1.3487,1.2332,1.0562,1.0015,0.938,0.0,0.0,0.0,0.0,0.0,0.0,0.0,0.0,0.0,0.0,0.0,0.0,0.0,0.0,0.0,0.0,0.0,0.0,0.0,0.0,0.0,0.0,0.0,0.0,0.0,0.0,0.0,0.0,0.0,0.0,0.0,0.0,0.0,0.0,0.0,0.0,0.0,0.0,0.0,0.0,0.0,1.8432,1.7973,1.764,1.7132,0.0,0.0,1.5034,1.4021,1.4467,1.461,1.3614,0.0,0.0,0.0,0.0,0.0,0.0,0.0,0.0,0.0,0.0,0.0,0.0,0.0,0.0,0.0,0.0,0.0,0.0,0.0,0.0,0.0,0.0,0.0,0.0,0.0,0.0,0.0,0.0,0.0,0.0,0.0,0.0,0.0,0.0,0.0,0.0,0.0,0.0,0.0,0.0,0.0,0.0,0.0,0.0,0.0,0.0,0.0,0.0,0.0,0.0,0.0,0.0,0.0,1.9311,1.8336,1.8095,1.7065,1.524,1.4202,1.3081,1.1878,1.0933,1.0226,0.0,0.0,0.0,0.0,0.0,0.0,0.0,0.0,0.0,0.0,0.0,0.0,0.0,0.0,0.0,0.0,0.0,0.0,0.0,0.0,0.0,0.0,0.0,0.0,0.0,0.0,0.0,0.0,1.567,1.6126,1.705,0.0,0.0,0.0,0.0,0.0,0.0,0.0,0.0,0.0,0.0,1.9159,1.8969,1.8538,0.0,0.0,1.656,1.6045,1.5034,1.5122,1.5177,1.4569,1.4229,0.0,0.0,0.0,0.0,0.0,0.0,0.0,0.0,0.0,0.0,0.0,0.0,0.0,0.0,0.0,0.0,0.0,0.0,0.0,0.0,0.0,0.0,0.0,0.0,0.0,0.0,0.0,0.0,0.0,0.0,0.0,0.0,0.0,0.0,0.0,0.0,0.0,0.0,0.0,0.0,0.0,0.0,0.0,0.0,0.0,0.0,0.0,0.0,0.0,0.0,0.0,0.0,1.9824,1.9054,1.8696,1.7695,1.6086,1.4898,1.3871,1.3026,1.1954,1.1317,0.0,0.0,0.0,0.0,0.0,0.0,0.0,0.0,0.0,0.0,0.0,0.0,0.0,0.0,0.0,0.0,0.0,0.0,0.0,0.0,0.0,0.0,0.0,0.0,0.0,0.0,0.0,0.0,1.6101,1.6773,1.7925,0.0,0.0,0.0,0.0,0.0,0.0,0.0,0.0,0.0,0.0,1.9891,1.9713,1.9429,1.8792,1.779,1.7598,1.7139,1.6019,1.581,1.566,1.5136,0.0,0.0,0.0,0.0,0.0,0.0,0.0,0.0,0.0,0.0,0.0,0.0,0.0,0.0,0.0,0.0,0.0,0.0,0.0,0.0,0.0,0.0,0.0,0.0,0.0,0.0,0.0,0.0,0.0,0.0,1.2962,0.0,0.0,0.0,0.0,0.0,0.0,0.0,0.0,0.0,0.0,0.0,0.0,0.0,0.0,0.0,0.0,0.0,0.0,0.0,0.0,0.0,0.0,2.0537,1.9904,1.9244,1.8136,1.6458,1.5536,1.4636,1.3724,1.3089,1.2662,1.2484,0.0,0.0,0.0,0.0,0.0,0.0,0.0,0.0,0.0,0.0,0.0,0.0,0.0,0.0,0.0,0.0,0.0,0.0,0.0,0.0,0.0,0.0,0.0,0.0,0.0,0.0,1.6339,1.7066,1.7976,0.0,0.0,0.0,0.0,0.0,0.0,0.0,0.0,0.0,0.0,2.0294,2.058,2.0273,2.0257,1.999,1.9203,1.8867,1.8307,1.6933,1.6655,1.6209,0.0,0.0,0.0,0.0,0.0,0.0,0.0,0.0,0.0,0.0,0.0,0.0,0.0,0.0,0.0,0.0,0.0,0.0,0.0,0.0,0.0,0.0,0.0,0.0,0.0,0.0,0.0,1.1734,1.2613,0.0,0.0,0.0,0.0,0.0,0.0,0.0,0.0,0.0,0.0,0.0,2.032,2.0838,0.0,0.0,0.0,0.0,0.0,0.0,0.0,0.0,0.0,0.0,0.0,0.0,2.0809,2.0157,1.924,1.8258,1.7157,1.6113,1.5231,1.4525,1.432,1.4124,1.3888,0.0,0.0,0.0,0.0,0.0,0.0,0.0,0.0,0.0,0.0,0.0,0.0,0.0,0.0,0.0,0.0,0.0,0.0,0.0,0.0,0.0,0.0,0.0,0.0,0.0,1.6373,0.0,0.0,0.0,0.0,0.0,0.0,0.0,0.0,0.0,0.0,0.0,2.0419,2.1084,2.126,2.1405,2.15,2.1405,2.1105,0.0,0.0,0.0,0.0,0.0,0.0,0.0,0.0,0.0,0.0,0.0,0.0,0.0,0.0,1.5041,1.4237,1.4062,1.4062,1.4062,0.0,0.0,0.0,0.0,0.0,0.0,0.0,0.0,0.0,0.0,0.0,0.0,0.0,0.0,1.3079,0.0,1.4747,0.0,0.0,0.0,0.0,0.0,0.0,0.0,0.0,1.9789,2.0541,2.1391,2.19,2.2415,0.0,2.288,2.274,0.0,0.0,0.0,0.0,0.0,0.0,0.0,0.0,2.0818,2.0297,1.9231,1.8368,1.7697,1.6558,1.5799,1.5394,1.5243,1.5066,1.4797,1.3785,1.3198,0.0,0.0,0.0,0.0,0.0,0.0,0.0,0.0,0.0,0.0,0.0,0.0,0.0,0.0,0.0,0.0,0.0,0.0,0.0,0.0,0.0,0.0,0.0,1.7435,0.0,0.0,0.0,0.0,0.0,0.0,0.0,0.0,0.0,2.0994,2.0846,2.0995,2.1844,2.1855,2.1808,2.2019,0.0,0.0,0.0,0.0,0.0,0.0,0.0,1.8324,1.7121,1.6809,1.6923,1.7472,1.7652,1.756,1.7236,0.0,0.0,1.4985,1.4768,1.4734,1.465,1.4237,1.3766,1.3548,1.314,1.2654,0.0,0.0,0.0,0.0,0.0,0.0,0.0,0.0,1.2993,1.4002,0.0,1.5828,0.0,0.0,0.0,0.0,0.0,1.9324,0.0,0.0,2.0576,2.1136,2.1645,2.2397,2.2948,2.332,2.3161,2.3446,2.4105,2.3064,0.0,0.0,0.0,0.0,0.0,0.0,2.063,2.0416,1.933,1.8547,1.8131,1.6973,1.6356,1.6328,1.5978,1.5626,1.5178,1.465,1.4109,1.3579,1.3506,0.0,0.0,0.0,0.0,0.0,0.0,0.0,0.0,0.0,0.0,0.0,0.0,0.0,0.0,0.0,0.0,0.0,0.0,0.0,0.0,1.8369,0.0,0.0,0.0,0.0,0.0,0.0,0.0,0.0,0.0,0.0,2.1586,2.1588,2.1739,2.2113,0.0,0.0,0.0,0.0,2.196,2.1987,2.2256,2.1948,2.046,1.9958,1.9243,1.78,0.0,0.0,1.8237,1.8278,1.8221,1.8213,1.7911,1.7245,1.5737,1.5462,1.5401,1.5208,1.4908,1.4643,1.4448,1.3952,1.352,1.083,0.0,0.0,0.0,0.0,1.2903,1.3944,1.481,1.5749,1.6457,1.7191,1.7715,0.0,0.0,0.0,0.0,0.0,0.0,2.0602,2.1273,2.1774,2.2552,2.352,2.3893,2.4269,2.462,2.4397,2.4334,2.4394,2.3991,2.3745,2.3634,0.0,0.0,0.0,0.0,2.1174,2.0896,1.9702,1.9058,1.9054,1.7903,1.7298,1.7306,1.7359,1.7206,1.6759,1.6187,1.5629,1.5072,1.4229,0.0,0.0,0.0,0.0,0.0,0.0,0.0,0.0,0.0,0.0,0.0,0.0,0.0,0.0,0.0,0.0,0.0,0.0,0.0,1.9118,1.9631,1.9987,0.0,0.0,0.0,0.0,0.0,0.0,0.0,0.0,0.0,2.3793,2.2785,2.2298,0.0,0.0,2.2847,2.3063,2.3332,2.3515,2.361,2.367,0.0,0.0,2.0955,2.0057,1.8798,1.8532,1.8556,1.8692,1.8823,1.8878,1.8721,1.8288,1.7664,1.7005,1.6555,1.6255,1.6072,1.5609,1.5107,1.4808,1.4361,1.3877,1.2953,1.1901,1.176,1.2296,1.3307,1.4411,1.5466,1.6426,1.724,1.7919,1.8486,1.9059,1.9614,2.0105,2.0558,0.0,0.0,0.0,2.1541,2.1947,2.2643,2.3367,2.4131,2.4425,2.4759,2.5128,2.4979,2.4921,2.4945,2.4871,2.4836,2.4826,0.0,0.0,2.2948,2.1857,2.1251,2.1037,1.9865,1.9288,1.9346,1.848,1.8027,1.8011,1.8251,1.8207,1.7848,1.7429,1.6937,1.6402,1.561,1.5411,0.0,0.0,0.0,0.0,0.0,0.0,0.0,0.0,0.0,0.0,0.0,1.8383,0.0,0.0,0.0,0.0,1.9879,2.0252,2.0544,2.0819,0.0,0.0,0.0,0.0,0.0,0.0,0.0,2.3448,2.3841,2.4361,2.5156,2.4438,2.398,2.4391,2.3843,2.3598,2.4202,0.0,2.4181,2.4341,2.4232,2.3662,2.2448,2.1662,2.0827,1.9706,1.9383,1.9264,1.92,1.9223,1.9182,1.9083,1.8753,1.8351,1.7887,1.7497,1.6983,1.6333,1.5828,1.5398,1.4996,1.4626,1.4258,1.4856,1.4388,1.3673,1.41,1.5194,1.5751,1.656,1.749,1.8016,1.8654,1.943,2.0023,2.0775,2.1596,2.203,0.0,2.2009,2.233,2.2408,2.2267,2.3209,2.374,2.3959,2.4335,2.4707,2.5087,2.4992,2.5133,2.5533,2.5533,2.5662,2.58,2.4004,2.3015,2.2762,2.1763,2.1135,2.0999,1.9977,1.9441,1.9375,1.8867,1.8643,1.8576,1.8808,1.8808,1.861,1.8428,1.808,1.7541,1.7322,1.7235,1.7273,0.0,0.0,0.0,0.0,0.0,0.0,0.0,0.0,0.0,0.0,0.0,0.0,0.0,0.0,0.0,2.0439,0.0,2.1941,2.1949,0.0,0.0,0.0,2.2661,2.3245,2.3472,2.3851,2.453,0.0,0.0,2.5941,2.6159,2.6237,2.6023,2.4818,2.4275,2.508,2.4652,2.4361,2.4595,2.4168,2.3598,2.2839,2.2181,2.1451,2.0498,2.0137,1.9921,1.9743,1.9576,1.9429,1.9374,1.9335,1.91,1.8475,1.8157,1.7646,1.6261,1.5849,1.5551,1.5211,1.4927,1.4711,1.598,1.6062,1.5818,1.5866,1.6048,1.7257,1.8149,1.8804,1.9683,2.0378,2.0898,2.1212,2.195,2.3038,2.323,2.3399,2.3567,2.3229,2.3212,2.3476,2.3724,2.4116,2.455,2.4437,2.4527,2.4848,2.4449,2.4563,2.5203,2.5078,2.5135,2.537,2.4427,2.3916,2.3859,2.2611,2.1925,2.1862,2.1103,2.042,1.9933,1.977,1.9616,1.9341,1.9666,1.971,1.9353,1.95,1.9274,1.8646,1.8443,1.8379,1.8536,1.8647,0.0,0.0,0.0,0.0,0.0,0.0,0.0,0.0,0.0,2.0133,2.0216,0.0,2.0906,0.0,2.1708,2.2429,2.3121,2.2927,0.0,0.0,2.3015,2.3203,2.4009,2.4146,2.4602,2.5592,2.6292,2.6605,2.6446,2.6512,2.6677,2.6819,2.6047,2.5336,2.5162,2.5198,2.5204,2.5183,2.4773,2.4284,2.3651,2.2717,2.174,2.0886,2.0712,2.0595,2.0411,2.0333,2.0188,1.9841,1.9612,1.9222,1.8504,1.8053,1.7569,1.6821,1.6482,1.6195,1.5835,1.551,1.5262,1.7271,1.7466,1.7885,1.8056,1.8041,1.828,1.8804,1.9592,2.069,2.1499,2.2059,2.2545,2.3114,2.3647,2.3701,2.3707,2.3587,2.3491,2.3621,2.391,2.4095,2.4326,2.4672,2.4467,2.4444,2.4527,2.4312,2.4435,2.4818,2.4863,2.4996,2.5148,2.4566,2.4291,2.4266,2.3127,2.2555,2.2604,2.1982,2.1459,2.1005,2.0985,2.089,2.0613,2.0892,2.0903,2.0634,2.0762,2.0642,2.0182,1.9993,1.9961,2.0063,2.0069,2.0637,0.0,0.0,0.0,0.0,0.0,0.0,0.0,0.0,0.0,0.0,0.0,2.2024,2.2708,2.3302,2.3876,2.4391,2.4182,2.4009,2.3961,2.39,2.4175,2.4876,2.4988,2.5379,2.6281,2.6752,2.6986,2.6809,2.6857,2.6898,2.6888,2.6547,2.6227,2.6006,2.5777,2.5553,2.5594,2.5031,2.431,2.3785,2.295,2.2214,2.1672,2.1328,2.1108,2.1031,2.0799,2.0517,2.0359,2.0011,1.953,1.8856,1.8404,1.7944,1.7511,1.7203,1.6811,1.6266,1.5999,1.5815,1.8665,1.8703,1.96,2.0102,2.0294,1.9247,1.9347,2.0257,2.141,2.2262,2.294,2.3849,2.4093,2.3867,2.3894,2.3656,2.3255,2.3556,2.3824,2.4007,2.4406,2.4567,2.4496,2.4514,2.4402,2.4197,2.433,2.4427,2.4566,2.4791,2.4919,2.4957,2.4643,2.4453,2.4364,2.3571,2.3138,2.3108,2.2689,2.239,2.2206,2.2206,2.2144,2.2063,2.2175,2.2175,2.2082,2.2063,2.2002,2.1834,2.171,2.1628,2.1639,2.1608,2.1906,0.0,2.2635,0.0,0.0,0.0,0.0,0.0,0.0,0.0,0.0,2.2663,2.3382,2.4649,2.5004,2.5314,2.5634,2.5481,2.5194,2.4731,2.4921,2.5276,2.5672,2.5811,2.6082,2.668,2.7019,2.7186,2.6978,2.7121,2.7067,2.6702,2.6695,2.678,2.6962,2.6262,2.57,2.5814,2.5002,2.4273,2.3727,2.3235,2.2889,2.2628,2.2225,2.1769,2.1731,2.13,2.0914,2.0919,2.0494,1.9927,1.9459,1.9006,1.8532,1.8144,1.7935,1.748,1.67,1.6447,1.6481,1.992,1.9965,2.0155,2.0365,2.0557,2.0917,2.1293,2.1731,2.2476,2.3026,2.3362,2.4283,2.4442,2.4084,2.4327,2.4395,2.4272,2.4308,2.4345,2.4418,2.4933,2.4918,2.4506,2.4607,2.4496,2.418,2.3801,2.4015,2.4805,2.4504,2.4535,2.4896,2.4836,2.4717,2.4464,0.0,0.0,0.0,2.3017,2.2902,2.2768,2.2738,2.2798,2.2877,2.2907,0.0,2.3015,2.2937,2.2895,2.2972,2.2942,0.0,0.0,0.0,0.0,0.0,0.0,0.0,0.0,0.0,0.0,0.0,2.3701,2.3356,2.3308,2.4454,2.544,2.5983,2.6092,2.6223,2.6439,2.6039,2.5861,2.6,2.5849,2.5895,2.6336,2.6299,2.6395,2.6809,2.7185,2.7187,2.6865,2.7165,2.731,2.6964,2.6801,2.6864,2.7138,2.6492,2.6039,2.5963,2.532,2.474,2.4491,2.4227,2.3936,2.3677,2.3409,2.3075,2.274,2.2478,2.2083,2.1676,2.113,2.064,2.0066,1.9442,1.8951,1.8694,1.8506,1.8124,1.7339,1.7088,1.6975,2.0744,0.0,2.1221,2.1606,0.0,2.278,2.328,2.3647,2.3647,2.3825,2.4147,2.4949,2.489,2.4199,2.4581,2.4633,2.442,2.4581,2.4742,2.4897,2.5276,2.5302,2.505,2.5013,2.4811,2.4418,2.3974,2.4053,2.458,2.4355,2.4458,2.4829,2.4829,2.4829,2.4736,2.485,2.4578,2.3956,2.3881,2.3796,2.3738,2.3725,2.3767,2.38,0.0,0.0,0.0,0.0,0.0,0.0,0.0,0.0,0.0,0.0,0.0,2.4514,2.422,2.4354,2.5041,2.4622,2.4572,2.5157,2.5167,2.5001,2.4664,2.5903,2.6902,2.7319,2.7207,2.719,2.7404,2.7139,2.6905,2.6748,2.6667,2.6848,2.707,2.6864,2.6791,2.7099,2.7197,2.7077,2.6734,2.7023,2.7181,2.7028,2.6909,2.693,2.7012,2.648,2.5972,2.5864,2.5369,2.5011,2.4968,2.4614,2.4377,2.4181,2.3934,2.3714,2.3593,2.3324,2.3062,2.2761,2.2248,2.1591,2.1045,2.0343,1.9781,1.9524,1.9419,1.9294,1.8865,1.8296,1.7818,2.1624,2.1865,2.2448,2.3139,2.3844,2.4402,2.4967,2.5454,0.0,0.0,0.0,2.5556,2.5256,2.4382,2.4771,2.4763,2.4442,2.4849,2.5194,2.5488,2.5734,2.5797,2.5698,2.5563,2.5249,2.4832,2.4406,2.4292,2.4452,2.4343,2.45,2.4878,2.4825,2.4924,2.5188,2.5202,2.5146,2.5033,2.4791,2.4692,2.475,2.475,2.4736,2.4794,2.4907,2.4935,2.4794,2.5021,2.5077,2.4908,2.5077,2.5161,2.5161,2.4992,2.4992,2.5189,2.516,2.5201,2.5339,2.5215,2.5377,2.5875,2.6571,2.6752,2.6241,2.7129,2.7967,2.8607,2.8404,2.8318,2.8415,2.8331,2.7967,2.7273,2.7449,2.7652,2.7803,2.743,2.7272,2.7515,2.7374,2.7113,2.7032,2.7146,2.7214,2.7281,2.7315,2.7201,2.71,2.6627,2.6134,2.598,2.5608,2.5271,2.5375,2.4972,2.4587,2.4838,2.4611,2.4358,2.437,2.4177,2.3986,2.3815,2.3351,2.2793,2.2205,2.152,2.0875,2.0565,2.0467,2.0483,2.0339,1.966,1.9006,2.34,2.3497,2.3747,2.4274,2.4978,2.5242,2.5841,2.6633,2.6102,2.5698,2.534,2.5796,2.5434,2.4497,2.5004,2.5194,2.517,2.5746,2.6025,0.0,2.6564,2.6557,2.612,2.6136,2.5853,2.5316,2.4874,2.4835,2.4979,2.4434,2.4558,2.5259,2.4996,2.52,2.5878,2.5948,2.5948,2.5921,2.5258,2.5048,2.5273,2.53,2.5481,2.5866,2.5784,2.5784,2.5866,2.5797,2.5743,2.5729,2.5757,2.577,2.577,2.5743,2.5811,2.5907,2.5839,2.6035,2.6638,2.6147,2.6022,2.6651,2.7976,2.8474,2.78,2.8248,2.8901,2.9533,2.9767,2.9815,2.9369,2.904,2.8592,2.806,2.798,2.802,2.808,2.7868,2.7795,2.8014,2.7822,2.7769,2.7868,2.7914,2.8046,2.8262,2.8183,2.8045,2.7815,2.7289,2.6875,2.6731,2.6223,2.6034,2.6285,2.5899,2.5629,2.6064,2.5943,2.5664,2.5394,2.5347,2.5038,2.426,2.4199,2.4029,2.3554,2.2885,2.2315,2.2031,2.1657,2.1225,2.101,2.0768,2.0543,2.3963,2.4049,2.4595,2.5115,2.5547,2.6299,2.6739,2.703,2.7035,2.6528,2.577,2.5861,2.5545,2.5004,2.543,2.5676,2.5804,2.6255,2.6543,2.6641,2.6806,2.6844,2.6673,2.6333,2.6042,2.5774,2.5447,2.5384,2.5564,2.5368,2.5598,2.6109,2.6091,2.6184,2.6404,2.6433,2.6392,2.6312,2.577,2.5578,2.5756,2.5783,2.5947,2.6312,2.6338,2.6365,2.6433,2.6618,2.6698,2.6604,2.6736,2.6841,2.68,2.6657,2.6671,2.6791,2.6606,2.6683,2.7076,2.7455,2.7932,2.8666,2.929,2.974,2.9806,2.9529,2.9575,3.0109,2.9969,2.9778,2.9607,2.9296,2.895,2.8692,2.8651,2.8683,2.8734,2.8605,2.8541,2.8619,2.8587,2.8541,2.8619,2.8702,2.8798,2.8944,2.8949,2.8876,2.8812,2.8538,2.8111,2.7537,2.6941,2.6797,2.7046,2.6624,2.6401,2.668,2.6667,2.6496,2.6255,2.6289,2.6083,2.562,2.5327,2.5077,2.4756,2.3729,2.3111,2.2991,2.2591,2.2146,2.2083,2.2031,2.1601,2.4606,2.4744,2.5537,2.6038,2.634,2.7267,2.7524,2.7379,2.7661,2.725,2.6496,2.6176,2.5937,2.5711,2.5936,2.6258,2.6573,2.6811,2.6982,2.7116,2.7122,2.7098,2.7055,2.651,2.6251,2.6224,2.5939,2.5866,2.6028,2.6142,2.6321,2.6596,2.6986,2.706,2.6878,2.6904,2.6878,2.6837,2.6537,2.6338,2.6313,2.6313,2.6418,2.6695,2.6788,2.6841,2.6904,2.7218,2.7386,2.7361,2.7534,2.766,2.7685,2.7534,2.7499,2.7554,2.7535,2.7606,2.7888,2.8886,2.9776,3.0363,3.0444,3.064,3.0995,3.0585,3.0342,3.0633,3.033,3.0033,3.0049,2.9771,2.9473,2.9348,2.932,2.9369,2.9435,2.9401,2.9338,2.9352,2.9369,2.9387,2.9369,2.9449,2.9546,2.967,2.9687,2.9735,2.9813,2.9752,2.9205,2.8552,2.7867,2.7618,2.7801,2.7366,2.7143,2.7385,2.7443,2.7276,2.7095,2.7064,2.6969,2.6652,2.6136,2.5792,2.569,2.4702,2.3904,2.3885,2.3493,2.3207,2.3306,2.3082,2.2543,2.6135,2.6426,2.6816,2.7319,2.7708,2.8007,2.8122,2.8093,2.799,2.7929,2.7672,2.7151,2.6897,2.6812,2.6639,2.6954,2.7584,2.7544,2.7539,2.7575,2.7834,2.7704,2.7184,2.6843,2.6722,2.6666,2.6257,2.6218,2.6402,2.6107,2.6035,2.6301,2.6999,2.7408,2.7429,2.7494,2.7645,2.7953,2.7815,2.7454,2.6963,2.6925,2.7041,2.731,2.7207,2.7269,2.7509,2.7437,2.7488,2.7715,2.7845,2.7889,2.7929,2.8085,2.8189,2.8198,2.8686,2.92,2.9731,3.0421,3.0791,3.0817,3.1274,3.1279,3.079,3.1065,3.1397,3.1521,3.1743,3.1446,3.1131,3.0848,3.0517,3.0095,3.0038,3.0007,3.0068,3.0129,3.0129,3.0007,3.0192,3.0297,3.0099,3.0146,3.0328,3.0598,3.0524,3.0554,3.0703,3.0434,3.0147,2.9862,2.9024,2.8588,2.8934,2.8345,2.8125,2.8657,2.8651,2.8274,2.7939,2.7541,2.7272,2.6944,2.654,2.6246,2.6166,2.5629,2.5116,2.4769,2.4465,2.4154,2.4271,2.4018,2.3343,2.6685,2.6839,2.7534,2.8235,2.8861,2.8684,2.8573,2.8568,2.8288,2.8122,2.799,2.7829,2.7686,2.7604,2.7577,2.7769,2.7999,2.8396,2.827,2.7799,2.8085,2.7893,2.7229,2.6804,2.6588,2.6548,2.6601,2.6683,2.6823,2.7049,2.7393,2.7725,2.813,2.8238,2.8125,2.8198,2.828,2.8343,2.8295,2.8174,2.8042,2.7934,2.7968,2.8125,2.8125,2.8125,2.8247,2.8247,2.835,2.8446,2.855,2.8808,2.9237,2.9228,2.939,2.9813,2.9958,3.033,3.1078,3.1323,3.1597,3.1997,3.2275,3.2235,3.1977,3.2078,3.2142,3.2071,3.1827,3.1481,3.117,3.1051,3.0964,3.091,3.0837,3.0881,3.1029,3.1014,3.0999,3.0955,3.0999,3.1058,3.0984,3.1043,3.1234,3.1437,3.1408,3.1437,3.1538,3.135,3.1263,3.1175,3.0617,3.0069,2.9938,2.9487,2.9366,2.9521,2.9495,2.9129,2.8512,2.8243,2.791,2.7216,2.6797,2.6681,2.6936,2.6116,2.5473,2.532,2.4909,2.4516,2.4841,2.4753,2.4352,2.736,2.7522,2.8315,2.9172,2.9807,2.9227,2.9041,2.9051,2.8677,2.8485,2.8509,2.8707,2.8789,2.8734,2.8516,2.839,2.8505,2.9158,2.9002,2.8211,2.8655,2.8523,2.7803,2.7287,2.7035,2.7035,2.7151,2.7295,2.7433,2.8024,2.8541,2.8787,2.8873,2.8818,2.874,2.8795,2.8834,2.885,2.8834,2.8889,2.9028,2.8989,2.8912,2.8795,2.8795,2.8842,2.8865,2.8951,2.902,2.9067,2.919,2.9474,2.9982,3.0054,3.0543,3.1367,3.1294,3.1532,3.2316,3.2301,3.2494,3.298,3.3032,3.2926,3.2732,3.2741,3.2617,3.2315,3.2069,3.1824,3.1379,3.1321,3.1451,3.168,3.161,3.1653,3.1838,3.1717,3.1554,3.1721,3.1598,3.1641,3.1719,3.1671,3.1665,3.2033,3.2135,3.2206,3.2221,3.2178,3.2135,3.2135,3.1908,3.1436,3.0748,3.0389,3.0388,3.0346,3.0182,2.9597,2.8933,2.8717,2.8371,2.7529,2.7045,2.6821,2.7029,2.64,2.5797,2.5589,2.5214,2.4965,2.548,2.5522,2.5481,2.849,2.8831,2.9575,3.0012,3.0215,2.9589,2.9466,2.9595,2.922,2.9304,2.9634,2.9913,3.0221,3.0451,2.9229,2.8842,2.9245,2.9697,2.952,2.8977,2.9771,2.9867,2.9282,2.8778,2.8528,2.8434,2.8046,2.801,2.8301,2.8636,2.8811,2.8881,2.8943,2.902,2.9198,2.9167,2.9298,2.957,2.9592,2.9726,2.9886,3.0017,2.9677,2.9067,2.9044,2.9182,2.9266,2.9289,2.935,2.947,2.9614,2.9663,2.9669,3.0428,3.1498,3.2563,3.2665,3.2869,3.346,3.3572,3.3553,3.3487,3.3408,3.303,3.2562,3.2993,3.3014,3.2243,3.2951,3.2996,3.2342,3.2191,3.2203,3.2342,3.2247,3.2231,3.2355,3.1956,3.1879,3.2206,3.2125,3.216,3.2482,3.1871,3.2002,3.242,3.2586,3.2656,3.2769,3.2699,3.254,3.2516,3.2391,3.2201,3.191,3.1259,3.1086,3.1056,3.0615,2.9913,2.9289,2.8712,2.8282,2.7754,2.7135,2.6863,2.6984,2.6827,2.6437,2.6069,2.5633,2.5578,2.6301,2.6388,2.6318,2.9537,2.9935,2.9832,3.0164,3.0649,2.9795,2.9583,2.986,2.9651,2.9645,2.9867,3.0312,3.044,3.0279,2.9972,2.9898,3.0055,3.0211,3.0065,2.9843,3.0537,3.0546,2.9921,2.97,2.934,2.8935,2.8844,2.883,2.885,2.8951,2.9091,2.9275,2.9373,2.9486,2.9589,2.9649,2.9798,2.9989,3.0033,3.0055,3.0124,3.0253,3.0167,2.9892,2.9826,2.9826,2.9848,2.987,2.9892,2.9951,2.9973,3.0223,3.0721,3.1847,3.2639,3.308,3.3551,3.3999,3.4276,3.4292,3.4267,3.4202,3.4152,3.4012,3.3759,3.3889,3.3912,3.3691,3.3831,3.3908,3.3601,3.3171,3.292,3.2958,3.2931,3.2904,3.2859,3.2484,3.2374,3.2924,3.3024,3.3103,3.3061,3.3103,3.3087,3.3266,3.3397,3.3417,3.3375,3.295,3.2573,3.2772,3.2185,3.1762,3.2911,3.1885,3.1316,3.1407,3.1127,3.0328,2.9627,2.8936,2.8437,2.8042,2.7376,2.7222,2.7447,2.6986,2.6686,2.6773,2.6304,2.6251,2.7147,2.7088,2.6939,3.0528,3.095,3.0616,3.0757,3.1109,3.0172,3.0016,3.0325,2.9741,2.9693,3.0012,3.0251,3.0305,3.0335,3.0198,3.0437,3.0779,3.06,3.0403,3.0328,3.0821,3.0828,3.0438,3.0192,2.9812,2.9381,2.9341,2.9312,2.9254,2.9245,2.9389,2.9659,2.9748,2.9842,2.9979,3.0108,3.0194,3.0295,3.038,3.0405,3.0464,3.0589,3.0651,3.0647,3.0584,3.0485,3.0422,3.0443,3.0447,3.0443,3.0405,3.0714,3.1479,3.2492,3.324,3.3496,3.42,3.4691,3.4818,3.4809,3.4816,3.4864,3.4769,3.469,3.4658,3.4699,3.465,3.4602,3.4699,3.4723,3.4537,3.4184,3.3857,3.372,3.3658,3.3658,3.362,3.2896,3.2504,3.2609,3.2908,3.3135,3.3199,3.3047,3.3015,3.3167,3.3347,3.3396,3.3258,3.2861,3.244,3.2848,3.2363,3.2394,3.2894,3.2352,3.193,3.1972,3.1517,3.0711,3.0048,2.9342,2.8803,2.8339,2.8086,2.7932,2.7631,2.7191,2.7144,2.7337,2.6949,2.6645,2.7218,2.7661,2.7446,3.1496,3.1896,3.1951,3.1724,3.1542,3.0731,3.0796,3.0929,2.9681,2.9696,3.0419,2.9878,3.0346,3.0769,3.0153,3.0222,3.1257,3.0823,3.0474,3.0474,3.0778,3.0896,3.0807,3.0292,3.0022,2.9956,2.9539,2.9421,2.9518,2.9547,2.9704,2.9968,2.9995,3.0146,3.038,3.0447,3.0506,3.0568,3.0699,3.0841,3.0995,3.1092,3.1151,3.1151,3.1151,3.1092,3.0932,3.1006,3.1022,3.0955,3.0912,3.1128,3.1691,3.2348,3.2999,3.3838,3.4562,3.4998,3.5201,3.527,3.5345,3.5374,3.5191,3.5115,3.5115,3.5201,3.5224,3.5155,3.527,3.5356,3.5247,3.5155,3.492,3.4554,3.4349,3.4325,3.4096,3.3196,3.2089,3.1788,3.2236,3.2328,3.2174,3.2128,3.2134,3.2466,3.2587,3.2626,3.2659,3.241,3.2249,3.2429,3.2434,3.2639,3.2782,3.2829,3.2707,3.2515,3.1826,3.1126,3.0593,2.9967,2.9668,2.9254,2.9105,2.8943,2.8358,2.7936,2.7585,2.7579,2.7181,2.7275,2.7805,2.8241,2.7868,3.1643,3.1902,3.123,3.1142,3.1274,3.0656,3.063,3.0951,3.0587,3.0777,3.1164,3.146,3.1532,3.1442,3.1223,3.1456,3.1852,3.1262,3.0933,3.092,3.1362,3.1476,3.1257,3.1019,3.0759,3.0432,3.0003,2.9842,2.9951,3.0022,3.0172,3.0316,3.0359,3.0468,3.0658,3.0699,3.0781,3.0975,3.1035,3.1095,3.1151,3.1232,3.1274,3.1274,3.1389,3.1483,3.1519,3.1842,3.1721,3.1205,3.1664,3.1813,3.1695,3.2584,3.3363,3.3782,3.5016,3.581,3.5941,3.5989,3.6011,3.6028,3.6006,3.5958,3.5849,3.5876,3.592,3.5898,3.5963,3.598,3.5893,3.5888,3.5627,3.5038,3.489,3.4627,3.4243,3.3798,3.3267,3.2822,3.3305,3.3511,3.3071,3.2641,3.2591,3.277,3.2952,3.2995,3.2957,3.2414,3.2383,3.2745,3.2707,3.2647,3.2818,3.2862,3.2768,3.2473,3.1847,3.1483,3.1028,3.0806,3.0494,3.0293,3.0142,2.9719,2.9138,2.87,2.8349,2.8395,2.8478,2.8675,2.8905,2.8685,2.8215,3.1872,3.19,3.1276,3.1211,3.1423,3.0938,3.0955,3.1261,3.1182,3.1319,3.1622,3.1905,3.2003,3.18,3.1829,3.1952,3.2084,3.181,3.1568,3.1371,3.1385,3.1301,3.095,3.0838,3.0746,3.0522,3.0206,3.0184,3.0316,3.0426,3.0531,3.0671,3.1061,3.113,3.1069,3.1374,3.156,3.14,3.1387,3.1445,3.1521,3.1579,3.16,3.1637,3.1802,3.1893,3.2018,3.2619,3.2521,3.18,3.2076,3.2143,3.1998,3.2815,3.3471,3.3979,3.471,3.5483,3.6003,3.6058,3.6307,3.6481,3.6564,3.652,3.6416,3.644,3.6444,3.6444,3.6423,3.644,3.6377,3.6377,3.617,3.5827,3.5577,3.5088,3.4493,3.4594,3.4098,3.3525,3.366,3.3654,3.3026,3.2743,3.2781,3.2764,3.2841,3.2901,3.2758,3.2338,3.2448,3.2557,3.2489,3.2574,3.291,3.2897,3.2774,3.2307,3.1779,3.1589,3.1335,3.1442,3.1332,3.1243,3.1123,3.0428,2.9817,2.9466,2.9142,2.9431,2.9486,2.9388,2.9235,2.8853,2.8401,3.2144,3.1909,3.1867,3.1871,3.1972,3.1695,3.1823,3.2056,3.1521,3.1524,3.181,3.1868,3.189,3.2082,3.2097,3.2203,3.2339,3.2643,3.2482,3.2062,3.16,3.0985,3.017,3.0151,3.0277,3.0335,3.041,3.0467,3.063,3.087,3.0888,3.1106,3.1758,3.2032,3.1577,3.2322,3.2276,3.174,3.1746,3.191,3.2055,3.2108,3.2126,3.2161,3.2266,3.2335,3.2475,3.3106,3.3178,3.2354,3.2247,3.2366,3.2833,3.2891,3.3362,3.4106,3.4142,3.4905,3.5554,3.5955,3.6145,3.6841,3.6829,3.6722,3.6725,3.6745,3.6766,3.6766,3.6768,3.6766,3.6766,3.6766,3.6725,3.6647,3.6113,3.5557,3.516,3.5519,3.489,3.361,3.3468,3.3513,3.2328,3.2145,3.213,3.2046,3.2098,3.215,3.2151,3.2134,3.1924,3.2093,3.245,3.2607,3.2978,3.3183,3.3009,3.2519,3.201,3.1853,3.1763,3.1921,3.2086,3.2018,3.1775,3.1093,3.0583,3.0209,2.9832,2.9766,2.9716,2.9639,2.9583,2.9437,2.9161,3.2017,3.2018,3.1841,3.1945,3.2287,3.2394,3.2602,3.285,3.2792,3.273,3.2929,3.3214,3.3351,3.3577,3.3623,3.3803,3.3909,3.4023,3.3753,3.328,3.3319,3.2067,3.0677,3.0526,3.0671,3.0824,3.1357,3.15,3.1185,3.1704,3.1822,3.1445,3.1812,3.1891,3.1799,3.2098,3.212,3.2072,3.2073,3.2144,3.2249,3.2353,3.2387,3.2422,3.259,3.2672,3.2755,3.3078,3.3372,3.3335,3.2616,3.2301,3.2652,3.3107,3.3563,3.3968,3.4918,3.5623,3.6016,3.6492,3.6879,3.7017,3.7126,3.7105,3.7009,3.7087,3.7124,3.7163,3.7259,3.7317,3.7242,3.7206,3.7167,3.6962,3.633,3.5797,3.587,3.5663,3.5278,3.4874,3.5068,3.445,3.3545,3.302,3.2897,3.2546,3.2335,3.2283,3.2335,3.2353,3.2353,3.2581,3.2844,3.2862,3.302,3.3301,3.3231,3.2756,3.2406,3.2228,3.2192,3.2286,3.2426,3.2491,3.217,3.1594,3.1247,3.0912,3.0579,3.011,3.0482,3.0649,3.0825,3.077,3.0439,3.2477,3.2379,3.2226,3.2477,3.2926,3.3113,3.3277,3.3398,3.3601,3.3704,3.3822,3.4226,3.4399,3.4358,3.4602,3.4732,3.4691,3.4739,3.461,3.4462,3.4431,3.3241,3.1804,3.1664,3.1662,3.1289,3.2357,3.2287,3.1754,3.2351,3.2343,3.2021,3.2477,3.2554,3.2089,3.2806,3.2773,3.2441,3.2318,3.2387,3.2556,3.264,3.2739,3.2802,3.2963,3.3091,3.3168,3.3517,3.3696,3.3457,3.297,3.2796,3.3134,3.3543,3.3967,3.4355,3.5261,3.5829,3.6364,3.6791,3.7129,3.7433,3.7541,3.7505,3.7487,3.7559,3.7631,3.7559,3.7721,3.7739,3.7721,3.7685,3.765,3.7524,3.6949,3.6578,3.6781,3.651,3.6145,3.5975,3.5895,3.5687,3.4497,3.4123,3.3729,3.3336,3.293,3.2841,3.2768,3.2818,3.2852,3.3012,3.3068,3.3035,3.3053,3.325,3.3358,3.2928,3.2661,3.2497,3.2651,3.2666,3.2696,3.2722,3.2469,3.2116,3.16,3.1203,3.093,3.0794,3.1308,3.1447,3.1433,3.1262,3.1052,3.3205,3.2895,3.2911,3.3203,3.3668,3.3745,3.3771,3.3822,3.4084,3.4259,3.4399,3.478,3.4851,3.4763,3.4994,3.5018,3.4859,3.5071,3.527,3.5334,3.5237,3.4295,3.3056,3.3084,3.2767,3.2234,3.3305,3.3147,3.2729,3.309,3.299,3.2819,3.3732,3.3561,3.2862,3.3688,3.3706,3.282,3.2623,3.2739,3.29,3.2963,3.3042,3.3162,3.3301,3.3422,3.3622,3.4,3.4078,3.3259,3.3288,3.3802,3.4379,3.4321,3.4607,3.5246,3.5484,3.5948,3.66,3.6837,3.7177,3.7872,3.7981,3.7945,3.7946,3.8016,3.8051,3.7947,3.8083,3.8117,3.8133,3.8168,3.8185,3.8132,3.8097,3.7947,3.7685,3.756,3.7238,3.656,3.6611,3.6319,3.5596,3.4945,3.4382,3.3677,3.3376,3.3216,3.316,3.319,3.3205,3.3259,3.3247,3.3147,3.3165,3.3216,3.3255,3.3129,3.2868,3.2778,3.3064,3.3117,3.3034,3.2862,3.2336,3.1865,3.141,3.1131,3.1028,3.1272,3.162,3.1568,3.1428,3.1149,3.0905,3.3401,3.3497,3.3642,3.3729,3.3899,3.4176,3.4325,3.4374,3.4715,3.4811,3.4851,3.5088,3.5198,3.5198,3.536,3.5452,3.5577,3.5739,3.6011,3.6308,3.6305,3.5821,3.4896,3.4471,3.393,3.3869,3.4714,3.4722,3.4255,3.4544,3.4935,3.4212,3.3881,3.3759,3.3599,3.3312,3.3177,3.2963,3.3024,3.3101,3.3244,3.3289,3.3301,3.339,3.3491,3.3601,3.3744,3.3927,3.3954,3.4064,3.4659,3.5209,3.5146,3.5279,3.5391,3.5625,3.6233,3.6645,3.6944,3.7531,3.8049,3.8277,3.8348,3.8302,3.8283,3.8332,3.835,3.8316,3.8412,3.8507,3.8523,3.871,3.8691,3.8643,3.8673,3.8725,3.8538,3.8216,3.7906,3.7814,3.7805,3.7485,3.62,3.5872,3.5159,3.4174,3.3708,3.3567,3.3512,3.3526,3.3541,3.3541,3.3569,3.3508,3.3522,3.3522,3.3522,3.3476,3.3235,3.3177,3.3444,3.342,3.3293,3.2747,3.2043,3.16,3.1235,3.1262,3.1198,3.1566,3.1917,3.2056,3.1982,3.1434,3.0678,3.3893,3.405,3.4075,3.4275,3.4546,3.4699,3.4811,3.4899,3.5105,3.5182,3.5222,3.5337,3.5481,3.5672,3.5756,3.5893,3.6152,3.6364,3.6574,3.6776,3.6818,3.6705,3.654,3.5902,3.5441,3.4946,3.5865,3.58,3.5292,3.5615,3.5705,3.5084,3.4587,3.4335,3.4079,3.3629,3.3436,3.325,3.3286,3.3375,3.3524,3.3553,3.3601,3.3657,3.3753,3.3815,3.39,3.4363,3.4537,3.4929,3.5862,3.605,3.5235,3.5505,3.5807,3.5999,3.7014,3.7656,3.7972,3.8251,3.86,3.8725,3.874,3.8737,3.8766,3.8829,3.8829,3.8811,3.8902,3.8993,3.8993,3.9064,3.9106,3.9073,3.9101,3.9184,3.9064,3.877,3.8507,3.8538,3.8563,3.8018,3.7345,3.6595,3.5809,3.4752,3.4007,3.3829,3.3788,3.3784,3.3815,3.3842,3.3895,3.3889,3.3889,3.3902,3.3915,3.3839,3.3703,3.3738,3.3965,3.3744,3.3484,3.2918,3.2364,3.1512,3.1178,3.1252,3.1401,3.1518,3.1867,3.2454,3.2484,3.1693,3.0898,3.4456,3.4626,3.4554,3.4859,3.5321,3.5274,3.5297,3.536,3.5406,3.5503,3.5588,3.5611,3.5866,3.6114,3.6161,3.6367,3.6655,3.6814,3.6992,3.7167,3.7204,3.7246,3.7233,3.7109,3.6663,3.5472,3.6572,3.6504,3.6043,3.6149,3.6505,3.5893,3.5538,3.5193,3.4709,3.438,3.3993,3.3528,3.3462,3.3563,3.3698,3.3744,3.3857,3.4215,3.4292,3.446,3.4694,3.5151,3.5534,3.5652,3.6841,3.6292,3.5412,3.5605,3.6461,3.6684,3.7885,3.8456,3.8652,3.8855,3.8974,3.9142,3.9142,3.917,3.9229,3.9261,3.9248,3.9181,3.9139,3.9042,3.9225,3.8863,3.8969,3.9132,3.9219,3.9313,3.938,3.9202,3.9059,3.8979,3.8905,3.8484,3.7669,3.6859,3.611,3.5356,3.4649,3.4161,3.4123,3.4105,3.4148,3.4389,3.4506,3.4733,3.4782,3.4293,3.4293,3.4201,3.4098,3.4183,3.4333,3.4129,3.383,3.3421,3.2811,3.2022,3.1581,3.1792,3.1801,3.1606,3.2133,3.3089,3.2771,3.1941,3.1237,3.4829,3.5264,3.5453,3.5627,3.5717,3.5749,3.5744,3.5751,3.5861,3.5915,3.5985,3.6131,3.628,3.6471,3.6512,3.6739,3.7034,3.7185,3.7354,3.7541,3.7577,3.7613,3.7667,3.7721,3.7524,3.7488,3.765,3.7381,3.7274,3.7558,3.7447,3.7305,3.6691,3.6051,3.5424,3.4927,3.4215,3.3757,3.3703,3.378,3.397,3.4165,3.4481,3.5042,3.5147,3.5445,3.5998,3.6281,3.6469,3.669,3.6889,3.6808,3.6752,3.7608,3.8153,3.8227,3.8608,3.9031,3.9115,3.9237,3.9304,3.9337,3.9337,3.9356,3.9369,3.9331,3.9269,3.9189,3.8846,3.8515,3.8452,3.8344,3.8082,3.835,3.8768,3.8956,3.9395,3.9496,3.942,3.9354,3.9197,3.8904,3.8014,3.7231,3.6578,3.5832,3.5072,3.468,3.4601,3.4561,3.4562,3.4884,3.5273,3.5542,3.5762,3.5071,3.4685,3.4548,3.4459,3.4445,3.4526,3.4475,3.421,3.3946,3.345,3.2742,3.2508,3.2435,3.2398,3.2348,3.306,3.386,3.3344,3.2754,3.2066,3.5161,3.5694,3.5783,3.5958,3.6131,3.6097,3.6156,3.6199,3.628,3.6343,3.6367,3.643,3.6632,3.6796,3.6873,3.7091,3.7394,3.7576,3.7721,3.7845,3.7828,3.7863,3.7897,3.7968,3.8038,3.8054,3.8019,3.7932,3.788,3.8035,3.8138,3.7845,3.7025,3.6266,3.5793,3.4765,3.4243,3.3907,3.3955,3.4218,3.4727,3.5106,3.5751,3.6025,3.6199,3.6466,3.6788,3.6931,3.6979,3.7171,3.7481,3.7662,3.8025,3.8534,3.9045,3.8771,3.9016,3.9311,3.935,3.9427,3.9452,3.9489,3.9521,3.9533,3.9414,3.9219,3.9038,3.8956,3.925,3.9016,3.9177,3.8667,3.881,3.9041,3.9127,3.9263,3.9538,3.9628,3.9635,3.9599,3.9513,3.9063,3.8276,3.7575,3.7035,3.6314,3.5528,3.531,3.5195,3.527,3.5334,3.5734,3.6145,3.6243,3.6368,3.5799,3.5088,3.487,3.4803,3.4774,3.4764,3.4735,3.4754,3.4648,3.4064,3.3406,3.3075,3.2906,3.298,3.3141,3.3711,3.4151,3.3985,3.3582,3.2864,3.5504,3.5904,3.5998,3.6172,3.6394,3.6478,3.6571,3.6673,3.6676,3.6713,3.6696,3.6756,3.6935,3.7166,3.7299,3.7449,3.7757,3.7863,3.7951,3.802,3.7985,3.802,3.8104,3.8121,3.8156,3.8272,3.8289,3.8221,3.8154,3.8254,3.8368,3.8104,3.6985,3.6432,3.6342,3.539,3.4576,3.4471,3.4567,3.5032,3.5789,3.6491,3.7074,3.7265,3.7277,3.7399,3.7811,3.7868,3.7928,3.8134,3.8436,3.8712,3.8837,3.9365,3.9361,3.8889,3.9236,3.9476,3.9563,3.9575,3.9599,3.9623,3.9635,3.9677,3.963,3.935,3.9014,3.909,3.9104,3.9591,3.9688,3.9559,3.9456,3.9599,3.9599,3.9749,3.9821,3.9829,3.9739,3.9724,3.9712,3.9312,3.8593,3.8221,3.7743,3.7205,3.6431,3.6384,3.6327,3.6378,3.6502,3.6825,3.7053,3.7013,3.6878,3.6504,3.576,3.516,3.5079,3.5034,3.5025,3.5025,3.5073,3.5142,3.4642,3.4035,3.3707,3.3564,3.3776,3.4022,3.4352,3.4454,3.4344,3.4116,3.3569,3.5803,3.5633,3.6492,3.6562,3.6237,3.686,3.7068,3.697,3.6978,3.7032,3.7071,3.7207,3.7359,3.7595,3.7739,3.7845,3.7932,3.7984,3.8071,3.8157,3.8157,3.8189,3.8256,3.8274,3.832,3.8433,3.8433,3.8401,3.8382,3.8462,3.8544,3.8386,3.7838,3.7444,3.7253,3.6325,3.6295,3.6261,3.6289,3.6466,3.6739,3.703,3.7521,3.7974,3.8277,3.8535,3.9059,3.9157,3.931,3.9561,3.9692,3.9815,3.9932,4.0002,4.0019,3.9819,3.9766,3.9701,3.9758,3.977,3.977,3.9773,3.9773,3.9815,3.9689,3.98,3.9927,4.0886,3.9934,3.9518,3.9786,3.8983,3.8713,3.9037,3.9515,3.9792,4.0003,4.0053,3.9939,3.9918,3.9938,3.9586,3.9033,3.8766,3.847,3.7928,3.7509,3.7471,3.7451,3.7486,3.7834,3.8206,3.8216,3.8161,3.7658,3.7241,3.6493,3.5676,3.553,3.5473,3.5572,3.5632,3.5556,3.5485,3.5132,3.5091,3.5049,3.4965,3.4823,3.4728,3.4765,3.4774,3.4734,3.445,3.4166,3.6257,3.5764,3.6634,3.6909,3.6798,3.7193,3.7354,3.7266,3.7004,3.713,3.7416,3.7236,3.7446,3.7877,3.7967,3.7985,3.8019,3.8121,3.8189,3.8256,3.8305,3.8352,3.8382,3.8433,3.8478,3.8652,3.8698,3.8743,3.8713,3.8652,3.8673,3.8636,3.8066,3.7687,3.7789,3.7039,3.6747,3.6851,3.7243,3.7653,3.7899,3.8247,3.8677,3.9104,3.9225,3.954,3.9842,4.002,4.0109,4.0244,4.0206,4.0187,4.0196,4.0196,4.0148,4.0109,4.0038,4.0005,3.9984,3.9965,3.9954,3.9946,3.9908,3.9747,3.9551,3.9811,3.9917,3.9792,3.9834,3.9956,4.0211,3.9734,3.9679,3.9761,3.9765,3.9941,4.0213,4.0211,4.0196,4.0175,4.0123,3.9826,3.9652,3.9627,3.9487,3.9221,3.8786,3.8588,3.8561,3.8561,3.9058,3.9727,3.9604,3.9392,3.8722,3.812,3.7286,3.6573,3.6353,3.6306,3.6327,3.6339,3.637,3.6596,3.6733,3.6673,3.6487,3.5912,3.5339,3.5158,3.5054,3.5047,3.5039,3.4935,3.4527,3.6726,3.6126,3.6867,3.719,3.7198,3.747,3.7685,3.7721,3.7356,3.7478,3.7782,3.764,3.776,3.8142,3.8236,3.8252,3.8236,3.8368,3.8435,3.8483,3.8496,3.8572,3.8615,3.8646,3.874,3.895,3.8921,3.8964,3.8979,3.8935,3.8877,3.8829,3.8155,3.8053,3.7968,3.762,3.7337,3.7871,3.8363,3.8684,3.889,3.9358,3.9641,3.9832,3.9977,4.0109,4.0215,4.0262,4.0353,4.0379,4.037,4.0344,4.0297,4.0306,4.0279,4.0261,4.0243,4.0243,4.0196,4.0167,4.0147,4.0147,4.0158,3.9967,3.9594,3.9918,4.0356,4.0021,4.0079,4.0471,4.0668,4.0669,4.0444,4.04,4.0477,4.0506,4.0503,4.0484,4.0294,4.0061,4.0089,4.0308,4.0243,4.0435,4.0446,4.0417,4.0162,3.9739,3.9602,3.9509,3.9832,4.0388,4.0286,3.9977,3.9361,3.8679,3.7925,3.745,3.7212,3.7102,3.7107,3.7298,3.7457,3.7762,3.7893,3.7367,3.6668,3.6201,3.5815,3.5815,3.575,3.5455,3.5324,3.5231,3.4882,3.729,3.678,3.7381,3.7327,3.6894,3.7814,3.8223,3.8189,3.8192,3.8168,3.8237,3.8355,3.8379,3.8554,3.8618,3.8652,3.8713,3.8822,3.8822,3.8818,3.8862,3.8859,3.8902,3.8931,3.8984,3.9069,3.9115,3.9156,3.9197,3.9245,3.9129,3.8943,3.8464,3.8611,3.868,3.8453,3.8519,3.8983,3.9395,3.9505,3.9615,3.9802,3.9924,4.0048,4.0148,4.0224,4.0279,4.0351,4.0413,4.0474,4.0474,4.0466,4.0411,4.0433,4.0425,4.0427,4.0606,4.0633,4.0628,4.0384,4.0215,4.0244,4.028,4.0328,4.0148,4.0296,4.0739,4.1074,4.0752,4.0917,4.1151,4.1261,4.0815,4.0725,4.0713,4.0718,4.0693,4.0724,4.049,4.0059,4.0109,4.0497,4.0657,4.0809,4.0706,4.0636,4.0643,4.0236,4.0288,4.0243,4.0359,4.063,4.0636,4.0326,3.9712,3.9118,3.8661,3.8257,3.793,3.7874,3.7855,3.8073,3.8073,3.7951,3.7822,3.7347,3.7057,3.6964,3.6841,3.6665,3.6381,3.5798,3.5476,3.5358,3.4933,3.7447,3.6931,3.7759,3.7889,3.7535,3.8079,3.8307,3.8231,3.7951,3.7896,3.8092,3.8471,3.8728,3.8788,3.8773,3.8788,3.8803,3.8921,3.8964,3.8993,3.9007,3.9031,3.9073,3.9129,3.917,3.9259,3.9324,3.9376,3.9471,3.9502,3.9452,3.9226,3.8957,3.9114,3.9233,3.9248,3.9501,3.9686,3.9878,3.9941,4.0036,4.0067,4.0118,4.0167,4.0271,4.0325,4.0368,4.0427,4.046,4.0503,4.0511,4.0511,4.0519,4.0534,4.0557,4.0646,4.0933,4.1198,4.1152,4.0796,4.0425,4.0449,4.0496,4.0542,4.0566,4.0607,4.0703,4.0892,4.0971,4.1027,4.0951,4.0965,4.0839,4.0818,4.0823,4.0849,4.0859,4.0864,4.0815,4.0437,4.064,4.0975,4.1081,4.1144,4.0951,4.0776,4.0804,4.0792,4.073,4.0511,4.0434,4.0415,4.0399,4.0411,3.9851,3.9599,3.94,3.9035,3.8618,3.8589,3.8508,3.8168,3.8129,3.7988,3.7885,3.7608,3.7571,3.7881,3.7578,3.6735,3.6214,3.5784,3.5578,3.5462,3.5133,3.7863,3.7571,3.8209,3.8366,3.817,3.8387,3.8483,3.8405,3.8125,3.8005,3.8234,3.8709,3.895,3.8979,3.9026,3.9026,3.9078,3.9175,3.9215,3.9256,3.9283,3.9277,3.929,3.9362,3.9439,3.9489,3.9539,3.9606,3.9635,3.9717,3.9682,3.9623,3.9611,3.9628,3.9604,3.977,3.9911,4.0017,4.0057,4.0068,4.0177,4.0215,4.0244,4.0271,4.036,4.0438,4.0471,4.05,4.0531,4.0527,4.0534,4.0542,4.0591,4.0626,4.0641,4.0881,4.121,4.1674,4.1712,4.1454,4.0859,4.0694,4.0662,4.0681,4.07,4.0738,4.0825,4.0806,4.0823,4.0824,4.0782,4.0883,4.0915,4.0897,4.0912,4.093,4.0915,4.092,4.0937,4.0856,4.1077,4.1124,4.1112,4.1116,4.1064,4.0743,4.0369,4.0475,4.0698,4.0382,3.9902,3.9902,3.9951,3.9976,3.9966,3.9495,3.9146,3.9471,3.917,3.9213,3.9081,3.8664,3.8504,3.8644,3.8459,3.8037,3.7627,3.7295,3.6866,3.6341,3.5981,3.5705,3.568,3.5571,3.5534,3.8551,3.8755,3.8755,3.8637,3.8449,3.8743,3.8866,3.8833,3.8896,3.8939,3.8966,3.9161,3.9188,3.9215,3.932,3.936,3.9399,3.9546,3.9608,3.9564,3.9552,3.9601,3.9625,3.9644,3.9625,3.9735,3.9747,3.9735,3.9792,3.9859,3.9878,3.9911,3.9903,3.9914,3.9739,3.9837,4.0015,4.0166,4.0128,4.0177,4.0252,4.0307,4.0351,4.0402,4.0463,4.0519,4.0565,4.0588,4.0598,4.0581,4.0588,4.0602,4.0641,4.07,4.072,4.077,4.1013,4.1493,4.21,4.2001,4.1523,4.0912,4.0798,4.0805,4.0858,4.0896,4.0882,4.0888,4.0956,4.0996,4.098,4.0988,4.0988,4.112,4.1175,4.1159,4.1163,4.0995,4.1013,4.102,4.1058,4.1067,4.1052,4.1036,4.1057,4.0739,4.0127,4.0153,4.0595,4.0513,4.0051,4.0042,4.014,4.0027,3.9974,3.9201,3.8948,3.9391,3.9639,3.9567,3.9407,3.9014,3.899,3.9189,3.8282,3.7201,3.674,3.6382,3.6217,3.6111,3.5892,3.5713,3.5688,3.5672,3.5626,3.8446,3.8128,3.8626,3.8803,3.8758,3.8892,3.8954,3.8935,3.9092,3.9215,3.9307,3.9315,3.9346,3.9373,3.9444,3.9508,3.952,3.9583,3.9645,3.9645,3.9638,3.965,3.9686,3.9708,3.9743,3.9781,3.9804,3.9848,3.9943,3.9986,4.0026,4.0057,4.0205,4.0119,4.009,4.0158,4.0289,4.0323,4.0349,4.0411,4.0471,4.0495,4.0546,4.0604,4.0657,4.0752,4.0795,4.0821,4.0822,4.0739,4.0707,4.0765,4.0757,4.0787,4.0826,4.1164,4.1621,4.2752,4.2877,4.2591,4.1799,4.1235,4.0997,4.101,4.0968,4.0964,4.0984,4.1011,4.1036,4.1039,4.1006,4.1055,4.1159,4.1633,4.1731,4.1643,4.1551,4.1226,4.1056,4.1075,4.1106,4.125,4.1301,4.1481,4.1512,4.1304,4.0782,4.0562,4.0863,4.0867,4.063,4.0634,4.0649,4.04,4.0038,3.931,3.9321,3.9948,3.9914,3.9661,3.9463,3.9322,3.8731,3.8517,3.7358,3.6258,3.6328,3.6344,3.6122,3.5963,3.5814,3.5741,3.5722,3.5704,3.5684,3.8401,3.7849,3.8588,3.8755,3.8603,3.8868,3.8993,3.9036,3.9188,3.9301,3.9328,3.9405,3.9418,3.9431,3.9495,3.9533,3.9546,3.9608,3.9645,3.9645,3.9638,3.9679,3.9708,3.9743,3.9811,3.9867,3.9911,3.9965,4.0036,4.0117,4.0147,4.0273,4.0548,4.0546,4.0468,4.0349,4.0394,4.0417,4.0457,4.0496,4.0677,4.0868,4.1121,4.1245,4.1356,4.1499,4.1345,4.1306,4.1306,4.1059,4.0986,4.1023,4.0969,4.0859,4.0888,4.1367,4.2128,4.2996,4.2848,4.315,4.2273,4.1175,4.1308,4.1464,4.1487,4.1578,4.1302,4.1211,4.1167,4.1326,4.1463,4.1469,4.1835,4.2331,4.2526,4.2456,4.2437,4.213,4.1807,4.1749,4.1835,4.1857,4.1823,4.1908,4.2087,4.1807,4.1507,4.1296,4.0986,4.0783,4.0736,4.0743,4.0442,3.9925,3.9694,3.9483,3.9725,4.0468,4.0268,3.9908,3.9914,3.9811,3.8823,3.799,3.7647,3.7209,3.6641,3.6408,3.6433,3.6213,3.5875,3.5807,3.5775,3.5825,3.5879,3.8455,3.7993,3.8678,3.8581,3.81,3.8772,3.912,3.9197,3.9346,3.9328,3.9237,3.9438,3.9482,3.9457,3.9558,3.9577,3.9589,3.9657,3.9681,3.9674,3.9686,3.9731,3.9758,3.9792,3.9856,3.9943,4.0005,4.0015,4.0106,4.0415,4.0492,4.0774,4.1421,4.1357,4.1086,4.0952,4.0806,4.065,4.0542,4.0701,4.0982,4.1492,4.1821,4.2093,4.246,4.2492,4.2419,4.2418,4.202,4.1731,4.1577,4.1417,4.1199,4.0917,4.0891,4.1295,4.2123,4.2367,4.2922,4.3457,4.2905,4.1944,4.2108,4.2325,4.2281,4.2139,4.198,4.1691,4.1622,4.1983,4.2245,4.2518,4.2789,4.3158,4.3489,4.355,4.3626,4.3379,4.3015,4.2942,4.3108,4.3132,4.2963,4.2966,4.2478,4.2108,4.1755,4.1385,4.099,4.0176,4.0192,4.0397,3.9964,3.9201,3.9144,3.9706,3.9987,4.0675,4.0504,4.0231,4.0291,4.0228,3.9458,3.8861,3.8666,3.8229,3.7508,3.7121,3.6986,3.6704,3.6506,3.6242,3.6313,3.6219,3.6216,3.8464,3.8794,3.8994,3.9007,3.9005,3.9282,3.9413,3.936,3.9444,3.9482,3.9483,3.9558,3.9558,3.954,3.9577,3.9608,3.962,3.9633,3.9669,3.9712,3.9816,3.978,3.9826,3.9909,3.9905,3.996,4.0032,4.0236,4.0346,4.0731,4.1657,4.2218,4.2405,4.2376,4.2313,4.2282,4.1563,4.1041,4.0891,4.1202,4.1571,4.2086,4.2511,4.3007,4.3366,4.3336,4.3188,4.2801,4.2344,4.2069,4.1498,4.1163,4.1156,4.1107,4.1295,4.2646,4.2833,4.2797,4.3788,4.3865,4.3411,4.2967,4.3187,4.2811,4.265,4.2531,4.2631,4.244,4.2251,4.2552,4.3043,4.3393,4.3805,4.4236,4.4411,4.4333,4.439,4.4276,4.393,4.3839,4.4019,4.3867,4.375,4.328,4.2791,4.2378,4.2004,4.1671,4.1165,4.0429,4.0077,4.0329,4.0327,3.9838,4.0108,4.0633,4.0658,4.0759,4.0624,4.0565,4.0622,4.0465,4.0012,3.9654,3.9372,3.8876,3.8266,3.8016,3.7925,3.7731,3.7513,3.7139,3.6843,3.6767,3.6821,3.8176,3.8335,3.9048,3.9363,3.9439,3.9489,3.9489,3.9439,3.952,3.9558,3.9552,3.9577,3.9577,3.9552,3.9596,3.962,3.9626,3.9657,3.9681,3.9767,4.0054,3.9992,4.0019,4.0337,4.0446,4.0377,4.0555,4.1085,4.1081,4.1915,4.2928,4.2783,4.3209,4.3297,4.3115,4.2876,4.2589,4.2091,4.1886,4.2131,4.2472,4.2908,4.3499,4.3868,4.4171,4.4142,4.3649,4.3101,4.2871,4.2195,4.1364,4.1359,4.1384,4.1415,4.2089,4.324,4.3277,4.3667,4.4448,4.4469,4.4106,4.3975,4.4258,4.4255,4.3668,4.3356,4.3375,4.3297,4.3167,4.3192,4.3758,4.4306,4.4855,4.5402,4.5227,4.5052,4.5032,4.5013,4.486,4.4706,4.457,4.437,4.4053,4.3581,4.3361,4.3413,4.3037,4.241,4.1844,4.1112,4.0792,4.0798,4.0897,4.082,4.1113,4.1133,4.1073,4.0992,4.0948,4.091,4.0973,4.0878,4.0586,4.0292,3.9998,3.9526,3.913,3.9056,3.8942,3.8708,3.8472,3.8209,3.7809,3.7434,3.7544,3.7735,3.7187,3.8857,3.9563,3.9495,3.9464,3.9464,3.9521,3.969,3.9627,3.9571,3.9583,3.9583,3.9558,3.9583,3.9758,3.9895,3.9982,4.003,3.987,4.0552,4.0541,4.0431,4.1185,4.0783,4.0846,4.1214,4.1755,4.2189,4.2938,4.3502,4.3156,4.3981,4.4221,4.3836,4.3834,4.3724,4.3666,4.351,4.3645,4.3682,4.4181,4.4806,4.5011,4.5296,4.5398,4.4354,4.3864,4.3715,4.2326,4.1542,4.1649,4.1786,4.187,4.2756,4.356,4.3812,4.4396,4.5003,4.516,4.4655,4.4715,4.5184,4.5131,4.4547,4.4092,4.405,4.4266,4.4191,4.431,4.4779,4.5054,4.5504,4.5818,4.58,4.5703,4.5703,4.5683,4.5604,4.5405,4.5145,4.4997,4.5127,4.4711,4.4099,4.4375,4.3682,4.2824,4.2473,4.1757,4.1347,4.1168,4.1115,4.11,4.1101,4.114,4.125,4.122,4.1252,4.1603,4.191,4.1665,4.1244,4.0993,4.0761,4.0449,4.0136,4.0,3.9766,3.9414,3.9238,3.9218,3.8866,3.8375,3.8329,3.7655,3.8124,3.9267,3.9689,3.9587,3.9611,3.9575,3.9558,4.0196,4.0052,3.9677,3.9596,3.9627,3.969,3.9614,3.9852,4.0446,4.047,4.0644,4.0778,4.1207,4.1044,4.0222,4.1024,4.0905,4.1092,4.1592,4.2504,4.3359,4.4011,4.4536,4.4821,4.5222,4.5028,4.4923,4.5008,4.5046,4.501,4.5062,4.4812,4.4594,4.4681,4.5019,4.5566,4.602,4.5618,4.4743,4.4055,4.3424,4.2346,4.1575,4.1647,4.2087,4.2321,4.32,4.4315,4.4667,4.5154,4.5564,4.578,4.541,4.498,4.5136,4.5095,4.496,4.4783,4.4838,4.5113,4.5328,4.5485,4.5623,4.582,4.5976,4.6152,4.6288,4.6287,4.6285,4.6261,4.6235,4.601,4.5724,4.575,4.5916,4.5671,4.5094,4.4244,4.3176,4.2507,4.2714,4.2309,4.1599,4.1347,4.1142,4.1109,4.1111,4.1189,4.1319,4.1608,4.1757,4.2225,4.2715,4.244,4.2046,4.1822,4.1574,4.1129,4.0837,4.0817,4.0543,4.0134,3.9919,3.9862,3.9803,3.9413,3.9374,3.7731,3.8516,3.9418,3.9747,3.9658,3.9623,3.9556,3.9596,3.9957,3.9933,3.9708,3.9946,4.0128,4.0027,3.982,4.0139,4.0859,4.0928,4.1257,4.1567,4.1961,4.1865,4.1594,4.159,4.2017,4.2306,4.2661,4.3493,4.4526,4.4885,4.5261,4.5602,4.5723,4.58,4.588,4.5956,4.6014,4.6017,4.6075,4.5799,4.5356,4.5453,4.5558,4.6112,4.6072,4.5691,4.5143,4.4434,4.3858,4.3206,4.2627,4.2595,4.3047,4.3437,4.4022,4.4803,4.533,4.578,4.615,4.6208,4.6029,4.5635,4.5516,4.5653,4.5665,4.5541,4.5585,4.5819,4.582,4.5956,4.5995,4.6131,4.6127,4.6221,4.624,4.6237,4.6227,4.6195,4.6186,4.614,4.5961,4.5949,4.6036,4.5994,4.5515,4.534,4.4055,4.3428,4.3416,4.2961,4.2217,4.1711,4.1629,4.1268,4.11,4.1234,4.1424,4.1769,4.2139,4.2275,4.2496,4.2822,4.2858,4.2527,4.2129,4.1607,4.1394,4.1238,4.1123,4.0733,4.0577,4.0479,4.042,4.0303,4.0134,3.7978,3.8779,3.949,3.9751,3.9663,3.9532,3.9489,3.9521,3.9582,3.9701,3.9934,4.0647,4.0885,4.0447,4.0221,4.0602,4.1077,4.1697,4.2089,4.261,4.3322,4.2834,4.304,4.3694,4.3388,4.3501,4.3938,4.4566,4.5395,4.551,4.5557,4.5773,4.5848,4.5861,4.5935,4.5994,4.6026,4.6099,4.6123,4.6141,4.6112,4.6154,4.6147,4.6181,4.6155,4.5774,4.5262,4.4863,4.4477,4.3977,4.3513,4.3633,4.3885,4.4311,4.4774,4.5377,4.5807,4.6099,4.6272,4.6231,4.6189,4.6129,4.6207,4.6181,4.6145,4.6173,4.6206,4.6233,4.6237,4.624,4.6278,4.6276,4.6248,4.6218,4.6197,4.6191,4.615,4.6131,4.6164,4.6193,4.6146,4.6106,4.6078,4.6059,4.5992,4.5875,4.5579,4.519,4.4641,4.3804,4.3019,4.265,4.247,4.2029,4.1315,4.1315,4.1529,4.1854,4.2165,4.2169,4.2429,4.3286,4.3582,4.3116,4.266,4.204,4.1576,4.1324,4.1229,4.1094,4.0974,4.0797,4.0839,4.0723,4.0611,3.8362,3.9787,3.9821,3.9751,3.9663,3.9502,3.9426,3.955,4.015,4.0489,4.0609,4.1191,4.1186,3.9927,4.0528,4.111,4.1872,4.2552,4.3137,4.3645,4.3994,4.3512,4.3379,4.4028,4.375,4.4156,4.479,4.5382,4.5692,4.5727,4.5783,4.5893,4.5941,4.5956,4.5997,4.6037,4.6126,4.6174,4.6185,4.6174,4.6198,4.6228,4.6262,4.629,4.6277,4.573,4.5249,4.5044,4.4463,4.398,4.3867,4.4235,4.46,4.5004,4.5348,4.573,4.6179,4.6212,4.6245,4.6233,4.6206,4.6195,4.6167,4.6151,4.6141,4.6177,4.6195,4.6209,4.6221,4.6257,4.6257,4.6234,4.6184,4.6181,4.617,4.6128,4.6099,4.6107,4.6119,4.6115,4.6102,4.6084,4.606,4.6047,4.6027,4.5828,4.5468,4.5157,4.5405,4.4623,4.3801,4.3543,4.3318,4.228,4.1393,4.1462,4.1653,4.1976,4.2381,4.2778,4.3397,4.4276,4.438,4.3891,4.3105,4.239,4.1965,4.1462,4.1211,4.1094,4.1107,4.1066,4.1113,4.1078,4.0888]}]]